GFSSW_850_spd_000.txt.gz
Wind_Speed
9 9 9 10 10 12 12 12 12 12 11 10 9 8 7 7 8 10 11 7 8 10 8 6 9 10 11 16 16 14 5 3 3 17 7 14 3 4 22 35 38 42 10 27 23
9 9 10 10 11 12 13 13 13 13 10 10 10 9 8 9 12 15 10 9 12 9 10 10 10 10 13 14 13 12 6 8 13 19 11 12 1 9 20 35 18 15 7 15 21
9 9 9 10 11 12 12 14 13 13 11 10 10 8 8 9 6 4 4 6 7 8 9 9 7 10 13 16 17 16 10 31 26 4 11 10 14 3 34 17 7 33 20 16 17
9 10 10 10 10 12 12 13 13 12 12 10 10 8 7 6 3 2 3 4 7 10 11 11 11 11 13 14 17 14 16 34 9 8 11 12 19 11 7 15 18 20 24 21 17
9 10 11 11 11 12 12 13 12 12 12 11 9 8 6 5 5 3 4 5 9 16 12 12 13 12 13 16 16 13 14 20 10 14 13 8 11 12 28 21 21 21 22 20 15
9 10 11 12 12 12 13 13 13 12 12 10 8 7 5 9 5 3 7 6 10 13 11 13 10 12 17 17 20 18 16 16 23 13 15 8 15 22 13 19 18 18 17 17 17
9 10 11 11 12 13 13 13 13 13 13 10 8 8 8 11 4 3 8 8 11 10 10 12 13 13 16 14 21 18 19 14 16 20 19 7 12 3 6 18 6 15 15 16 17
10 11 11 12 12 13 13 13 13 14 13 9 8 8 8 9 5 10 10 10 10 10 11 9 11 15 19 17 23 13 16 14 18 21 4 5 5 10 22 23 9 10 13 15 15
10 11 12 12 13 13 13 14 14 14 11 9 2 5 10 6 11 14 14 12 9 9 8 9 9 15 16 14 14 16 16 21 8 37 8 5 8 15 24 27 15 11 11 13 14
10 11 12 12 13 14 13 14 12 13 9 6 7 7 13 8 10 14 15 13 11 9 8 10 9 12 13 14 13 18 13 6 10 26 13 10 8 17 17 12 13 21 14 12 15
11 11 12 12 13 14 11 14 10 1 6 14 2 14 4 4 9 14 16 14 13 12 12 14 11 14 17 17 17 21 19 14 22 17 3 8 9 4 9 16 10 20 19 15 12
13 12 12 12 11 10 6 9 5 8 13 19 23 23 17 10 11 14 18 16 17 13 14 12 14 17 16 16 16 15 16 16 13 9 4 9 11 9 17 23 49 31 15 14 15
14 14 13 11 10 6 6 8 8 11 9 18 24 22 20 18 19 19 23 23 17 16 16 15 8 15 14 15 14 15 14 15 14 14 6 10 12 13 8 27 27 27 13 12 12
15 14 13 9 6 4 7 2 8 8 6 11 16 13 18 18 18 23 25 24 13 16 17 15 18 16 7 14 13 14 14 12 14 13 11 8 10 6 14 16 6 37 13 8 8
14 13 10 9 8 5 4 7 9 5 6 8 18 13 17 18 4 24 26 24 19 17 12 17 13 15 17 12 13 14 13 8 8 13 14 17 10 7 5 7 7 11 38 6 11
14 14 9 5 10 10 9 8 6 6 9 10 13 12 15 22 15 10 27 22 21 20 18 17 18 11 13 14 13 11 14 6 12 13 13 15 14 7 5 10 5 17 5 14 21
14 14 12 13 10 4 6 6 6 8 7 9 14 13 18 17 18 13 19 19 18 15 18 18 18 12 11 13 13 11 11 9 10 10 13 14 17 7 18 17 12 12 12 22 24
15 14 14 16 14 7 6 8 11 9 22 12 2 14 20 20 19 19 16 18 22 23 13 14 14 20 16 15 13 17 14 11 14 9 4 13 11 5 16 13 10 14 18 27 24
15 7 12 8 15 10 11 12 8 16 16 10 11 14 13 16 17 19 19 19 21 23 19 14 18 10 18 13 14 12 11 16 17 18 5 9 13 9 7 12 11 13 11 23 24
18 10 16 9 12 13 10 17 16 23 19 14 11 14 16 18 13 13 17 18 20 22 21 20 13 13 9 16 16 16 9 9 10 15 14 8 13 8 6 8 6 8 11 20 25
11 7 7 18 13 16 13 19 18 29 14 8 11 16 17 19 14 19 18 16 18 20 20 16 13 14 11 11 13 11 14 13 11 11 12 9 4 1 2 4 1 8 11 17 25
7 7 13 14 13 17 14 21 26 23 16 14 15 18 19 16 13 8 15 16 17 16 17 12 7 12 15 12 11 17 14 16 9 12 12 6 4 13 6 3 19 27 15 19 23
8 15 10 14 10 13 19 23 25 21 16 13 14 16 16 16 11 11 17 8 5 12 5 13 8 11 13 11 14 17 15 14 12 12 13 8 4 13 24 11 23 20 18 20 26
7 4 14 15 21 20 17 18 21 25 18 18 16 17 16 14 15 12 15 9 6 9 8 6 9 11 13 8 7 9 12 14 15 11 14 14 9 9 8 6 13 6 16 24 25
7 7 14 6 12 16 19 19 21 17 14 19 19 19 17 16 15 17 17 17 11 6 8 8 13 14 18 16 10 13 17 16 18 16 12 8 7 13 10 4 10 14 14 19 17
15 10 18 21 18 15 12 20 19 18 18 19 18 18 15 15 15 14 15 15 14 13 11 13 12 13 18 20 17 13 14 9 13 16 18 17 18 11 18 15 10 12 12 15 16
14 11 10 13 15 11 12 15 18 19 21 24 15 18 17 16 21 20 22 9 12 14 9 14 12 12 16 18 18 16 8 13 14 13 14 2 15 16 12 3 15 20 17 17 17

GFSSW_850_spd_003.txt.gz
Wind_Speed
8 8 9 9 10 10 10 11 12 11 11 10 9 8 7 7 9 10 12 7 4 6 7 2 3 0 4 7 11 11 3 3 5 7 7 19 5 8 16 20 9 10 16 12 25
8 9 9 10 10 11 11 11 12 12 11 10 10 8 7 8 11 14 5 5 7 8 6 5 3 3 7 9 9 6 5 11 8 11 10 20 22 19 6 3 13 17 17 29 27
8 9 10 10 11 11 12 12 11 11 11 10 10 9 8 9 5 2 1 2 3 5 6 6 4 5 11 17 18 12 6 9 10 20 28 24 18 15 8 3 12 28 32 30 27
9 10 10 10 11 11 11 12 11 11 11 10 9 8 8 6 4 3 2 1 3 6 10 7 7 11 5 6 20 7 19 19 21 21 14 2 10 16 9 4 5 31 33 30 30
10 10 10 10 11 11 12 12 11 11 11 10 8 7 7 4 6 7 2 2 5 9 10 7 9 12 7 9 17 11 10 16 21 19 6 5 12 13 10 18 14 31 33 30 31
10 11 11 11 11 11 12 11 11 11 11 10 8 6 5 4 6 7 5 4 5 10 7 6 10 11 15 16 11 20 20 11 13 15 7 3 3 4 17 23 22 29 31 29 29
10 11 11 12 12 12 12 11 11 11 11 9 7 8 8 8 7 6 6 5 5 8 5 5 13 15 21 9 19 21 10 9 15 20 10 9 2 6 16 22 25 28 29 26 28
10 11 11 12 12 13 13 12 11 11 11 8 7 8 6 6 8 9 6 5 5 1 7 12 10 16 16 20 18 10 8 5 11 15 11 18 7 5 3 8 6 32 31 32 29
10 11 11 12 13 13 13 14 12 12 10 8 4 4 7 11 16 13 8 10 7 10 10 9 9 13 16 7 6 6 1 7 16 22 15 5 8 4 14 17 26 31 35 38 32
10 11 11 11 13 14 13 15 12 9 9 8 8 6 12 13 12 17 15 11 9 7 8 6 4 4 5 3 6 9 5 3 9 8 12 13 16 10 25 22 16 26 29 33 32
12 11 11 11 11 14 11 14 7 2 10 11 7 9 11 7 11 15 16 13 10 10 6 10 3 7 11 11 14 11 9 10 11 17 4 9 7 13 19 25 18 44 21 47 31
14 14 13 11 10 10 9 11 6 7 13 20 25 27 25 14 10 13 17 14 12 8 10 5 9 13 15 15 12 9 7 7 4 20 13 11 7 5 6 9 22 33 37 43 34
16 16 16 13 10 4 8 7 11 11 6 16 24 24 25 20 15 22 23 23 8 9 9 9 14 12 14 11 10 8 6 8 7 9 10 4 3 3 4 6 6 27 14 9 31
16 14 15 13 7 5 4 3 8 6 3 7 10 15 24 22 15 20 30 25 7 13 12 9 17 17 10 6 7 8 10 12 10 2 3 2 5 4 2 5 1 5 16 14 7
16 14 10 9 7 6 2 6 8 5 4 5 9 7 16 24 6 24 29 27 15 13 7 9 9 10 10 9 8 10 10 9 5 7 7 10 3 5 4 2 5 15 13 13 13
15 15 10 9 10 6 6 9 4 0 7 4 9 7 7 12 20 18 26 24 19 11 12 14 22 11 9 9 11 8 6 8 2 3 4 8 3 3 6 7 3 11 21 17 19
15 14 13 12 7 3 2 1 1 4 7 6 7 12 10 10 14 11 13 12 8 6 9 13 15 13 4 4 11 6 2 4 5 3 7 2 2 4 7 7 6 13 26 21 31
16 15 13 13 14 5 2 1 5 8 11 11 6 13 14 13 15 16 10 12 12 11 6 8 8 12 11 10 9 7 9 6 5 3 4 8 3 5 6 8 16 28 33 31 30
16 10 13 6 13 12 3 3 7 5 8 14 15 7 7 14 13 17 16 14 12 11 9 4 12 12 17 9 11 7 2 11 4 4 3 3 4 5 6 7 11 26 32 29 27
17 12 15 9 10 16 2 5 7 11 16 14 13 7 5 7 8 7 11 14 14 17 18 10 10 9 11 14 8 7 5 2 2 3 6 5 4 4 7 8 3 17 22 27 31
11 7 3 19 13 12 4 6 8 21 19 6 12 10 11 8 10 12 10 7 18 15 15 15 7 13 7 2 9 2 3 3 2 4 5 2 5 9 14 5 5 15 22 31 35
1 3 15 26 8 7 7 5 9 21 30 16 8 7 9 14 13 14 11 10 14 18 12 11 7 5 10 14 6 5 8 8 5 9 1 3 4 16 10 8 11 10 9 26 30
9 9 15 17 4 7 9 17 23 19 19 16 9 6 9 10 7 8 11 8 19 9 6 1 3 1 9 8 5 6 8 6 6 4 3 2 3 4 12 12 17 15 19 2 31
5 3 10 19 15 10 12 13 15 24 22 25 14 8 8 9 9 8 12 7 22 4 8 8 2 8 7 6 2 3 8 8 6 4 6 6 9 8 14 16 11 21 35 26 26
3 3 9 3 4 9 9 12 16 17 19 24 6 6 10 7 8 9 11 10 15 3 3 3 1 3 8 7 13 11 10 8 7 9 7 8 15 12 12 14 13 26 28 37 29
9 8 12 16 14 10 9 8 14 19 16 5 6 10 14 8 8 8 8 6 5 10 3 2 3 4 7 11 15 6 21 10 11 12 8 7 3 7 19 36 30 42 45 29 25
15 9 6 10 9 7 8 12 15 14 24 21 15 12 12 14 11 14 17 15 7 2 3 3 3 1 5 9 12 8 3 6 4 2 3 6 7 8 5 8 26 25 24 22 17

GFSSW_850_spd_006.txt.gz
Wind_Speed
7 8 8 8 9 9 10 11 11 10 10 9 10 10 8 7 8 9 10 4 6 6 3 5 8 13 4 2 6 2 4 3 5 5 4 30 14 27 9 12 5 11 8 19 30
7 8 8 8 9 10 10 11 11 11 11 10 10 10 10 8 10 8 3 4 7 4 5 9 14 8 2 3 3 3 3 8 6 10 7 11 19 25 11 11 5 7 8 28 31
8 9 9 9 9 10 10 11 12 11 11 11 10 10 10 9 4 3 3 5 4 4 7 11 5 6 7 5 6 6 6 5 9 21 22 11 13 9 17 3 15 23 26 33 32
8 9 9 10 10 10 10 11 12 12 11 11 10 9 9 6 2 2 1 2 3 6 14 11 5 3 3 3 3 4 12 17 22 31 7 7 9 8 14 10 24 23 30 30 30
8 9 9 10 11 11 11 11 12 12 12 11 10 9 9 5 4 3 1 2 3 8 14 9 6 3 3 4 11 4 8 17 17 14 15 11 15 8 12 14 24 29 30 27 27
9 9 10 11 11 12 12 11 11 12 12 11 10 9 8 4 2 5 4 3 4 8 12 8 4 4 10 5 0 11 21 18 6 14 11 4 8 9 8 19 34 34 32 29 26
9 9 10 10 11 12 12 13 12 12 12 11 10 10 10 9 5 5 3 4 3 6 11 7 3 7 10 9 11 18 6 9 3 1 4 3 4 8 20 24 30 18 16 15 30
10 9 9 10 11 12 13 14 13 13 12 10 9 9 8 4 7 8 5 5 9 7 1 5 9 12 7 8 10 6 5 4 8 4 5 5 4 0 22 26 23 19 11 3 13
11 9 9 10 11 12 14 16 15 13 11 9 8 6 6 9 14 11 6 6 6 3 4 9 10 6 5 3 5 5 3 6 9 4 3 3 2 9 24 29 23 23 18 4 15
12 11 10 9 11 12 14 17 8 6 6 8 9 6 10 13 15 16 8 7 4 2 5 5 2 1 3 4 4 5 2 5 8 5 5 1 8 6 27 26 24 19 17 33 26
14 13 12 10 10 13 10 11 6 2 13 9 3 7 10 7 9 14 12 11 10 3 2 3 3 7 9 9 7 5 4 8 7 8 1 4 3 2 19 24 20 19 18 29 24
15 15 14 11 8 10 8 7 8 10 12 19 21 26 26 11 7 14 14 12 9 5 2 4 8 13 6 8 8 8 7 6 8 7 4 8 7 12 3 10 25 29 17 12 27
14 14 15 13 9 5 5 9 7 10 5 16 18 26 28 22 16 20 22 19 4 5 5 7 9 4 6 10 8 6 4 6 6 4 1 6 5 7 2 11 16 20 20 20 25
14 13 14 11 6 7 3 2 1 6 3 7 6 13 23 23 7 22 27 19 5 11 8 7 16 15 14 7 5 5 10 5 6 4 2 6 4 2 5 6 12 24 24 31 26
15 14 10 10 6 5 5 3 4 3 3 2 5 3 18 16 5 18 28 22 9 7 6 9 4 3 5 10 6 10 6 6 4 3 2 4 4 6 4 8 13 25 24 28 26
15 15 12 10 9 6 6 1 2 4 6 5 4 7 7 12 11 5 26 23 14 4 7 9 19 4 7 12 9 4 2 6 5 3 4 5 5 5 5 6 5 6 15 22 29
15 14 16 12 3 6 3 3 4 3 5 3 2 4 6 7 8 5 7 7 6 3 5 6 11 9 12 7 4 5 6 4 5 5 6 3 2 7 5 1 5 11 14 10 10
15 15 17 13 12 7 7 5 4 6 7 5 7 5 4 5 6 5 8 7 7 3 3 3 8 10 4 10 8 5 8 6 5 3 6 4 3 5 3 13 6 16 12 15 24
16 12 16 8 14 13 9 3 7 6 4 7 8 0 4 6 5 8 10 14 13 11 9 6 8 3 4 5 9 5 3 7 6 2 3 2 1 7 8 13 8 15 19 24 24
17 10 12 9 18 17 4 5 5 2 6 5 1 3 6 8 1 5 7 9 12 18 10 8 6 15 19 6 5 10 5 3 3 2 4 5 2 5 6 3 6 4 9 21 22
9 8 2 19 20 10 3 6 5 7 13 6 4 5 2 1 2 1 5 7 18 15 18 7 5 19 3 4 6 3 1 4 5 6 5 2 5 6 10 10 10 7 11 9 12
3 2 18 23 5 3 2 3 8 6 19 6 4 6 6 1 2 4 4 1 19 24 11 13 7 8 12 5 6 8 10 6 5 6 3 5 5 2 4 10 20 16 21 21 20
11 5 18 22 3 2 6 5 9 11 8 5 5 3 5 1 3 3 5 11 15 4 7 8 4 1 10 7 6 3 6 4 5 4 5 6 5 3 3 11 9 15 19 19 19
4 4 2 14 7 2 3 5 5 11 12 17 9 8 5 3 4 6 6 9 24 13 12 8 4 9 9 7 2 5 7 2 7 4 5 6 5 4 4 10 15 16 18 24 17
6 3 7 3 5 6 2 4 6 7 6 4 7 6 7 3 5 6 6 7 10 4 7 4 2 3 5 3 1 2 5 7 2 5 6 7 13 17 15 10 12 19 17 27 28
4 6 9 8 13 6 2 3 3 8 5 9 3 14 8 7 9 8 6 2 6 7 6 4 3 1 4 4 5 3 10 3 14 18 4 9 2 8 14 24 19 24 31 38 27
6 3 2 6 7 3 2 8 9 12 7 12 12 8 7 10 16 12 12 8 5 4 4 3 2 3 3 4 4 3 4 3 3 2 6 5 8 11 8 13 24 25 30 42 36

GFSSW_850_spd_012.txt.gz
Wind_Speed
7 7 7 7 8 8 9 10 10 11 10 10 9 7 7 6 7 9 11 7 9 7 5 8 8 7 1 2 2 2 4 1 4 3 5 4 2 1 2 5 5 8 4 4 20
8 8 8 8 8 9 9 10 10 11 11 11 11 9 8 7 8 7 5 5 8 7 4 5 8 7 2 1 1 4 4 8 7 5 5 6 8 3 2 4 5 7 8 10 21
8 9 9 10 9 9 10 10 10 10 10 11 11 10 8 8 2 3 1 7 8 8 7 9 7 3 1 1 0 2 4 6 9 17 13 9 9 8 8 5 11 17 15 23 25
8 9 10 10 10 10 10 11 11 10 10 10 11 10 9 4 2 3 3 7 9 10 11 10 5 1 1 1 1 1 8 5 4 8 7 8 9 6 18 18 5 14 19 29 26
9 10 11 11 11 11 11 11 12 11 10 10 10 9 6 3 0 1 3 6 8 12 13 9 5 1 1 2 5 2 4 11 19 22 11 17 18 9 15 23 17 15 24 30 25
11 11 12 12 12 12 12 13 13 12 11 10 9 8 5 2 3 2 3 4 5 11 15 9 2 2 4 2 2 5 11 16 15 10 2 7 7 13 5 16 12 24 29 29 25
11 12 13 13 13 13 14 15 15 14 12 10 8 7 6 5 4 4 3 4 5 12 13 8 1 4 4 6 4 7 7 7 6 5 2 6 2 7 10 17 26 28 30 28 25
13 13 14 14 14 14 15 17 16 14 10 9 8 6 4 4 5 6 4 7 8 13 10 4 4 4 2 4 6 3 3 5 4 6 3 4 9 3 17 25 24 27 29 25 26
14 14 14 14 14 14 16 17 15 10 7 7 5 3 3 3 7 9 6 6 9 12 8 3 2 1 2 4 5 7 2 2 8 6 1 1 7 3 13 13 18 24 27 24 22
15 15 14 14 14 14 16 15 10 8 4 5 7 3 5 2 3 12 9 10 8 10 4 2 1 3 4 4 4 2 0 3 5 6 1 4 7 1 12 12 20 25 26 23 20
15 15 14 14 12 12 13 10 5 2 6 5 3 3 3 4 5 8 14 15 7 4 3 2 3 6 8 5 2 1 2 3 5 7 2 4 5 4 10 13 17 26 24 23 22
15 15 14 13 9 8 8 5 8 7 10 14 16 21 18 11 1 8 16 10 6 4 3 5 5 8 3 3 4 2 2 6 8 2 2 2 5 4 2 4 17 15 20 20 19
16 15 14 10 7 4 2 5 5 8 4 10 9 12 17 16 8 12 21 11 5 5 5 5 1 8 4 4 4 3 4 4 6 5 2 3 3 5 2 4 19 21 12 11 12
16 15 14 8 2 4 5 1 4 8 5 6 4 2 10 9 4 12 20 10 3 10 7 4 4 4 1 3 6 2 5 3 5 1 2 2 4 5 3 5 6 17 17 14 10
17 16 13 8 5 2 6 4 4 4 3 1 1 2 11 13 7 11 21 10 8 6 6 6 2 3 2 4 6 7 2 3 2 2 3 3 4 7 5 6 7 13 22 11 7
16 17 14 10 6 5 7 3 2 5 6 4 2 2 4 3 4 5 8 7 3 5 0 5 2 3 6 3 6 5 3 7 5 3 3 3 4 6 3 4 4 6 20 14 10
15 15 15 10 1 6 9 5 4 3 5 5 3 4 3 3 2 3 6 6 6 4 2 4 5 5 8 4 1 4 6 3 4 4 5 1 1 9 3 5 5 7 7 12 12
16 15 14 9 6 9 9 4 4 2 5 5 4 3 2 3 5 3 7 5 2 5 3 2 8 3 3 8 7 4 7 5 4 3 4 1 4 5 4 8 12 2 12 14 17
16 13 9 6 12 13 9 3 7 5 3 6 4 6 5 4 3 3 7 7 8 9 8 5 5 4 3 4 7 3 3 3 7 3 2 3 6 9 2 4 6 15 20 22 17
15 5 1 6 15 15 4 4 3 4 4 4 2 2 4 5 3 3 6 3 6 10 6 5 4 4 3 0 2 4 6 3 2 4 3 4 5 5 5 5 5 8 20 22 19
8 2 3 13 19 9 4 6 4 4 7 4 1 2 2 3 1 2 3 2 3 4 11 7 5 5 4 3 7 2 2 5 5 4 6 2 6 7 9 9 14 16 23 26 23
4 3 9 20 4 2 3 5 2 2 3 3 0 2 1 3 3 2 3 4 3 1 7 6 5 4 10 5 1 3 5 6 5 4 2 4 6 2 6 6 16 12 21 25 14
4 4 9 7 3 1 4 3 2 1 1 2 2 1 2 2 3 3 2 1 4 2 5 7 2 2 9 6 1 4 4 4 5 3 6 6 6 3 6 6 14 23 26 21 15
3 2 3 2 2 2 2 1 1 3 3 4 3 2 2 3 3 4 3 3 13 5 8 7 3 7 7 8 3 4 4 5 6 4 4 6 5 6 8 8 9 17 20 22 19
5 2 1 1 3 3 2 5 2 4 6 6 2 4 2 2 3 4 3 5 7 4 1 4 5 4 5 4 4 3 5 6 4 5 5 4 7 7 11 13 13 15 18 21 21
3 2 1 0 3 0 2 2 2 3 1 2 3 6 3 5 0 3 5 3 5 5 4 2 1 2 3 2 8 5 6 7 5 4 3 3 8 4 8 15 13 16 22 25 27
4 3 2 2 2 2 1 0 1 2 3 6 4 2 3 3 14 22 19 20 11 5 2 4 2 3 3 3 0 2 6 6 4 4 6 5 6 2 2 7 15 16 23 28 31

GFSSW_850_spd_015.txt.gz
Wind_Speed
6 6 7 7 8 8 9 9 9 8 8 9 9 8 7 6 6 8 9 6 5 7 4 3 5 3 3 3 3 2 2 3 2 2 4 2 2 5 6 8 5 6 3 1 15
6 6 6 7 8 9 9 9 9 9 8 8 8 8 7 7 7 3 4 5 5 7 3 3 6 6 2 2 2 2 2 4 2 3 6 7 3 5 6 8 5 6 6 6 17
7 7 7 7 8 9 9 9 9 9 9 8 8 7 7 7 1 4 1 4 5 6 5 6 8 6 2 1 1 1 1 2 4 11 9 10 8 5 5 6 11 13 13 14 20
8 8 9 8 8 9 10 10 10 10 10 9 8 7 7 2 1 4 3 5 6 5 6 8 6 3 2 1 1 3 4 3 4 5 6 9 4 4 12 12 5 8 14 18 23
9 9 9 10 9 10 10 11 11 10 10 9 7 6 4 2 1 2 3 3 4 6 8 6 5 2 2 3 3 3 2 6 10 14 12 10 12 8 10 15 16 9 16 21 22
9 10 11 11 11 10 11 11 12 11 10 9 7 5 3 2 4 3 4 3 3 8 9 5 3 3 1 2 3 4 9 11 7 6 4 4 1 5 3 11 11 13 18 21 22
11 11 12 12 11 11 12 13 13 13 10 8 7 5 6 4 6 5 7 5 3 8 10 5 4 4 4 3 6 6 6 3 7 7 3 4 4 8 5 5 9 15 18 22 17
12 12 12 13 12 11 12 13 13 12 8 7 6 4 4 5 9 8 6 7 6 10 7 3 2 2 1 5 4 2 0 6 3 9 2 2 9 1 4 8 11 14 17 20 13
12 13 13 12 12 10 11 12 12 10 7 4 4 4 3 6 9 11 8 6 8 11 8 3 1 2 1 1 2 3 6 3 5 4 5 2 11 3 5 8 11 13 15 13 11
13 13 12 12 11 9 10 11 10 9 6 5 6 2 5 3 9 14 11 8 8 12 4 1 2 1 2 3 4 4 1 2 4 1 6 8 13 3 6 10 13 13 12 10 9
13 12 12 11 9 7 8 7 4 3 4 6 3 2 6 6 9 14 14 14 11 6 4 2 4 6 4 4 4 2 2 5 5 4 4 4 10 7 4 9 8 10 9 8 5
13 12 11 9 7 3 4 4 5 4 8 9 13 17 9 10 4 12 16 7 5 5 3 2 6 4 3 4 2 2 3 5 9 1 3 5 9 5 5 7 8 9 10 9 9
14 13 10 8 4 2 2 4 5 8 3 6 6 9 13 16 5 15 21 8 5 6 7 4 3 8 5 4 6 4 4 2 4 8 1 3 4 3 1 6 7 8 7 11 8
14 13 10 6 1 3 6 1 5 7 3 2 3 3 10 9 6 14 24 10 4 11 6 5 3 5 3 3 6 2 6 5 8 4 4 3 4 4 2 9 5 12 14 11 10
14 12 10 5 3 4 6 3 2 3 1 1 3 4 10 9 11 11 25 8 9 7 5 2 6 6 5 3 7 3 2 4 4 3 3 2 4 2 3 4 3 10 14 18 14
13 13 9 6 4 6 7 4 2 1 4 2 4 3 7 6 3 7 13 5 5 5 1 4 2 3 4 4 7 1 2 2 2 1 5 1 3 3 3 1 4 0 14 20 16
13 11 10 6 3 5 9 6 2 4 3 2 2 2 3 7 4 5 13 12 7 5 5 3 6 3 6 5 4 5 2 2 3 3 3 2 3 6 4 2 2 5 12 19 18
11 9 8 5 7 8 10 2 3 2 3 3 2 1 3 4 5 4 12 11 5 3 3 1 2 4 5 9 4 9 7 4 3 2 1 1 4 1 1 7 4 10 13 17 16
11 7 3 7 11 11 9 3 4 3 3 4 1 2 2 2 3 7 7 9 9 11 6 4 3 2 6 3 8 4 5 2 4 1 3 1 4 6 2 4 2 9 14 16 14
8 1 2 8 14 12 3 2 2 3 4 1 0 1 2 2 4 9 8 2 5 14 9 4 4 2 1 5 4 4 8 3 1 4 4 2 4 4 4 8 7 13 16 13 13
2 4 3 9 15 7 4 4 3 4 3 2 1 1 2 2 2 3 5 2 2 4 10 6 5 2 2 5 5 4 4 2 1 2 3 2 3 5 3 7 10 8 11 12 9
4 2 9 11 3 1 3 3 2 1 1 2 1 1 2 3 1 2 2 1 2 6 8 6 3 5 6 1 1 2 2 5 4 4 0 3 4 3 5 8 11 11 13 11 12
4 4 6 4 2 2 1 1 1 0 1 1 1 2 2 1 1 1 1 2 2 4 5 8 4 3 3 3 3 5 5 4 4 2 6 5 5 3 4 7 6 13 14 14 17
2 2 2 4 4 2 2 1 3 2 1 2 1 1 2 2 2 2 1 1 7 2 3 11 4 5 7 2 2 4 6 8 4 4 5 7 7 7 7 8 10 13 18 20 19
4 2 2 3 1 2 0 0 2 2 2 4 3 4 1 1 1 2 0 4 2 2 3 4 4 5 11 9 8 4 8 10 7 5 4 4 7 8 5 4 16 14 18 23 22
3 1 2 2 1 1 2 1 2 0 1 2 3 5 2 3 1 1 7 1 2 3 2 1 1 2 4 3 10 11 13 11 7 5 5 4 8 5 3 4 14 14 17 18 20
5 4 2 2 1 2 3 3 2 2 1 0 4 3 1 1 8 14 12 14 8 5 3 1 2 3 5 2 4 5 13 13 8 8 5 7 3 3 1 7 14 16 16 17 19

GFSSW_850_spd_018.txt.gz
Wind_Speed
7 7 7 7 8 8 8 8 9 10 10 9 9 9 8 6 6 5 5 5 3 6 1 2 3 3 2 2 2 3 5 5 5 2 6 6 3 1 1 6 4 6 4 9 17
6 7 7 7 8 8 8 9 9 9 10 10 9 9 8 8 4 3 3 5 5 5 3 4 5 6 5 3 2 7 5 4 5 6 8 7 4 2 6 6 5 8 7 14 19
6 7 7 8 8 8 9 9 9 9 9 10 9 9 9 7 3 2 2 3 4 5 5 5 6 6 5 4 1 1 6 2 3 6 10 10 6 5 8 5 7 11 14 18 18
7 7 7 8 9 9 9 9 10 10 10 9 9 8 8 2 1 3 2 4 6 5 6 6 5 6 5 4 1 5 2 2 5 9 11 10 8 6 10 7 3 5 15 18 19
8 8 8 8 9 9 10 10 10 11 10 10 8 7 5 3 2 1 2 3 3 6 5 5 5 4 5 2 3 6 1 4 8 11 10 6 7 8 8 5 4 7 15 17 18
9 9 9 9 9 9 9 10 10 11 11 10 7 7 5 4 3 3 3 3 3 6 5 3 3 1 1 1 6 3 7 8 5 4 3 9 3 3 3 2 7 10 13 14 18
10 10 10 9 9 9 9 10 11 11 11 9 6 5 6 4 5 5 5 4 4 6 6 4 2 2 1 4 3 7 10 6 4 5 5 10 13 3 4 1 4 9 10 14 17
10 10 11 10 10 9 9 10 11 10 8 7 6 3 4 7 9 7 6 4 4 7 5 3 2 1 4 5 8 8 7 11 9 5 4 7 7 6 3 2 4 8 10 15 15
10 11 10 11 10 9 8 9 11 9 6 5 4 3 3 7 8 9 7 3 5 7 3 4 1 2 4 7 7 8 12 3 2 3 6 3 10 5 2 2 5 9 11 14 13
10 10 10 9 9 7 7 8 10 8 6 5 5 4 6 4 7 10 9 8 6 9 5 3 4 6 5 7 6 4 7 5 7 2 6 5 7 3 1 4 5 10 11 14 12
9 9 9 8 7 5 5 6 4 2 6 5 1 2 5 4 7 9 9 8 9 11 7 5 7 5 4 1 3 2 5 7 6 3 7 4 8 6 2 6 7 9 12 14 13
10 9 8 7 5 4 2 1 1 2 7 8 12 8 5 6 7 13 12 11 12 10 6 6 8 2 3 4 6 8 7 7 5 2 7 6 10 4 3 4 5 9 12 16 15
10 9 7 6 4 5 4 3 1 5 7 4 7 9 8 10 8 18 18 10 11 10 10 9 7 4 8 8 9 8 8 2 6 7 7 6 14 5 5 4 5 8 12 16 16
10 9 6 4 2 5 4 3 2 3 5 8 6 6 10 9 8 14 20 10 6 10 5 7 7 8 6 6 8 7 2 4 7 7 6 3 7 5 2 3 7 11 14 16 16
11 8 6 4 4 4 7 4 1 1 6 6 6 5 10 16 12 12 19 11 8 7 7 6 9 12 10 8 9 4 1 6 7 10 6 9 7 2 4 3 1 9 13 13 15
11 9 5 5 5 8 7 4 2 5 5 6 6 9 13 15 8 13 17 9 2 6 7 2 2 5 5 5 8 3 7 7 7 9 10 1 5 4 2 3 1 2 10 14 14
10 9 6 6 4 8 10 5 6 6 3 7 6 8 12 13 10 15 18 16 10 8 11 11 13 7 10 10 9 10 10 8 7 7 4 3 6 6 4 2 5 2 9 14 13
10 7 7 8 10 10 9 7 7 0 2 3 2 5 11 13 11 11 16 16 17 8 2 7 8 11 9 14 9 12 14 10 7 8 2 5 5 2 1 3 4 4 7 15 15
9 6 5 8 12 14 12 9 3 3 2 1 3 9 7 10 6 12 14 16 13 15 6 6 5 6 6 1 7 8 9 11 10 7 9 7 3 8 4 4 5 5 12 15 14
6 2 2 8 13 11 10 9 2 1 1 2 6 4 8 12 10 13 14 9 11 12 16 2 4 7 4 4 5 7 2 7 9 8 8 5 3 2 4 5 6 6 12 12 11
3 4 3 8 15 11 10 7 4 5 1 2 3 4 2 5 8 14 13 6 6 12 16 9 7 8 6 10 8 8 10 8 7 5 8 5 5 5 3 1 6 9 14 15 15
1 3 4 16 10 7 9 4 3 8 4 2 1 1 1 2 6 7 9 1 3 9 8 14 7 9 12 4 5 8 10 9 8 11 9 8 4 6 2 2 6 12 17 16 15
1 3 2 5 6 9 3 7 4 8 5 4 4 2 1 3 4 3 5 5 2 6 10 9 7 9 10 10 7 11 12 13 9 7 9 9 8 6 4 4 6 14 19 19 18
2 3 4 6 1 6 7 9 9 3 4 4 2 4 4 5 1 4 8 6 2 1 3 6 5 10 11 7 5 14 13 14 14 11 10 10 10 4 5 5 9 15 18 20 20
2 2 3 5 5 4 7 3 11 7 5 7 6 8 7 7 8 6 4 5 5 3 2 5 7 10 12 9 7 13 7 13 15 17 7 3 3 6 4 3 7 15 20 22 21
3 2 2 2 2 5 4 4 7 5 6 9 10 6 8 9 7 7 2 3 2 4 3 3 6 6 11 7 8 11 13 11 15 10 10 8 7 7 3 2 8 18 22 23 23
4 2 3 5 6 8 7 7 6 3 4 2 1 7 8 2 4 7 7 8 8 4 2 3 6 7 13 3 8 10 13 14 17 14 13 12 4 3 2 1 7 16 21 23 23

GFSSW_850_spd_021.txt.gz
Wind_Speed
7 8 8 9 8 8 8 9 9 10 10 10 10 9 7 7 5 3 2 8 6 5 2 3 5 7 7 9 9 11 5 6 5 9 8 7 4 6 3 7 3 3 8 13 16
7 7 8 9 9 9 9 9 9 10 10 10 10 10 9 7 2 3 8 6 5 3 1 3 5 6 12 7 7 10 13 14 12 7 8 4 4 4 5 11 6 7 9 16 18
6 7 7 8 9 9 10 10 9 10 11 10 10 9 9 5 2 3 5 1 2 4 2 4 5 7 11 8 5 12 9 7 7 7 5 7 3 3 3 6 15 11 14 17 18
6 7 8 8 9 9 10 10 11 10 11 10 9 8 7 3 2 4 2 3 4 2 3 3 7 10 10 9 4 10 6 3 6 3 6 8 8 6 2 8 6 7 16 18 18
7 8 8 9 9 10 10 11 11 11 11 10 9 7 4 6 4 1 2 3 4 1 4 5 8 8 10 2 5 9 3 3 4 5 8 9 12 5 8 2 6 10 16 18 17
8 9 9 10 10 10 10 11 11 11 11 10 8 6 5 10 1 2 4 3 2 3 3 5 2 4 7 7 9 5 6 9 9 4 7 9 9 1 6 1 9 10 13 15 17
10 9 10 10 11 11 10 11 11 11 11 9 7 5 6 3 5 5 6 2 4 3 4 2 2 8 2 10 6 10 11 15 12 4 6 14 18 4 3 3 6 10 12 13 16
11 11 10 11 11 11 10 11 11 10 10 8 5 2 7 7 5 7 7 4 4 5 3 4 4 9 9 6 12 13 16 14 10 1 5 12 7 8 2 7 8 10 12 15 16
11 11 11 11 11 11 10 11 10 11 8 6 3 2 6 3 8 9 8 4 5 6 4 5 7 12 7 13 14 15 13 18 5 6 4 7 10 11 1 3 9 10 13 16 17
10 11 11 11 11 10 10 10 10 10 8 6 5 6 9 7 12 11 8 7 6 7 6 8 9 10 11 10 11 7 12 7 4 4 3 12 8 7 6 4 7 11 12 15 16
11 11 11 10 10 8 7 7 7 4 10 11 1 6 4 6 9 11 11 9 8 10 12 9 10 12 10 4 11 9 7 8 7 2 6 15 5 12 4 7 7 10 11 14 14
10 10 10 10 8 7 2 4 4 5 10 15 15 9 5 7 8 13 13 12 11 12 12 6 13 1 2 6 8 8 9 10 4 1 8 12 11 10 3 3 4 11 11 14 13
10 10 9 8 6 4 4 4 4 6 8 12 14 17 11 11 12 18 18 17 11 13 10 16 9 3 7 9 10 11 10 6 8 4 14 11 18 12 9 5 5 7 11 14 15
11 10 8 4 1 4 4 4 5 4 6 14 10 11 19 12 12 12 19 13 9 11 10 11 4 5 9 10 8 15 6 4 9 10 9 2 11 12 10 9 9 8 8 13 15
11 9 7 6 5 4 3 3 3 2 7 14 12 10 14 16 14 15 18 14 12 9 5 5 7 9 9 8 5 3 3 7 9 11 12 11 7 3 8 5 7 5 10 9 13
12 10 6 4 7 7 4 4 2 7 9 9 10 13 16 23 11 15 18 15 11 10 11 12 2 7 12 6 8 4 8 12 12 13 12 13 3 11 5 9 3 5 9 12 15
11 10 7 8 5 5 4 5 7 10 6 10 12 17 19 15 16 13 18 17 11 11 13 14 13 10 8 9 10 10 11 10 11 11 9 8 5 9 7 6 2 3 11 15 16
11 9 8 11 9 7 5 8 11 13 8 4 3 12 17 18 18 17 17 17 20 14 11 11 14 17 11 14 10 11 12 11 15 10 5 6 3 3 6 2 3 4 10 17 17
8 4 5 5 10 8 12 11 11 9 4 7 7 12 14 15 11 17 18 19 18 17 12 8 6 8 4 7 11 14 11 15 17 18 12 14 7 8 8 2 5 7 12 17 17
3 5 6 7 9 10 10 18 8 5 2 8 11 11 13 13 12 17 17 17 18 16 17 3 6 10 10 7 10 12 9 9 9 15 16 8 5 4 9 8 11 7 13 14 15
2 7 4 5 10 14 12 19 16 4 6 5 10 5 11 12 16 15 12 4 13 15 14 15 6 7 7 11 14 9 11 12 16 10 10 4 6 10 5 7 12 8 13 15 15
4 5 4 9 12 18 13 16 2 7 10 8 4 7 4 6 9 12 16 9 6 8 17 16 8 10 14 10 6 11 12 12 9 13 11 11 4 20 8 9 4 10 14 16 16
6 2 3 10 8 10 14 7 4 13 10 9 9 5 3 5 6 9 8 13 5 9 4 10 7 10 13 11 13 11 14 13 9 12 11 12 2 9 11 1 5 12 16 15 17
6 5 6 13 14 9 15 11 12 9 11 8 6 2 7 8 5 6 7 5 4 10 7 4 11 11 14 4 12 14 14 13 13 12 13 16 13 12 17 11 8 11 16 17 17
5 2 5 7 12 11 6 7 16 10 15 11 9 11 10 8 10 7 12 9 9 4 6 9 12 14 17 18 12 11 12 14 13 15 17 10 6 17 6 7 11 12 17 18 19
8 6 4 4 4 7 7 11 12 14 7 10 14 13 11 9 10 10 11 9 10 12 13 10 8 13 16 15 14 13 12 14 16 13 18 22 5 29 8 9 4 10 17 19 20
6 6 7 8 9 9 9 10 10 4 8 11 10 13 8 6 9 8 11 6 7 7 6 8 10 11 13 17 20 14 15 15 16 14 16 12 7 8 7 9 3 7 13 17 18

GFSSW_850_spd_024.txt.gz
Wind_Speed
7 7 7 8 9 9 9 10 10 10 10 9 9 8 7 7 5 2 2 6 7 7 6 5 11 13 15 17 18 10 3 9 6 16 13 12 11 10 4 13 10 10 14 22 22
7 8 8 8 9 9 10 11 11 11 11 11 10 9 9 9 3 3 9 9 7 5 1 6 9 9 14 15 5 15 6 7 13 11 7 12 2 3 20 27 19 8 18 21 22
8 8 9 9 9 10 10 11 11 11 12 11 10 9 9 9 3 4 5 1 1 4 3 7 9 9 16 13 9 12 9 17 3 6 6 13 4 1 14 14 39 16 20 21 20
7 9 9 10 11 10 11 11 12 11 13 11 10 8 8 5 2 3 2 2 2 0 3 7 7 10 14 5 0 11 27 6 9 3 6 10 9 9 8 18 25 23 20 20 19
9 9 10 10 11 11 11 11 11 11 12 11 10 8 6 7 2 2 3 3 4 5 5 5 8 10 13 6 3 10 5 1 3 4 5 5 10 6 5 18 13 19 19 18 17
10 10 11 11 11 12 12 12 11 11 12 11 9 8 5 11 1 1 1 2 4 2 2 4 9 9 10 5 8 6 6 10 9 9 5 6 19 2 9 3 15 16 19 18 17
10 11 12 12 12 12 12 12 11 11 11 10 8 7 8 7 3 3 5 2 4 4 4 5 5 8 8 7 11 6 11 12 16 11 5 15 14 13 4 6 16 13 14 18 19
11 12 12 13 12 12 12 12 11 10 9 9 7 6 7 5 5 7 7 6 5 5 4 5 6 11 14 13 8 11 14 14 15 8 6 6 12 7 4 11 12 11 13 14 18
13 13 13 13 13 12 12 11 10 10 9 6 4 5 12 5 9 9 9 6 6 6 6 7 7 13 15 10 12 16 12 15 6 7 4 3 8 11 6 6 9 9 8 12 16
13 13 13 13 13 12 11 11 10 10 8 7 7 8 13 8 7 11 10 8 7 5 8 9 9 11 11 11 13 12 11 10 16 3 9 6 12 4 9 3 13 15 10 11 13
13 13 13 13 11 11 9 7 10 2 7 13 10 11 5 3 9 11 11 8 10 7 10 13 9 12 16 11 10 10 13 12 9 1 4 9 13 3 8 3 6 20 14 13 13
13 13 13 12 9 7 3 3 4 6 11 15 20 14 4 6 10 12 13 12 12 11 14 10 11 16 3 7 8 10 10 10 10 3 3 11 12 12 5 7 1 18 19 15 16
13 12 12 10 7 4 3 9 7 8 8 16 21 22 14 12 14 16 18 18 12 12 14 14 2 6 2 5 8 11 10 11 6 10 9 14 15 17 12 13 8 3 20 13 17
12 11 10 5 1 2 7 4 5 6 5 13 15 16 20 14 17 15 19 17 9 13 13 10 14 2 5 9 11 13 2 1 7 10 12 1 9 7 13 12 12 13 12 16 20
12 11 7 6 2 4 2 4 6 3 5 12 17 11 18 19 5 17 19 20 16 11 8 12 12 5 9 10 4 11 4 8 9 11 14 15 8 9 8 8 14 14 16 16 21
12 11 6 2 9 5 8 6 4 5 10 8 11 12 17 20 19 17 20 20 13 13 10 16 2 7 11 8 7 11 6 10 12 12 12 14 13 6 7 8 1 12 18 22 17
12 10 9 13 7 3 6 5 5 9 15 12 15 15 20 17 20 12 18 17 14 10 12 12 13 10 8 8 8 10 9 9 10 12 8 7 13 10 9 12 6 10 20 17 19
12 10 10 13 7 8 4 8 10 12 22 8 11 18 19 19 20 17 17 16 19 17 11 12 14 19 12 10 11 12 10 8 14 14 3 7 6 13 10 13 12 5 22 22 21
10 5 7 7 15 6 9 10 11 17 11 8 8 8 17 20 13 19 19 18 18 18 16 11 10 13 14 8 10 12 11 13 13 15 14 14 6 10 5 9 14 15 22 22 22
7 5 9 9 9 8 9 16 18 7 9 3 8 12 15 19 19 20 17 18 19 20 20 12 5 9 10 4 8 12 11 9 8 13 14 11 5 4 4 29 10 14 21 23 23
3 6 10 7 9 11 10 17 17 11 3 4 11 16 15 13 15 14 13 17 19 18 18 14 5 9 11 8 10 7 11 10 14 12 13 13 3 8 12 18 12 13 20 21 21
6 5 8 11 12 14 12 17 23 11 4 7 7 15 10 13 16 14 12 14 13 13 16 12 7 11 14 11 13 13 13 11 7 11 12 12 10 17 17 16 14 17 17 21 19
6 6 6 13 7 11 17 21 26 10 8 7 7 14 5 10 1 7 12 12 9 4 7 3 9 10 12 12 15 8 12 14 13 11 14 5 4 14 11 5 1 17 16 19 20
7 4 8 12 19 16 15 19 16 6 16 11 11 12 8 9 8 8 4 6 4 4 9 7 10 8 12 1 1 15 11 13 15 10 13 13 2 9 13 18 32 23 18 18 22
7 5 6 6 12 14 14 11 12 12 12 10 8 10 9 8 13 9 11 6 6 2 4 4 9 12 15 18 17 15 16 17 14 16 15 16 5 9 6 19 14 53 17 18 19
10 10 16 14 5 9 11 11 9 17 11 14 11 11 12 10 11 7 11 15 5 9 7 10 9 11 16 19 20 19 19 14 16 18 15 15 11 7 16 14 35 39 16 17 19
11 9 10 8 5 6 10 9 12 16 11 7 4 13 13 7 7 10 12 8 9 7 4 7 7 8 14 16 15 15 17 14 15 16 17 16 5 19 20 16 40 17 18 17 20

GFSSW_850_spd_027.txt.gz
Wind_Speed
6 7 8 8 8 9 9 10 11 10 10 10 9 9 8 6 6 3 1 5 10 11 8 6 9 11 9 12 14 6 6 8 8 16 5 15 24 31 24 19 19 8 30 31 28
7 7 7 8 9 9 10 11 11 11 11 11 10 10 9 9 3 4 4 9 11 8 5 6 12 13 14 15 1 6 5 10 11 12 4 10 29 17 6 17 20 28 28 27 29
7 7 8 9 9 10 10 11 12 12 12 12 11 10 10 8 1 2 5 6 4 2 2 4 6 13 17 14 3 6 4 0 10 7 11 14 18 19 18 3 16 30 31 28 28
8 9 9 9 10 10 11 10 11 12 13 12 11 11 10 5 3 2 3 2 1 4 1 5 7 12 5 6 14 6 13 4 4 3 11 8 9 10 21 15 27 30 31 29 27
9 10 10 10 11 10 11 11 11 11 12 12 11 10 10 4 4 2 5 2 4 5 6 10 14 16 6 9 7 3 10 20 7 3 4 1 11 8 19 25 34 30 29 28 26
10 11 11 11 11 11 11 11 10 10 10 11 11 9 7 6 4 4 1 3 6 4 6 7 13 15 11 14 5 9 12 9 13 13 3 13 5 20 20 31 33 30 29 27 26
12 12 12 12 12 11 11 11 10 10 9 9 9 9 8 9 6 6 2 4 6 8 11 9 8 12 18 10 15 10 3 10 13 19 5 8 5 5 18 34 33 32 28 26 26
12 13 13 13 12 12 11 10 10 9 9 7 6 8 6 4 6 7 4 4 8 5 6 8 6 12 12 12 11 5 6 6 6 5 8 8 6 7 12 29 31 31 29 29 30
13 13 13 14 13 13 11 11 10 8 9 6 2 4 8 9 12 12 8 9 7 6 8 8 7 9 11 5 6 6 7 7 2 12 4 3 3 8 21 23 26 28 22 29 28
14 15 14 14 13 12 11 10 9 9 9 7 8 5 10 9 11 11 8 9 6 6 9 10 6 3 5 1 6 6 2 6 5 5 5 4 6 6 21 21 27 25 26 32 30
14 15 14 13 11 12 8 7 7 3 7 9 3 13 9 4 9 11 10 8 9 10 6 13 1 7 13 10 4 7 8 7 3 5 4 2 6 10 11 17 23 28 28 31 28
13 14 14 11 9 8 6 4 7 8 11 17 21 22 19 9 7 10 13 8 11 7 11 6 9 12 9 2 5 7 7 9 8 3 6 5 8 11 5 11 31 30 29 28 25
13 13 13 9 5 2 4 6 10 10 6 15 20 22 20 12 13 15 18 17 10 9 10 9 9 12 2 4 6 5 5 8 4 7 9 4 8 8 6 19 27 30 28 28 28
12 11 11 5 2 0 3 3 7 6 3 6 9 21 24 15 11 24 24 16 6 11 10 8 15 5 3 4 4 6 8 2 6 6 4 2 6 8 6 8 11 26 25 31 34
12 10 7 6 3 3 3 3 8 3 2 7 13 12 18 18 3 13 23 20 12 12 5 10 6 5 4 7 7 8 5 6 6 6 5 11 4 7 5 6 5 18 16 34 34
12 11 6 8 9 2 9 6 4 1 6 1 7 9 11 19 20 11 18 18 17 11 10 10 16 3 6 8 5 6 5 6 5 1 3 6 3 4 2 4 2 27 18 33 30
13 12 9 11 7 3 2 2 1 4 6 5 6 9 10 9 15 12 10 8 7 3 6 9 8 3 8 5 4 2 4 3 5 3 6 6 3 7 6 11 9 17 30 32 31
13 13 11 13 13 5 3 0 3 8 12 8 6 12 14 10 13 15 10 8 10 8 5 7 6 10 7 6 5 6 8 5 3 2 5 3 5 2 14 20 41 13 31 31 33
12 8 8 7 16 9 2 3 6 5 2 13 14 11 10 14 8 11 10 11 11 12 8 3 6 9 11 6 6 4 3 8 2 4 4 4 3 3 13 9 17 17 26 30 30
11 6 8 3 10 10 2 5 8 10 12 10 11 5 2 13 13 12 10 10 12 15 16 9 6 5 8 3 0 2 3 4 4 2 5 5 1 4 7 8 7 9 24 18 29
7 4 13 10 13 7 4 7 6 20 23 6 9 7 6 12 9 9 13 11 16 15 16 9 6 9 1 3 6 3 4 3 4 4 3 3 5 7 12 11 8 15 18 27 32
4 3 12 13 5 6 4 3 5 17 26 3 6 6 6 8 7 9 8 2 8 22 7 10 5 4 8 7 11 9 9 7 5 6 3 4 5 6 5 19 11 23 43 23 33
5 6 8 14 3 6 8 11 20 18 18 2 5 6 7 5 5 9 4 10 22 8 4 3 2 2 9 9 7 4 5 2 1 2 4 1 5 3 9 14 23 23 17 5 34
4 2 5 14 16 8 5 7 13 21 16 6 10 9 7 4 5 6 9 6 11 8 10 5 3 4 6 2 3 3 6 6 4 2 4 4 4 1 4 2 6 4 4 14 14
3 4 9 3 7 10 8 9 14 11 7 7 8 7 7 4 8 5 3 6 3 5 4 4 2 5 7 8 9 12 10 11 8 10 6 9 9 6 4 3 5 10 14 7 4
8 7 12 17 16 10 7 10 12 12 6 6 5 9 7 3 5 6 8 6 4 3 3 3 2 4 5 6 9 15 18 16 11 9 6 14 7 6 8 12 11 2 12 15 8
12 12 7 13 9 3 4 6 5 9 9 11 14 3 4 13 18 12 9 10 4 3 5 2 2 1 5 7 9 7 8 3 5 13 7 3 9 13 8 13 8 8 19 16 12

GFSSW_850_spd_030.txt.gz
Wind_Speed
6 6 7 7 8 8 8 9 10 10 10 11 11 10 9 9 7 4 1 2 4 5 4 3 4 8 4 2 2 3 5 3 2 1 6 10 12 13 14 23 5 9 26 32 26
6 7 7 7 8 9 9 9 9 10 11 12 11 11 9 8 4 2 1 5 5 5 1 0 5 7 5 4 6 4 3 6 5 4 3 8 24 16 9 16 12 22 28 36 27
7 8 8 8 8 8 9 10 9 10 11 12 12 10 9 7 2 1 5 4 3 0 3 1 4 7 4 6 5 9 8 9 13 22 16 17 13 5 19 1 23 32 39 37 30
8 8 9 9 9 9 9 10 9 10 10 12 12 11 9 3 2 4 4 4 3 6 3 3 8 3 2 3 15 3 5 8 6 4 5 12 13 6 13 12 29 32 37 37 33
10 10 10 11 10 10 10 10 10 10 10 11 10 10 8 2 2 3 4 5 6 5 4 11 8 8 3 5 5 2 5 10 17 14 3 8 12 10 13 18 30 32 32 33 33
10 11 11 11 12 11 11 10 10 9 10 10 10 8 6 3 1 4 1 6 4 4 8 13 7 12 7 7 1 11 3 3 6 6 5 5 4 20 11 30 34 33 33 32 33
11 12 12 12 12 12 11 11 10 9 9 9 9 8 6 6 1 4 2 5 2 4 8 8 11 8 13 8 15 12 1 6 11 13 5 8 3 2 32 38 35 35 35 33 32
12 13 13 13 13 12 12 12 10 9 9 8 7 8 5 3 5 7 3 4 3 4 5 5 10 11 5 9 11 6 5 3 8 5 10 5 6 5 36 34 30 33 35 35 34
12 13 13 14 13 12 12 13 10 10 9 8 6 5 6 5 12 12 8 4 3 4 4 4 10 4 5 3 5 6 4 5 8 6 5 4 5 5 33 31 29 30 32 34 35
13 13 13 13 13 12 11 11 9 8 8 7 8 6 5 5 4 9 12 7 9 6 8 7 3 2 3 5 3 5 5 4 4 6 4 3 3 3 28 29 31 30 30 33 34
13 13 12 11 11 11 7 1 4 1 13 7 5 9 14 6 2 5 7 5 7 7 3 3 3 6 8 7 8 6 1 3 3 7 4 6 4 4 8 23 21 24 31 34 34
13 13 11 9 7 7 4 6 7 8 11 14 17 22 20 9 7 7 11 8 3 4 2 5 5 11 7 7 7 1 2 6 5 5 3 3 5 7 8 20 31 31 29 35 34
13 13 11 7 5 3 4 11 5 11 4 14 16 19 20 10 13 11 13 16 3 4 6 6 10 5 6 6 3 3 4 4 6 3 2 2 8 6 4 13 21 29 37 38 36
13 11 11 5 3 2 4 4 3 7 4 8 7 12 22 10 8 21 16 15 4 9 4 6 13 8 7 2 3 3 1 3 4 5 1 5 4 8 4 4 12 22 29 36 36
12 11 8 5 4 4 2 1 2 2 2 4 5 7 18 15 2 8 21 23 7 10 4 7 6 3 3 5 4 8 2 3 4 5 5 5 4 6 1 5 3 7 23 33 37
12 13 9 7 8 4 3 6 3 5 5 5 7 7 7 12 10 5 16 24 10 3 3 10 12 3 7 5 4 1 6 9 6 4 3 7 6 5 2 7 8 18 18 28 32
12 13 11 10 6 5 2 5 5 3 5 4 3 8 9 8 11 4 4 7 5 2 5 7 6 6 2 1 7 6 7 4 5 4 5 5 3 7 9 5 7 14 13 7 32
13 13 12 12 11 4 5 5 3 6 6 5 3 2 8 6 8 6 6 6 4 5 2 2 7 5 2 6 6 4 8 5 4 2 5 6 4 4 6 13 13 25 28 9 33
13 10 10 6 13 10 5 3 7 6 2 7 9 5 7 5 5 6 9 9 10 8 7 4 6 4 6 6 9 3 2 6 6 1 3 4 1 5 6 8 21 25 28 38 13
12 6 4 7 16 12 4 6 6 4 7 5 1 4 7 10 6 7 8 7 7 13 14 6 4 5 9 8 2 6 5 3 4 1 1 5 3 5 5 8 11 11 10 5 17
7 4 10 9 18 8 4 7 5 6 10 4 5 4 4 2 4 6 9 5 11 11 15 7 5 11 0 1 7 3 2 6 5 5 5 1 6 5 3 3 3 3 5 10 8
3 2 13 15 4 2 2 4 9 8 5 5 5 4 3 4 2 2 10 10 12 15 9 9 6 6 3 7 2 3 4 5 5 4 2 4 5 4 7 11 9 5 4 9 17
9 4 19 14 2 2 7 6 6 5 6 5 5 2 1 2 4 3 6 7 4 5 8 6 1 0 7 7 6 2 1 4 5 3 4 5 6 5 7 10 8 5 5 4 12
4 3 1 12 7 2 2 5 4 9 16 9 7 4 5 5 5 4 6 4 6 6 5 6 4 8 7 6 4 3 6 5 4 3 3 6 4 5 7 5 4 8 21 17 29
3 2 4 3 6 7 4 4 5 5 6 6 3 3 3 3 5 6 5 6 6 11 5 5 4 3 4 2 2 1 5 8 5 4 4 11 11 13 11 10 24 32 22 22 36
5 6 7 7 12 5 8 5 6 7 4 5 5 2 9 5 2 3 3 5 1 7 5 6 1 2 5 4 7 4 8 8 2 6 1 5 4 1 10 8 26 28 24 22 13
7 4 4 6 8 6 5 6 4 3 4 9 5 6 8 3 8 9 4 4 3 3 4 3 3 3 3 4 5 4 4 3 6 4 3 3 5 11 9 10 13 18 17 10 11

GFSSW_850_spd_033.txt.gz
Wind_Speed
5 6 7 7 8 8 9 9 9 10 11 12 12 11 9 7 6 4 4 3 3 3 2 4 2 2 1 1 3 2 3 3 6 3 1 3 3 12 4 20 7 6 15 17 31
7 6 7 8 7 8 9 9 9 10 11 12 12 12 10 8 2 2 2 1 0 1 2 1 2 5 3 3 4 4 3 3 1 2 3 12 7 12 7 11 3 15 18 25 29
7 8 8 8 8 8 9 9 10 10 11 11 12 11 10 7 1 2 3 2 1 3 5 4 8 5 2 2 2 1 4 3 8 12 4 6 6 4 16 3 14 29 34 31 30
9 9 9 10 10 10 9 9 9 10 11 11 11 11 8 2 2 4 5 3 4 7 6 6 6 4 4 6 4 2 11 8 8 3 6 11 16 8 15 4 22 27 33 33 31
10 10 11 11 11 11 10 10 10 10 11 10 10 10 7 3 2 3 4 4 7 6 6 9 6 4 2 4 6 5 6 14 27 9 9 17 18 7 11 12 25 33 32 32 28
11 11 12 12 12 12 12 11 11 11 11 10 9 8 5 3 1 3 1 4 3 3 5 9 5 7 2 5 1 9 16 13 5 4 3 8 5 10 8 22 29 33 36 33 28
12 12 13 13 13 13 12 12 12 11 12 10 9 9 7 6 4 2 2 3 2 2 3 7 8 8 6 5 9 6 4 6 5 1 1 9 2 4 21 29 33 34 36 34 30
13 13 13 13 14 14 13 13 13 12 12 10 9 9 6 4 8 5 2 4 2 2 4 6 9 9 2 7 7 4 5 4 7 3 7 8 9 3 28 32 29 31 32 33 32
13 14 14 14 14 14 13 13 13 12 11 10 9 6 6 6 10 5 5 4 2 2 2 4 8 3 3 3 6 7 2 4 9 4 4 3 6 6 29 27 26 28 29 32 31
13 14 14 14 13 13 12 12 9 7 6 8 10 5 6 1 5 6 10 5 5 8 4 2 1 3 4 5 3 4 4 5 6 5 2 4 5 5 26 26 28 27 28 30 31
13 13 13 13 12 11 8 4 3 3 9 8 6 6 11 5 2 5 8 8 6 2 2 4 5 3 5 5 4 3 4 6 5 5 5 2 3 5 20 17 16 23 27 30 33
14 14 12 11 10 6 5 6 7 7 11 10 16 21 20 18 5 7 11 6 2 2 2 6 4 8 4 5 6 6 5 6 5 3 0 2 7 2 11 26 30 30 29 32 29
14 13 13 9 7 3 3 5 7 4 4 12 14 17 18 10 9 12 14 11 3 3 3 5 6 3 3 4 5 3 3 3 5 6 6 5 8 4 4 6 17 15 27 31 32
14 13 13 7 4 5 5 2 2 3 5 7 5 10 16 15 6 17 16 10 3 6 6 5 6 4 5 6 7 3 5 2 2 4 2 4 4 6 7 3 6 19 25 31 33
14 13 11 6 5 5 4 3 2 1 3 3 4 2 13 15 2 5 22 15 7 4 5 6 2 7 4 6 5 8 3 2 3 4 2 3 4 7 4 2 5 17 32 35 38
14 15 10 9 8 6 2 5 2 5 6 6 5 5 5 5 2 3 13 12 4 3 3 7 6 5 6 4 4 3 4 7 5 3 3 5 3 5 2 4 6 3 5 9 9
13 15 12 9 4 5 6 6 5 3 5 5 1 1 3 6 4 3 5 4 6 4 2 5 4 4 5 1 3 7 7 4 4 5 5 1 3 7 7 5 4 12 17 14 4
13 14 13 9 10 8 7 4 3 5 6 5 4 0 6 3 3 5 5 4 2 4 3 3 6 2 1 4 6 3 7 5 4 2 5 4 1 6 3 8 18 20 25 12 11
13 12 11 6 13 12 7 3 7 6 4 6 8 0 3 4 2 4 7 7 8 7 7 5 5 3 3 5 7 3 2 4 7 3 3 3 4 5 6 7 12 14 15 21 11
12 6 2 6 16 14 4 6 5 4 5 4 2 2 1 5 7 7 8 5 5 10 8 6 2 3 5 4 4 7 7 3 3 2 2 4 3 4 2 2 3 7 10 14 13
6 1 6 9 18 8 4 6 4 8 7 1 2 3 4 2 7 6 7 4 9 7 8 5 4 6 3 1 7 2 2 7 5 4 5 1 6 6 10 9 8 11 8 5 10
2 3 10 14 3 2 2 4 4 4 3 4 2 5 4 2 2 1 7 9 14 13 10 8 5 4 9 1 3 3 4 5 5 3 2 4 6 4 5 10 17 13 15 6 5
6 3 12 14 2 2 5 5 4 3 5 3 3 2 3 3 1 3 2 3 4 10 10 8 1 2 9 7 4 7 3 6 5 3 3 4 5 2 3 7 14 12 17 18 14
3 2 3 11 3 4 1 5 4 7 8 8 6 5 4 3 4 2 5 4 7 5 8 12 4 7 7 7 4 4 4 4 5 3 4 5 4 5 8 7 7 12 10 10 6
5 2 2 2 2 3 3 3 3 4 4 7 2 4 4 1 3 5 4 6 6 10 4 5 5 3 3 5 4 3 3 4 4 4 4 3 5 5 10 8 11 8 6 9 3
4 4 5 4 9 5 5 3 7 7 5 4 3 3 4 5 4 1 1 5 2 6 4 3 2 3 3 3 5 3 4 4 4 2 1 1 2 6 6 8 10 10 7 12 16
5 3 2 3 6 3 1 4 6 5 4 2 4 5 5 5 6 4 2 3 2 1 3 3 5 3 3 2 4 4 2 3 5 4 2 1 5 5 2 6 16 17 13 19 21

GFSSW_850_spd_036.txt.gz
Wind_Speed
7 7 7 7 8 8 9 9 10 11 12 12 12 11 9 8 8 7 5 5 6 7 7 3 2 4 2 3 4 2 4 1 4 4 3 8 5 12 3 12 3 5 7 17 26
8 8 8 8 9 8 9 9 11 11 11 12 12 11 10 9 3 1 2 4 5 5 4 1 2 3 1 3 2 4 4 6 4 3 3 14 11 16 5 10 1 6 8 26 28
8 9 10 9 10 10 10 10 11 12 11 12 12 11 10 6 1 4 4 4 2 2 4 2 4 3 3 2 2 2 3 1 4 6 6 11 11 12 12 5 12 19 24 32 28
9 10 11 11 11 11 11 10 11 12 11 12 12 10 9 3 1 4 6 3 5 8 5 3 4 2 3 3 5 3 6 4 5 4 8 6 11 5 20 6 14 20 25 30 28
9 10 11 12 12 12 12 11 12 12 11 11 12 10 6 3 2 5 5 4 7 5 5 5 8 3 2 3 6 1 4 5 9 12 12 9 15 7 19 7 14 24 26 28 26
11 12 12 13 13 13 12 12 12 12 11 11 11 10 6 2 3 2 2 2 3 4 6 8 5 4 2 2 1 6 11 13 8 4 7 9 5 11 7 11 23 27 27 26 25
12 12 13 14 14 14 13 13 13 12 12 11 11 11 8 7 6 4 2 3 0 2 3 6 7 6 4 4 8 5 6 6 2 5 3 10 3 8 13 20 28 29 28 25 24
14 14 13 14 14 14 13 14 13 12 12 11 10 10 6 5 8 7 2 5 2 2 2 2 6 4 1 4 6 6 5 5 6 1 5 5 7 6 19 29 29 30 29 28 25
14 15 15 14 14 14 13 14 13 11 10 9 9 6 6 5 8 6 6 4 2 4 3 3 3 2 2 4 5 7 2 3 10 4 1 4 6 5 23 26 24 28 30 30 27
15 15 15 15 14 13 12 11 8 6 6 7 9 5 5 2 2 4 7 4 2 7 1 2 3 3 4 4 3 1 4 4 6 5 2 2 4 1 21 22 19 22 29 30 29
15 15 14 14 13 11 8 2 3 3 6 6 2 6 7 3 4 5 7 8 3 2 2 4 5 2 3 2 4 2 2 4 5 5 2 3 2 3 15 15 18 25 30 31 30
15 14 13 12 10 6 5 6 8 6 9 9 14 20 19 16 5 4 9 7 4 2 2 6 2 5 2 3 1 2 3 5 6 3 3 4 1 2 8 16 24 24 29 29 27
15 15 13 10 7 2 5 7 5 5 3 11 12 14 16 12 8 9 13 7 3 4 3 4 3 4 3 3 2 3 4 3 4 5 3 3 7 5 2 10 14 19 24 28 29
15 14 13 8 3 2 6 3 3 4 5 7 4 6 13 10 5 17 17 7 2 7 7 4 5 2 2 4 6 1 5 1 2 4 1 5 3 6 5 8 7 1 18 17 9
15 14 11 7 5 2 4 3 1 1 3 3 3 2 10 15 5 8 18 13 7 5 5 5 2 1 3 4 5 6 3 2 3 3 3 6 4 7 5 6 6 7 9 15 18
14 15 11 9 6 4 4 5 3 5 6 6 0 2 4 4 4 4 11 9 5 3 1 6 4 3 5 1 4 6 5 8 4 3 4 4 4 6 3 5 6 11 20 21 20
13 13 11 7 3 6 6 5 5 4 5 5 2 2 2 2 3 3 5 4 5 4 2 3 3 3 4 2 3 6 6 3 4 5 5 3 1 8 6 4 7 12 19 21 21
14 12 11 7 6 8 7 4 3 5 5 5 4 2 6 6 3 5 5 5 3 4 3 4 4 4 3 4 6 2 7 6 3 2 4 4 2 5 4 5 7 15 16 18 15
14 10 7 5 9 13 7 3 7 6 3 6 7 1 3 2 4 3 7 6 8 8 6 4 4 3 3 3 6 3 2 4 8 3 3 3 6 5 4 3 3 4 9 17 10
13 5 1 4 14 13 4 6 4 4 5 2 2 1 1 2 4 7 7 5 5 11 8 5 0 2 2 5 5 4 6 4 3 3 2 4 4 5 5 8 5 6 9 10 8
6 2 2 8 16 6 4 6 4 6 4 1 2 3 4 2 5 4 8 5 6 4 7 5 2 5 1 1 5 2 3 7 5 4 5 1 6 6 4 3 4 8 11 10 14
3 3 6 15 3 2 3 4 3 4 2 3 1 4 4 3 3 5 9 6 6 11 10 7 4 4 8 2 1 1 5 6 5 3 1 3 5 2 5 9 14 18 15 10 8
3 3 6 3 2 2 5 4 4 2 3 2 3 5 1 3 3 3 4 2 4 9 10 8 0 2 8 5 3 5 3 5 6 4 4 5 5 4 4 5 17 15 10 12 9
2 2 2 4 1 3 2 4 4 6 7 6 5 2 2 2 1 3 3 2 4 3 4 15 4 7 6 7 5 3 4 4 5 4 5 5 5 5 7 8 10 11 9 8 11
4 1 2 2 2 2 1 3 3 5 4 4 3 6 3 2 3 3 2 5 4 4 4 4 7 5 2 5 3 6 5 6 4 6 5 4 6 8 7 8 10 7 5 3 5
4 3 2 2 5 1 2 2 3 4 5 4 4 6 6 6 6 2 1 2 1 5 4 2 3 4 3 2 5 5 2 6 4 4 2 3 6 6 10 6 3 7 3 4 5
6 4 2 3 4 1 2 3 4 3 8 12 5 2 4 4 4 1 2 3 3 2 2 3 5 3 4 2 3 3 1 2 3 0 1 5 4 5 5 3 4 8 7 13 14

GFSSW_850_spd_039.txt.gz
Wind_Speed
7 8 8 8 10 10 10 11 11 12 12 12 12 10 8 8 8 6 4 4 5 10 8 1 4 3 14 9 7 3 2 2 3 6 5 12 11 7 5 8 4 4 3 7 20
8 8 8 9 10 10 11 11 11 12 12 12 12 11 10 8 2 3 2 4 6 8 4 3 3 5 7 6 3 2 0 1 1 2 4 15 17 15 6 9 4 4 6 16 21
9 9 9 9 10 10 11 11 12 12 12 12 12 11 10 5 4 5 5 3 3 3 3 2 1 3 3 2 2 1 1 4 4 5 3 11 9 12 8 7 12 13 18 23 23
10 10 10 10 11 11 11 11 11 12 13 12 11 11 7 2 1 4 7 3 4 6 1 1 1 1 3 2 0 2 2 4 2 3 5 9 12 9 14 5 5 13 20 24 23
11 12 11 11 12 12 12 12 12 11 12 12 12 10 6 2 1 3 4 5 6 3 4 4 6 1 2 2 0 0 2 3 5 5 5 10 15 10 14 13 6 15 23 23 22
11 12 12 13 13 12 12 13 12 12 11 12 11 9 8 3 3 1 3 3 3 4 6 7 5 3 1 1 2 3 6 6 2 2 6 8 7 11 7 16 11 20 23 23 21
12 12 13 13 14 12 12 13 13 12 11 11 11 10 9 8 5 4 1 4 1 2 3 5 6 4 2 1 6 5 6 6 5 3 1 8 4 13 11 15 19 21 21 21 20
13 13 13 14 14 13 12 13 13 12 11 10 10 10 6 5 6 7 3 4 2 2 3 3 6 3 1 2 3 1 1 3 3 3 2 7 11 8 13 20 21 22 19 19 22
14 14 14 14 13 13 12 13 12 11 9 9 8 6 6 3 5 5 5 3 3 2 3 3 4 2 1 1 0 5 2 3 5 5 1 6 9 4 11 15 19 21 20 19 19
14 14 14 14 12 11 11 11 9 8 8 8 8 4 5 2 2 4 7 6 3 2 1 1 3 0 2 3 7 3 1 2 5 3 3 5 10 1 10 14 17 20 17 18 17
13 13 13 13 11 10 7 5 5 4 5 7 3 5 5 3 3 3 5 8 3 3 2 3 3 5 4 3 4 3 2 3 5 3 4 2 5 1 8 13 15 17 16 16 9
13 12 11 11 8 5 4 3 5 3 7 10 15 20 18 13 5 4 6 7 4 4 3 2 4 2 2 4 4 2 1 3 5 5 2 4 1 5 1 3 9 10 13 14 9
12 12 9 8 5 1 4 4 4 5 3 7 11 12 10 12 7 8 13 7 3 4 4 4 3 4 5 3 4 2 4 2 2 3 3 7 1 2 4 6 10 4 15 16 20
12 11 9 4 2 3 6 2 3 2 2 3 3 3 8 8 5 13 15 6 2 6 5 4 2 3 2 4 7 4 7 3 1 1 2 6 4 4 5 7 9 8 12 18 20
12 10 7 3 3 5 5 2 0 1 2 2 1 1 6 10 4 10 17 9 6 5 4 2 5 4 3 3 9 2 3 4 2 3 2 5 2 2 5 5 9 6 14 18 20
12 10 6 4 5 6 6 4 3 1 5 2 0 3 5 6 2 5 8 7 5 4 2 3 3 4 2 2 2 9 5 5 3 1 3 2 3 1 4 5 4 3 13 17 19
11 10 6 4 4 9 8 7 2 4 3 2 2 2 2 6 4 4 11 10 6 5 7 2 4 3 4 3 5 3 3 2 3 3 2 2 3 2 6 6 6 8 12 15 15
11 9 6 5 6 10 9 2 3 2 4 2 2 3 5 9 9 5 8 10 4 3 3 7 7 6 5 4 4 3 2 3 1 2 1 2 1 2 6 7 2 7 8 14 16
10 6 3 6 10 13 8 4 6 5 2 4 4 3 2 3 3 10 11 8 11 11 4 5 5 2 2 2 1 5 4 3 6 1 3 1 3 8 5 2 7 6 10 11 14
8 1 2 5 13 12 2 4 3 3 4 2 2 1 1 0 6 8 9 6 7 14 14 4 3 1 2 3 9 1 8 4 1 4 3 2 3 4 5 4 7 8 12 10 7
2 3 3 8 13 6 4 4 3 5 3 2 1 3 2 2 1 4 4 3 8 9 11 7 2 3 2 3 6 5 4 5 4 2 2 3 2 4 7 6 8 11 13 9 4
2 2 6 6 3 2 2 1 2 3 1 2 2 3 2 2 3 3 7 5 6 13 11 6 3 6 6 1 2 2 5 5 4 5 1 2 2 2 4 7 7 7 7 4 0
3 3 6 4 2 2 0 2 3 2 2 2 3 4 1 1 3 4 4 0 5 10 10 9 3 4 3 2 2 3 3 4 7 2 6 4 2 3 6 3 2 2 2 2 4
2 2 2 1 4 2 2 1 3 4 6 4 4 2 2 3 3 3 2 1 1 7 3 13 4 5 7 2 3 4 5 7 2 5 8 4 1 5 5 2 4 5 2 3 3
4 2 2 2 3 2 2 1 2 4 3 3 3 9 6 3 2 4 2 2 2 2 3 6 8 6 4 4 3 4 10 9 5 7 5 7 6 3 6 4 2 4 7 7 4
3 1 2 2 0 2 1 1 3 3 4 4 6 6 7 7 4 2 2 1 1 1 3 0 5 6 6 4 8 5 7 6 4 6 2 3 4 5 4 1 7 7 5 3 2
4 3 1 2 1 2 2 1 4 2 8 16 10 7 6 7 4 3 1 2 2 2 3 3 6 5 5 3 9 5 7 8 3 2 2 5 0 6 6 4 6 5 1 2 4

GFSSW_850_spd_042.txt.gz
Wind_Speed
6 6 7 8 9 8 10 10 10 10 10 10 10 9 8 6 3 2 2 4 5 3 1 4 8 8 11 7 7 6 6 1 7 1 5 8 8 4 3 5 5 3 4 8 17
6 7 8 9 9 9 10 11 11 11 11 11 11 10 9 5 4 2 2 3 6 5 3 8 10 12 9 8 4 8 8 5 4 4 7 3 8 8 6 6 7 6 7 16 17
7 8 9 8 9 10 10 11 11 11 11 11 11 10 8 3 4 2 3 2 4 4 6 8 9 12 15 8 5 2 2 2 1 5 6 3 9 9 9 5 6 8 15 19 18
8 9 9 10 9 10 11 11 12 12 11 11 11 10 6 3 1 2 4 1 3 3 3 5 8 13 12 8 2 8 1 1 3 3 3 3 5 10 10 3 4 8 17 21 20
9 10 10 11 10 11 12 12 12 12 12 11 11 10 5 3 2 1 2 5 4 3 0 2 5 5 10 2 3 7 2 2 4 3 5 5 7 8 9 7 3 13 19 18 17
11 10 11 11 11 11 12 13 12 12 12 11 10 10 7 6 4 1 2 4 2 2 2 1 1 2 4 3 7 3 4 3 2 2 4 7 8 9 7 10 10 16 19 17 16
11 11 11 12 12 11 12 13 12 12 12 11 10 9 7 5 4 5 2 5 3 0 1 2 3 4 2 6 2 5 10 7 4 2 5 7 8 10 8 13 14 17 19 19 18
12 11 11 11 12 12 12 13 12 12 11 10 9 8 6 5 6 7 3 3 5 2 2 2 2 5 5 3 5 6 7 10 9 5 2 9 11 6 9 13 14 18 19 19 18
12 12 12 11 11 11 12 13 12 11 10 9 7 3 4 2 3 5 6 4 4 4 4 4 2 4 5 11 10 10 9 2 2 3 6 9 13 9 5 12 12 15 15 18 19
12 12 12 11 10 10 10 11 10 10 10 9 9 6 6 4 3 5 7 5 5 5 6 7 7 9 9 11 12 9 9 4 5 6 9 8 12 2 3 6 7 12 17 18 19
12 11 11 11 9 9 7 6 6 4 5 8 1 5 0 2 2 6 7 7 6 8 10 3 9 12 17 11 5 3 7 7 4 3 7 5 6 2 2 3 5 10 17 19 17
11 10 10 9 7 5 4 1 1 3 8 10 14 15 12 6 4 8 9 9 9 11 5 6 11 3 1 4 6 9 11 9 3 2 6 5 2 4 3 4 3 10 15 21 21
11 9 8 8 6 3 2 1 1 4 7 6 9 9 7 11 8 9 13 11 9 10 11 13 4 3 7 8 10 14 14 5 8 0 5 8 9 7 4 3 5 7 14 18 19
10 9 6 5 2 4 3 2 2 2 5 9 6 4 7 7 8 12 13 9 7 9 5 9 7 7 8 11 13 14 9 4 5 7 3 4 10 9 3 4 5 2 8 12 14
10 8 6 4 4 4 7 4 1 2 5 5 6 2 5 14 5 13 15 11 8 7 6 4 10 12 10 12 11 1 5 6 6 6 6 6 8 4 4 5 5 3 3 4 9
10 8 6 5 6 8 8 3 1 6 6 5 4 7 9 15 8 6 14 11 6 5 7 7 1 5 8 3 7 8 8 6 6 6 11 5 5 6 4 6 4 1 3 6 9
10 9 7 7 4 10 9 5 6 9 3 7 4 5 10 11 14 10 15 16 10 9 12 12 12 8 8 8 7 12 10 8 6 8 3 5 5 5 5 5 5 2 3 6 9
10 9 8 8 10 11 9 7 9 3 5 2 2 5 7 10 14 12 13 14 16 9 3 9 12 15 12 13 9 16 11 8 4 4 3 4 6 5 4 3 2 2 3 6 7
10 7 6 8 11 14 12 11 7 4 2 3 6 7 8 9 5 15 15 15 13 14 8 8 10 6 4 5 8 8 10 5 5 1 7 5 4 7 6 4 5 4 5 5 6
6 2 2 7 12 12 10 13 4 3 3 3 7 1 5 7 11 11 13 12 13 15 17 3 6 10 8 7 4 6 8 6 8 5 7 7 3 3 4 4 5 4 4 6 6
1 4 2 7 13 11 10 10 5 3 3 3 1 3 3 3 9 11 8 7 16 14 18 12 8 9 6 12 13 7 9 7 4 5 3 5 6 3 1 3 2 4 6 9 8
2 3 4 13 10 6 9 3 1 5 4 3 4 4 3 2 4 7 10 6 3 13 16 13 9 10 13 7 3 7 11 12 10 10 6 7 6 5 3 4 1 7 10 8 5
1 2 5 10 5 8 4 6 4 5 4 4 4 3 2 3 4 6 3 1 4 11 10 12 9 9 11 8 5 8 10 11 5 2 7 8 6 7 2 4 4 8 9 8 5
2 4 5 5 0 3 5 7 7 6 9 10 8 6 8 9 5 5 6 5 4 11 2 8 13 13 11 13 6 9 12 13 15 8 11 11 7 8 6 6 6 7 7 6 8
2 2 2 5 7 4 4 0 6 6 9 5 8 14 12 7 10 10 8 7 6 5 6 10 12 16 15 3 5 7 12 13 13 12 8 6 7 8 4 4 2 8 10 10 8
2 2 2 3 2 6 4 5 7 6 6 9 11 7 7 13 12 9 5 4 6 7 8 9 10 14 17 13 13 9 8 11 9 6 4 2 5 4 3 4 7 8 8 7 5
3 3 2 5 5 6 3 1 1 2 10 14 6 7 11 8 12 8 9 4 3 6 9 8 11 9 16 9 12 14 13 14 12 10 5 7 8 3 4 7 7 6 3 3 4

GFSSW_850_spd_048.txt.gz
Wind_Speed
7 7 7 8 8 8 8 9 9 10 10 11 11 10 10 9 8 9 6 9 10 10 11 4 7 10 14 15 14 15 5 7 8 20 9 36 18 7 19 10 6 10 14 19 20
8 8 8 8 9 9 9 9 10 10 11 11 11 11 10 10 8 12 13 10 11 11 8 7 11 10 13 18 19 17 5 24 22 12 8 27 28 5 27 31 6 12 15 18 21
8 9 9 9 10 10 11 11 11 11 11 11 11 10 11 11 8 4 11 10 14 12 7 9 15 16 18 18 23 9 10 25 26 7 7 7 39 41 29 9 15 15 18 19 19
9 10 11 11 11 11 11 11 12 12 12 11 11 10 11 9 2 3 3 8 12 10 9 13 14 17 16 18 23 12 11 16 8 6 4 7 7 29 25 14 17 18 21 21 19
10 11 11 12 12 13 13 13 12 12 12 11 11 9 9 8 5 2 4 5 8 7 10 14 17 17 16 20 24 8 9 2 7 5 5 6 3 4 23 14 12 17 20 20 18
12 12 12 13 13 14 14 14 13 13 12 11 10 9 7 14 1 4 2 4 3 9 12 13 15 18 17 18 18 7 15 11 4 6 4 7 10 5 9 9 8 13 16 16 15
13 13 14 14 14 15 14 15 14 13 12 10 9 10 10 16 4 5 5 7 7 10 13 12 11 11 15 18 15 15 15 12 8 12 2 11 11 14 15 28 11 9 12 14 12
13 13 14 15 15 15 15 15 14 13 11 10 9 9 9 4 8 9 9 10 8 9 10 7 9 15 21 21 19 12 17 11 8 36 2 7 5 8 15 33 28 9 11 11 11
13 13 13 14 15 15 15 15 14 13 11 9 7 5 18 8 9 11 11 11 10 9 10 9 11 17 19 17 15 15 16 11 7 33 9 7 12 18 27 40 8 9 11 9 10
13 13 13 13 14 14 14 14 12 12 11 10 12 9 16 10 7 7 10 11 8 11 13 12 15 13 15 15 15 5 16 15 18 25 2 8 9 14 4 5 9 14 14 12 12
13 14 13 12 11 12 10 9 10 1 7 15 4 13 2 7 7 9 11 10 12 12 12 17 12 14 18 19 19 21 19 16 10 37 2 9 5 4 9 4 3 5 18 14 14
14 13 13 11 9 7 3 6 5 7 12 15 22 20 13 6 9 11 12 12 15 13 16 12 12 14 17 18 20 15 8 13 16 14 5 9 12 3 6 1 8 7 11 13 27
13 13 12 10 7 3 4 8 7 9 9 20 24 22 20 16 16 15 14 15 16 14 15 16 17 13 12 12 10 13 13 13 13 5 4 9 13 12 7 4 2 8 7 12 35
13 12 11 6 2 2 6 4 6 6 6 15 20 15 19 18 20 19 18 16 13 15 14 14 17 7 9 11 14 14 15 14 13 10 9 7 10 7 9 13 9 13 8 17 25
12 11 9 7 4 1 1 5 6 4 6 7 17 7 16 20 13 22 17 16 15 14 10 13 12 14 10 12 12 12 13 12 4 8 12 16 8 13 16 3 17 18 20 26 19
12 11 8 3 8 6 8 6 4 6 11 6 8 10 15 22 21 10 20 17 13 14 14 14 21 8 12 11 12 11 15 11 8 11 11 15 11 9 7 12 16 20 20 15 13
12 11 9 12 7 4 6 6 6 9 13 13 9 13 17 18 18 13 14 16 14 11 14 15 16 11 15 14 16 8 13 8 9 11 12 7 8 6 15 10 13 19 18 17 15
12 11 11 12 8 8 5 9 11 10 22 7 4 13 17 18 20 20 16 15 18 20 13 13 14 19 14 16 10 13 16 12 12 6 5 14 7 5 15 17 21 21 19 17 16
10 7 9 5 12 8 11 12 11 16 14 17 11 13 12 13 16 19 21 18 18 18 17 15 16 10 18 13 16 16 11 18 18 16 5 7 5 6 11 15 21 20 16 15 16
8 7 12 10 8 9 10 16 17 21 8 9 7 11 14 17 16 17 17 19 19 18 20 18 11 16 15 14 16 18 10 10 9 9 12 9 13 11 8 12 17 19 20 15 14
8 7 11 7 8 12 10 16 19 28 4 5 10 16 20 19 16 18 17 18 17 19 16 13 12 15 11 10 14 8 11 10 14 8 1 7 3 5 13 23 12 17 19 14 14
6 8 8 10 11 14 13 19 18 18 9 8 12 15 18 13 15 14 14 15 17 15 16 12 9 13 19 15 14 17 15 16 9 9 8 9 9 17 13 5 13 22 14 12 11
6 10 6 11 7 11 18 21 23 9 8 12 11 13 15 13 9 12 15 6 7 4 3 12 10 12 14 16 14 16 20 13 12 11 15 5 6 1 17 20 19 18 15 10 7
7 3 8 11 19 17 15 17 11 9 16 13 14 13 14 11 14 10 17 2 2 9 10 10 9 9 14 14 11 14 15 16 16 9 10 4 9 12 18 13 26 11 13 9 5
6 6 5 5 12 14 14 13 15 15 12 14 12 11 10 9 14 14 17 17 6 8 9 6 9 12 16 19 18 18 18 22 19 17 16 8 13 3 5 11 21 3 6 9 6
8 9 15 15 5 7 6 8 11 11 13 13 14 15 17 15 16 15 16 13 14 10 13 11 9 11 17 19 21 20 8 6 31 16 15 14 9 5 8 6 15 6 6 9 7
7 9 7 11 7 9 10 13 14 13 14 6 11 12 14 12 19 25 19 16 12 10 10 11 10 10 14 17 18 19 20 14 13 10 12 9 12 18 3 5 18 12 10 9 7

GFSSW_850_spd_051.txt.gz
Wind_Speed
7 7 8 8 9 9 10 9 10 11 11 11 11 11 12 10 11 12 10 9 10 11 13 12 12 10 7 19 18 12 3 3 5 11 6 2 5 12 13 14 12 7 23 29 26
7 8 8 9 9 10 11 11 10 11 11 11 12 13 13 13 12 16 11 8 11 12 15 11 15 16 16 20 8 6 1 6 9 10 10 9 12 5 7 10 8 23 28 29 27
9 9 9 10 10 10 11 11 10 11 11 12 12 13 14 14 11 7 10 12 12 13 14 12 12 16 23 25 7 4 3 8 20 15 23 27 24 19 7 5 12 27 29 29 27
10 10 10 11 12 12 12 12 11 12 12 12 12 13 15 11 3 4 2 9 14 14 13 13 9 17 13 9 24 6 19 12 13 8 29 20 22 6 11 19 7 25 26 26 23
11 11 12 12 13 13 14 13 13 12 12 13 13 13 13 7 13 1 2 5 10 11 13 10 15 20 10 15 20 10 18 27 24 10 21 23 15 8 9 20 23 23 25 23 20
12 12 13 13 14 14 14 14 14 13 12 13 12 13 12 8 4 4 5 1 1 4 6 8 15 19 24 19 12 21 13 14 14 12 7 16 17 20 19 8 15 16 27 24 23
13 14 14 14 14 15 15 14 14 13 12 12 12 13 13 16 2 4 5 4 6 13 16 17 21 14 17 10 21 27 10 8 8 9 6 7 3 3 29 15 18 12 28 25 26
14 14 15 15 15 16 16 15 14 13 11 12 11 13 11 5 8 10 10 13 11 10 13 12 11 11 13 22 22 12 10 5 8 13 17 11 8 6 19 14 9 15 24 27 30
14 15 15 15 16 16 16 15 14 12 11 12 9 6 12 5 17 15 14 14 13 13 8 11 8 10 16 6 7 5 4 6 9 10 13 12 10 14 22 21 18 14 12 35 35
14 15 15 15 15 16 14 14 13 12 13 12 12 9 11 13 11 10 9 13 13 7 13 13 12 5 5 1 7 4 4 3 6 25 11 16 13 15 29 25 20 12 32 37 35
14 14 14 14 13 13 10 8 8 2 5 9 8 9 25 9 7 7 8 9 9 13 7 14 3 7 13 12 16 12 9 10 8 16 3 9 4 9 20 30 16 31 22 34 33
15 14 14 13 11 8 7 4 5 8 13 20 25 27 29 17 6 14 12 16 12 8 13 8 7 14 13 15 14 13 14 16 10 11 4 13 11 0 7 9 18 25 31 35 30
15 14 14 11 8 4 4 6 11 8 7 16 25 23 26 20 16 20 16 18 11 7 11 9 15 13 13 10 8 6 11 11 14 10 26 11 6 7 10 36 34 24 33 34 33
14 13 13 8 4 3 3 3 8 7 3 7 10 19 28 23 21 24 21 16 9 12 11 9 16 13 8 4 5 6 10 10 12 8 3 1 5 6 8 19 21 19 31 30 27
13 12 9 8 6 4 4 1 9 4 3 7 14 9 17 26 14 17 24 20 10 10 6 10 9 9 7 6 5 9 10 6 6 6 3 9 3 3 4 9 20 16 17 28 26
13 12 8 10 11 3 9 9 8 1 6 6 7 6 9 19 19 25 20 21 11 10 11 9 23 5 8 7 8 7 6 8 4 2 4 5 5 5 6 11 14 13 21 22 17
13 13 12 12 8 2 2 4 0 4 6 6 6 10 11 9 11 14 12 8 6 3 6 10 11 8 6 7 8 6 3 4 4 3 4 7 7 5 5 16 13 14 24 24 20
14 14 13 14 13 4 2 1 6 7 13 11 13 8 13 11 11 14 7 8 9 9 5 6 8 10 11 10 9 7 8 6 6 3 4 8 5 5 7 25 27 26 24 21 20
13 10 13 7 13 9 3 4 6 6 10 7 11 12 6 9 10 13 12 9 10 11 9 3 10 10 11 9 8 9 3 12 4 4 2 4 2 8 17 20 11 20 25 24 21
13 10 13 6 6 11 3 5 6 16 18 15 7 8 3 8 4 6 11 12 12 11 16 9 7 9 11 12 10 9 6 3 3 3 4 2 2 3 6 15 7 0 19 20 18
11 4 5 20 12 10 4 6 9 25 23 12 7 9 11 9 11 13 7 8 11 14 10 10 7 15 5 2 8 3 5 3 3 4 5 4 5 5 14 16 15 5 28 15 17
4 4 15 14 7 6 6 6 14 21 26 6 5 8 7 11 10 10 8 6 9 14 10 8 7 6 9 10 8 9 7 7 5 9 1 5 4 3 10 10 34 43 32 36 17
4 9 9 15 4 6 11 15 23 18 17 5 3 7 9 8 6 8 11 19 13 12 5 3 2 1 10 8 6 3 7 4 3 3 5 6 4 5 28 30 49 54 37 5 18
4 3 7 17 18 8 7 9 14 26 5 7 7 11 7 7 8 7 12 11 26 7 7 8 2 4 7 8 2 4 19 5 3 1 5 3 6 4 15 23 32 36 20 9 10
4 5 8 4 8 11 8 10 10 9 7 5 4 8 9 4 7 7 8 10 16 14 7 4 1 3 8 8 9 8 9 1 7 3 2 7 13 11 11 16 26 21 18 19 17
5 9 11 16 14 3 7 6 7 11 2 6 6 10 9 5 7 8 8 6 4 9 9 6 3 3 6 8 11 15 15 10 5 7 13 6 4 8 12 13 12 12 11 16 13
9 8 7 12 9 3 5 4 5 7 13 13 4 2 7 5 14 18 21 13 7 4 6 5 2 1 6 6 9 8 8 5 4 4 5 5 8 9 6 10 11 20 15 12 8

GFSSW_850_spd_054.txt.gz
Wind_Speed
7 8 8 9 10 10 10 11 11 11 12 13 14 13 13 12 11 13 14 12 7 6 8 10 9 7 10 14 15 5 4 4 10 8 6 17 5 7 11 20 8 13 21 18 26
8 8 9 9 10 10 10 11 11 11 12 13 14 14 15 14 13 15 14 12 9 7 9 10 12 11 7 8 6 8 5 10 11 15 8 21 11 6 7 10 11 14 18 34 27
8 9 10 10 10 11 10 11 11 11 12 13 14 15 15 14 13 3 5 12 10 9 11 12 12 13 7 12 6 4 6 2 11 25 24 21 9 1 6 2 14 28 34 31 29
11 10 11 11 12 11 11 11 12 11 12 12 14 15 15 11 3 4 1 5 10 12 13 12 9 4 2 5 8 4 19 21 29 9 21 13 8 7 10 8 23 35 34 33 32
12 13 13 13 13 13 13 12 12 11 12 13 13 14 14 7 9 4 4 5 9 11 12 10 10 11 4 7 17 5 15 18 38 13 27 17 17 11 12 8 35 37 31 36 32
13 14 14 15 14 15 14 14 13 12 12 13 12 13 11 6 5 3 4 6 5 6 7 10 6 15 12 8 3 10 20 20 9 18 15 8 7 8 15 17 40 40 34 34 33
14 15 15 16 16 16 16 14 14 13 12 13 12 13 15 16 4 9 7 6 5 7 11 9 13 10 7 8 16 18 7 7 5 4 7 12 2 7 11 22 34 35 35 31 32
15 16 16 16 16 17 17 16 15 13 13 13 12 13 11 5 8 14 11 11 9 15 16 8 11 11 5 14 12 7 4 6 6 7 12 7 6 13 17 26 27 35 32 30 36
16 16 16 16 16 17 16 16 15 13 14 13 11 8 13 5 13 14 14 16 11 11 15 8 10 2 9 4 6 6 3 6 7 9 2 6 8 8 18 22 25 32 39 29 35
16 17 17 16 16 16 15 15 12 12 11 11 12 7 11 5 5 9 14 18 17 16 8 14 6 3 4 5 5 5 2 7 7 6 7 7 9 12 22 24 28 34 37 39 39
16 16 16 15 14 14 11 5 4 1 11 8 6 11 21 14 9 7 8 13 15 12 1 7 3 7 13 10 10 6 5 8 6 3 1 8 4 12 5 15 20 28 32 33 37
16 16 15 14 13 11 9 4 6 9 12 18 22 26 31 26 19 17 9 8 3 6 5 6 6 13 6 8 9 7 8 11 4 9 4 10 10 4 10 15 26 28 30 34 33
15 15 15 12 10 7 4 7 6 11 6 13 19 22 32 22 24 25 12 18 7 4 6 7 13 5 6 10 9 5 9 7 9 3 6 4 6 6 6 4 17 23 32 37 37
14 14 15 10 5 6 0 5 4 8 4 8 6 13 22 24 13 24 24 17 6 11 7 7 14 12 9 8 7 3 9 6 8 1 5 4 5 5 6 8 7 20 30 37 32
14 14 11 11 7 4 4 0 2 2 2 6 6 7 10 18 4 4 25 21 9 9 6 12 5 7 3 7 3 7 6 3 3 2 3 3 5 5 5 5 6 13 20 29 26
14 14 11 14 12 4 5 3 2 5 6 6 3 6 6 13 15 11 4 23 9 8 3 9 15 4 7 4 3 4 3 7 5 3 4 4 4 5 6 9 4 7 18 23 23
15 14 15 15 5 5 2 3 4 4 4 6 4 1 8 9 5 7 5 3 7 3 5 7 9 6 6 4 6 6 7 4 5 5 6 1 2 8 7 6 6 14 19 17 17
16 16 16 16 11 9 3 4 4 6 8 5 6 6 4 4 7 7 4 6 5 4 3 3 9 3 3 6 7 4 8 6 4 3 5 4 4 5 9 12 25 35 34 11 14
17 15 16 8 13 12 4 3 8 6 3 8 9 2 4 3 5 7 10 8 9 10 9 6 8 3 6 5 10 7 2 7 6 1 3 3 2 4 8 17 30 34 4 5 4
17 14 13 8 16 16 4 5 5 6 6 6 2 3 7 7 6 4 1 6 8 12 10 8 4 6 10 3 4 10 6 0 3 2 5 5 4 6 2 13 14 13 14 4 14
10 7 7 15 16 9 3 6 6 22 11 3 7 3 2 2 1 2 3 5 4 9 15 7 5 18 3 2 6 1 2 4 5 5 5 2 4 2 11 14 11 13 15 14 18
5 2 15 20 5 3 3 5 5 14 18 7 6 7 3 1 3 2 2 4 18 10 9 9 7 7 14 2 5 6 7 6 5 8 3 5 4 5 4 12 22 20 24 30 21
8 6 20 21 3 3 5 5 9 12 10 5 5 5 3 1 2 3 4 13 25 11 2 1 1 2 9 7 5 2 3 5 4 4 4 5 5 2 11 9 23 26 20 23 20
4 3 5 21 12 3 2 6 5 11 18 12 6 3 7 6 1 4 5 4 22 12 16 2 3 6 7 6 2 4 6 3 6 3 3 5 6 7 11 14 22 24 25 26 19
2 4 2 2 7 9 6 5 6 5 4 9 3 1 2 2 7 5 5 8 13 18 12 4 1 2 5 4 4 1 4 9 3 4 5 12 16 20 21 20 29 35 25 20 15
2 4 6 8 10 3 8 6 6 5 3 6 4 5 1 1 1 4 3 1 3 8 7 6 3 3 4 6 5 2 5 7 6 5 5 12 6 17 29 13 14 19 23 20 28
4 5 3 7 7 5 3 8 5 3 1 6 7 3 6 2 5 8 6 8 5 1 3 3 3 4 5 4 6 5 3 1 4 4 2 5 6 21 11 18 25 31 30 30 27

GFSSW_850_spd_057.txt.gz
Wind_Speed
9 9 9 10 10 11 11 11 11 12 12 13 14 13 13 13 13 16 17 11 6 5 4 3 2 5 8 11 13 5 3 2 4 3 6 9 3 11 8 13 7 12 15 20 31
10 11 11 11 11 12 11 11 11 12 13 13 14 14 14 15 14 15 17 12 10 7 6 7 5 4 7 6 6 6 3 9 8 8 6 2 12 9 6 11 3 13 14 31 30
12 12 12 12 13 12 12 12 12 12 13 14 15 14 14 15 12 4 2 13 11 9 8 9 10 8 6 5 5 5 5 7 14 29 32 6 12 12 16 4 16 31 35 34 33
13 13 13 14 14 14 13 13 13 12 13 14 16 15 13 11 1 4 3 4 10 11 11 11 8 3 3 4 3 4 14 7 8 15 11 9 17 3 11 6 23 25 35 38 38
14 14 14 15 15 15 15 14 13 13 13 13 15 15 12 8 6 3 3 5 8 11 13 12 11 4 2 5 13 1 6 20 26 21 21 18 7 5 4 6 23 30 38 38 35
15 16 16 16 16 16 15 14 14 14 14 13 15 15 11 6 5 5 4 6 8 8 9 11 5 5 9 5 2 11 18 21 9 4 6 9 5 3 6 16 28 33 37 37 35
16 17 18 18 18 18 17 16 15 15 14 14 14 15 16 16 6 8 9 7 6 7 8 8 10 9 6 4 7 13 7 8 5 8 6 5 3 6 15 26 33 31 32 34 36
17 18 18 19 19 20 19 17 16 16 15 15 13 14 11 9 11 14 13 10 12 12 14 13 16 14 6 6 8 6 4 6 3 3 6 12 7 8 23 32 29 25 33 31 34
17 18 18 19 20 21 19 18 16 17 15 14 11 9 12 6 10 10 15 15 10 13 15 19 9 6 3 3 5 6 4 4 10 3 4 5 5 2 28 33 28 28 30 32 31
18 18 18 18 19 20 18 17 14 12 7 8 11 7 10 3 4 8 12 16 12 16 14 3 3 3 4 5 4 4 4 4 6 5 5 6 6 7 29 31 31 30 27 33 29
17 18 18 17 17 17 15 8 5 2 11 9 11 11 16 13 12 10 5 12 17 12 4 4 4 4 11 8 4 3 6 7 16 10 6 5 6 7 18 23 23 28 26 33 29
17 17 17 16 16 13 9 4 7 11 13 13 19 25 27 26 16 14 7 7 4 4 2 5 5 9 5 5 5 6 8 13 11 13 0 3 2 2 2 12 26 28 28 33 30
17 17 17 14 14 10 6 1 9 6 5 13 16 18 28 18 20 23 12 10 5 3 3 6 9 4 4 7 5 5 6 12 12 4 4 3 5 4 2 5 14 19 28 27 33
16 17 16 13 8 8 5 3 5 2 4 8 6 11 16 17 8 24 23 17 2 9 6 6 7 7 5 7 6 6 11 9 5 4 3 3 5 4 5 6 2 19 21 23 23
16 16 15 12 10 6 6 4 1 1 3 5 5 2 9 16 21 8 27 22 9 6 6 10 4 3 5 8 5 10 4 7 2 3 2 3 4 6 4 6 3 7 7 4 15
16 16 16 14 14 8 7 2 3 5 7 7 3 2 5 6 8 3 6 16 11 5 3 9 4 4 7 6 5 3 5 6 4 3 2 3 4 5 3 6 9 26 32 28 3
17 16 18 16 7 6 5 4 4 4 5 6 3 3 2 3 2 5 5 5 6 3 5 5 6 4 4 5 3 7 7 4 4 5 5 3 1 5 8 4 21 27 40 27 5
18 18 18 18 12 10 5 4 4 5 7 6 5 6 2 2 4 4 4 4 4 4 3 5 8 4 4 5 4 1 7 6 4 3 5 2 3 4 3 16 30 33 17 17 30
19 17 18 11 14 13 8 3 8 7 3 6 8 5 7 6 4 2 6 6 8 10 9 6 7 5 6 4 6 2 3 6 7 3 3 2 4 3 2 6 15 22 24 19 22
19 17 13 10 14 18 4 5 4 5 5 5 2 3 6 6 6 5 5 3 5 9 3 7 3 6 5 2 1 5 6 3 3 3 3 4 3 5 10 12 10 11 17 21 15
16 9 1 9 19 12 4 6 5 22 3 2 2 3 5 4 2 3 4 2 2 5 10 6 4 9 3 4 5 2 1 6 6 4 6 2 6 6 15 10 10 14 25 31 20
6 2 9 16 5 2 4 6 6 9 5 6 4 8 7 6 2 2 1 1 14 4 4 5 6 7 11 5 3 3 4 6 5 5 1 4 5 3 7 7 12 18 30 27 16
11 4 12 18 3 2 4 4 7 5 8 5 4 4 2 6 3 3 3 3 13 7 1 4 1 2 10 7 4 1 2 5 5 3 5 5 5 1 2 8 20 24 26 23 17
5 2 5 12 6 5 0 5 5 9 12 10 7 3 2 1 4 1 4 2 10 10 9 5 3 5 7 7 2 5 3 4 5 3 4 5 3 6 9 12 24 31 29 22 21
3 2 1 2 7 4 5 3 4 4 5 10 4 7 6 4 1 3 2 5 5 11 7 4 3 2 4 3 3 2 4 6 4 5 5 5 9 10 18 21 29 33 29 21 20
2 4 5 5 9 3 5 4 8 10 6 3 3 3 4 5 6 3 2 0 3 5 5 5 1 4 1 1 3 3 4 2 5 4 3 5 7 7 11 15 16 27 26 22 20
3 4 4 4 5 2 3 4 6 5 3 1 1 5 6 5 6 5 7 4 5 1 1 3 3 3 4 4 1 3 2 2 2 2 7 5 9 3 5 13 24 29 28 25 18

GFSSW_850_spd_060.txt.gz
Wind_Speed
10 10 11 11 11 11 12 12 12 13 13 14 14 14 13 12 12 12 15 9 6 7 6 3 4 5 5 5 7 2 3 3 4 3 6 3 3 9 3 12 10 9 7 11 24
11 11 11 12 12 12 13 13 13 14 15 15 14 15 15 15 13 10 12 10 10 9 8 4 3 7 4 4 3 3 3 7 7 6 6 5 5 13 4 7 2 8 6 21 25
12 12 13 13 13 13 13 13 13 14 15 16 15 15 16 15 7 4 2 10 11 9 7 5 4 5 4 5 5 5 6 5 14 18 23 8 5 8 10 5 12 18 20 27 26
14 14 14 14 15 15 14 14 14 14 15 16 16 15 15 11 1 3 5 6 12 10 9 6 5 4 3 4 6 3 15 10 10 15 10 5 8 8 18 10 14 18 24 29 27
16 16 16 16 17 17 16 15 15 14 15 16 17 15 13 9 5 2 2 2 5 7 9 9 7 4 3 4 6 5 5 9 20 11 10 6 8 8 18 13 9 22 29 29 24
17 17 18 18 18 18 18 16 16 16 15 16 16 15 12 6 5 3 2 3 4 6 7 8 5 4 7 5 1 7 12 18 11 9 4 9 4 7 9 9 20 26 31 30 22
18 18 19 19 20 20 19 18 17 17 16 16 16 16 16 17 6 8 7 7 6 4 6 7 7 6 7 6 5 8 7 9 6 5 4 13 3 8 9 17 29 29 32 31 27
20 20 20 20 21 21 20 19 19 18 17 16 14 15 11 10 9 13 12 11 10 8 10 11 8 10 5 6 8 6 4 5 6 4 5 2 6 13 14 26 27 28 27 31 29
20 20 20 20 21 21 19 18 19 18 16 13 11 9 11 6 7 7 12 15 10 9 9 11 9 4 1 4 5 6 4 3 8 5 2 4 5 8 17 24 24 27 27 29 31
20 20 19 19 21 21 18 16 15 11 7 7 10 7 9 4 2 4 6 10 13 9 4 1 2 3 3 5 3 3 4 5 6 3 2 4 9 9 21 19 21 24 24 27 29
20 20 20 18 18 18 16 7 4 3 7 8 4 8 15 9 10 5 4 3 9 3 1 2 4 3 8 6 5 3 4 6 13 3 4 6 5 10 23 15 18 23 27 26 26
20 19 19 18 17 13 11 3 9 8 11 12 18 27 29 25 11 14 5 5 5 5 2 5 3 8 2 3 4 5 5 9 12 2 3 3 6 2 3 3 9 14 20 21 26
20 20 19 16 15 10 5 2 8 9 5 12 14 20 23 18 20 24 11 8 5 4 5 7 6 6 3 4 4 4 5 6 10 7 1 3 7 6 2 17 18 19 14 8 12
19 20 19 16 9 7 2 2 7 0 5 8 5 8 12 13 6 26 23 13 2 10 7 5 4 6 4 5 7 4 7 11 1 3 3 3 4 5 8 10 15 23 24 16 17
18 19 17 16 13 7 3 3 2 2 3 5 4 4 4 11 5 10 25 19 11 7 7 8 4 3 4 5 6 9 1 2 4 3 2 3 4 6 3 6 9 18 29 23 19
18 18 19 17 15 10 7 3 4 5 7 6 3 2 3 6 4 4 7 12 10 5 2 8 3 5 7 3 7 1 4 8 5 3 3 4 4 5 1 5 4 13 24 22 15
19 17 20 18 12 4 4 3 4 4 4 5 3 4 3 4 4 4 5 6 7 5 5 4 4 4 5 4 2 5 6 3 4 4 6 3 2 7 6 7 13 20 26 20 12
20 19 18 19 12 8 4 4 4 5 7 5 4 5 2 4 1 4 5 3 1 5 4 6 8 6 4 8 7 3 7 6 4 3 5 2 4 4 3 6 18 33 35 20 3
21 19 17 11 10 12 5 3 8 7 3 6 5 6 6 4 1 2 5 7 9 9 8 6 7 4 5 3 7 3 3 3 7 3 3 3 5 6 3 4 13 19 17 17 8
21 18 9 6 10 18 4 6 4 5 3 4 2 2 4 6 5 4 3 3 2 9 6 5 3 4 4 3 4 4 5 3 3 4 4 4 3 5 8 12 14 14 26 13 9
17 8 6 8 16 13 4 7 6 9 7 2 2 4 3 4 1 2 1 3 3 1 7 6 6 6 2 2 6 2 1 6 5 4 6 3 6 7 14 16 15 18 27 14 16
7 2 3 22 4 1 3 6 3 6 4 5 2 5 4 3 4 1 1 1 11 2 5 4 5 5 11 2 2 3 4 6 5 4 1 4 6 3 6 11 19 25 25 17 19
13 3 12 5 3 2 4 4 5 3 5 3 5 7 4 4 2 3 1 3 9 4 2 4 1 1 8 6 2 4 4 5 5 3 6 6 6 1 3 10 26 26 21 14 20
5 2 3 8 3 2 1 4 4 7 9 7 7 3 2 2 2 1 4 3 11 5 5 5 3 4 7 6 4 3 3 4 6 4 5 5 6 7 7 10 18 32 29 15 15
3 2 1 2 4 2 2 3 5 3 4 8 3 7 6 5 2 1 1 5 4 12 3 4 2 1 3 4 2 2 4 4 3 5 5 4 7 9 9 13 17 19 21 18 16
2 4 5 4 5 0 3 3 5 5 6 4 4 7 7 6 8 7 3 2 2 5 4 3 2 1 3 7 6 1 3 4 2 3 2 1 5 7 10 11 21 29 24 14 16
4 4 4 4 4 2 3 3 5 4 8 11 3 4 5 5 5 1 6 1 2 1 2 3 2 3 3 3 4 4 3 3 2 2 5 3 6 6 5 8 21 28 30 27 21

GFSSW_850_spd_063.txt.gz
Wind_Speed
10 10 11 11 11 12 12 13 14 14 13 13 13 13 13 12 11 11 12 9 8 8 5 7 7 4 6 3 3 3 3 4 5 4 5 5 10 5 5 8 7 7 4 4 19
12 12 11 12 12 12 12 13 14 15 15 14 14 15 14 14 10 7 8 9 10 9 9 6 7 6 3 3 3 3 2 3 5 8 6 6 13 11 8 9 7 8 7 9 18
13 13 13 13 13 13 13 13 14 15 16 15 15 16 15 14 3 1 3 12 12 9 7 5 3 4 4 4 5 4 4 8 12 16 11 11 11 11 10 10 14 17 16 18 20
15 15 15 14 15 15 14 14 14 15 15 15 15 15 16 10 1 1 4 10 13 13 10 7 6 3 3 4 5 4 12 14 10 20 8 4 4 8 18 11 11 15 16 21 21
16 17 17 17 16 16 16 16 16 16 15 15 14 15 16 9 4 1 3 7 11 12 10 9 9 4 4 4 3 8 7 8 14 11 5 5 9 5 11 10 8 15 23 21 19
18 18 19 19 19 18 17 17 17 16 16 15 14 14 13 6 4 2 3 5 6 8 7 9 4 6 5 5 3 4 15 19 5 3 3 1 5 3 2 12 13 18 25 21 19
18 19 20 20 20 20 18 18 18 18 16 15 14 14 15 15 7 6 5 5 4 2 3 2 2 5 2 5 4 6 9 12 6 6 4 6 6 5 2 11 17 19 22 20 18
20 19 20 20 21 21 19 18 19 18 17 15 14 12 10 9 9 12 10 9 9 7 6 7 7 6 4 5 3 3 2 5 5 9 4 4 11 10 9 14 17 18 20 20 19
21 21 20 20 21 21 19 18 17 17 16 13 11 7 9 6 8 9 11 13 10 8 6 7 6 3 3 2 4 3 7 5 5 7 1 3 12 8 8 14 15 18 18 19 20
20 21 21 20 20 20 17 17 14 13 11 10 11 6 11 3 6 7 6 10 10 8 3 3 3 3 2 3 9 3 5 5 10 3 9 12 14 14 0 10 13 14 11 15 21
21 21 20 20 19 18 16 9 6 6 7 8 3 7 7 6 8 6 7 7 9 6 5 1 5 5 7 4 2 3 5 10 16 7 6 5 10 11 7 5 11 16 15 15 13
20 21 21 19 18 15 10 3 7 6 10 11 19 27 29 26 10 11 11 9 8 7 5 3 6 7 2 5 4 4 8 14 14 5 6 3 6 8 10 3 10 16 19 20 18
21 21 20 18 16 10 5 3 5 9 5 10 14 19 17 17 15 23 15 11 5 7 8 10 6 5 5 5 7 9 9 12 11 4 2 5 4 2 5 5 5 15 19 22 23
20 21 20 17 10 7 2 2 8 3 3 5 5 6 8 11 8 25 23 13 4 12 7 7 5 8 7 7 6 10 6 12 9 4 4 2 4 1 2 3 5 12 19 23 27
19 21 19 15 14 7 4 5 6 3 3 2 3 2 5 9 1 8 22 17 13 9 7 5 6 8 8 5 8 6 2 4 3 4 2 3 4 0 5 7 8 12 15 23 28
19 20 21 17 12 7 7 6 5 3 8 3 2 3 3 8 4 2 9 10 9 7 4 6 3 4 6 4 9 2 2 2 2 1 5 2 4 4 5 4 6 11 18 19 18
20 19 20 18 11 6 5 2 4 5 2 1 1 3 2 3 6 7 9 12 13 8 13 11 10 4 6 6 4 3 3 2 4 4 6 2 4 5 5 7 11 12 17 14 9
22 20 18 17 12 7 6 3 7 5 7 3 3 7 3 1 4 6 7 9 4 4 4 11 9 10 9 12 7 7 4 3 5 4 5 2 3 4 5 7 10 16 14 14 8
22 19 15 9 10 13 7 9 6 6 1 4 4 4 2 1 2 3 8 7 11 10 8 6 5 2 5 3 6 6 5 2 5 1 4 2 4 11 8 9 8 13 15 18 14
22 19 7 6 10 18 4 9 4 3 3 1 3 1 2 4 2 1 6 2 3 10 3 7 6 3 2 5 4 4 8 3 1 4 6 3 4 6 7 10 10 13 20 18 13
19 9 7 4 14 9 7 5 6 8 4 3 1 3 2 3 4 2 2 2 2 3 6 7 7 4 3 7 8 4 4 3 1 2 5 4 4 6 10 7 13 16 20 14 12
7 3 3 18 3 1 4 5 2 7 3 4 2 4 5 5 4 2 1 1 3 4 6 5 4 9 14 2 2 2 4 6 5 5 1 3 4 3 7 7 13 18 15 13 11
14 5 9 2 3 3 2 3 4 6 5 3 4 7 4 4 3 3 2 2 7 2 3 7 3 6 4 4 3 5 5 4 4 1 7 4 3 2 5 8 12 17 12 12 13
5 2 2 8 3 2 0 2 3 4 10 8 9 7 4 5 4 3 1 1 4 3 3 4 2 3 6 2 1 5 7 8 5 4 6 6 3 4 4 9 10 13 13 12 13
3 2 2 2 4 5 2 2 9 6 4 4 4 12 10 6 5 4 3 2 2 3 3 0 2 3 1 3 3 3 10 12 8 3 5 7 7 8 13 10 12 8 11 12 13
3 5 6 4 4 3 4 3 4 5 5 4 8 5 13 6 6 7 4 2 1 2 2 1 1 1 1 1 2 1 2 3 5 2 3 4 2 11 14 12 12 6 11 18 20
5 6 4 4 3 2 2 1 4 6 8 14 8 6 10 16 7 2 2 3 2 2 2 2 1 1 3 6 2 4 2 2 4 6 4 1 5 14 14 16 17 15 10 15 20

GFSSW_850_spd_066.txt.gz
Wind_Speed
12 12 11 11 11 11 11 11 12 12 12 11 11 12 11 11 12 12 10 9 10 9 6 8 7 5 6 5 5 5 5 7 12 12 11 5 4 4 2 6 7 5 3 9 18
12 13 13 13 12 12 12 12 13 12 13 13 12 11 12 12 10 8 8 10 11 11 10 10 9 8 3 4 3 8 6 10 10 10 14 10 6 6 6 8 9 9 6 15 19
13 14 14 14 14 14 13 13 14 13 13 14 14 13 12 12 3 1 5 8 12 12 11 8 7 6 7 5 2 4 9 15 14 13 16 14 7 9 12 8 10 12 15 19 19
15 15 15 16 16 16 16 15 15 15 15 14 14 14 12 7 2 2 4 7 12 15 12 8 7 6 8 6 2 9 14 13 17 17 13 8 6 5 12 6 6 9 17 21 20
16 16 16 16 17 17 17 17 17 16 16 15 15 15 12 7 5 4 2 11 12 12 14 10 9 9 11 7 8 11 13 16 18 17 9 7 5 5 5 4 4 12 19 20 18
16 18 18 18 18 18 18 18 18 17 16 16 15 15 9 10 7 4 7 11 12 14 11 11 8 9 11 11 9 11 17 21 13 8 1 8 4 2 5 6 8 13 19 18 17
17 17 18 19 19 19 18 18 19 18 16 16 14 14 11 12 7 6 8 8 10 10 9 8 6 8 5 10 7 11 14 17 3 5 7 8 10 2 3 8 11 14 18 16 15
18 18 18 19 20 20 18 19 18 18 17 15 14 12 9 11 8 12 11 11 10 10 9 5 6 8 10 8 11 11 15 15 8 3 3 10 10 8 3 6 9 13 18 15 14
19 19 19 19 20 20 18 18 18 17 15 14 10 6 9 8 9 11 14 10 12 10 8 6 5 9 7 13 15 14 14 15 11 1 10 6 14 5 2 5 10 14 18 18 18
22 20 19 19 20 19 17 17 15 14 14 11 12 6 12 4 6 7 12 13 11 11 7 9 9 10 11 11 14 16 13 12 10 3 12 14 11 6 2 5 10 14 17 21 22
21 22 20 18 18 18 15 11 9 5 6 13 2 9 1 3 7 9 10 12 12 16 15 13 11 13 14 10 9 9 11 18 15 14 10 14 9 5 5 6 10 16 18 21 23
22 22 21 19 16 13 9 4 2 5 11 14 19 23 22 12 7 12 12 13 14 17 17 8 16 13 5 7 10 11 14 16 15 7 9 13 6 3 3 3 9 15 18 21 20
21 22 21 18 15 7 5 4 5 8 8 11 15 18 17 15 18 20 19 18 15 16 16 18 10 3 9 13 13 15 15 13 15 8 12 11 11 9 5 4 6 13 17 18 19
21 21 21 17 8 10 2 5 7 4 6 9 9 9 10 13 10 23 23 20 14 16 16 13 16 12 15 14 13 15 8 6 12 11 15 10 8 9 6 6 6 10 13 14 17
21 21 19 17 13 5 6 7 9 2 6 5 11 5 8 16 0 12 22 24 20 17 10 15 10 11 17 18 11 12 3 8 12 12 17 11 8 4 6 9 9 10 10 12 14
20 21 20 18 14 7 7 6 2 7 11 4 5 10 12 16 12 5 11 18 22 22 15 20 5 8 11 9 10 6 10 11 9 12 11 16 7 12 6 6 1 7 11 11 12
19 19 20 18 6 9 6 3 6 11 3 8 6 9 9 12 15 15 14 17 15 16 17 18 18 15 11 14 12 9 12 10 9 10 12 7 6 9 10 2 4 4 8 10 11
21 20 18 16 12 9 4 8 12 10 19 4 4 8 11 7 12 16 18 19 23 22 16 20 18 20 16 21 15 17 16 11 9 11 9 7 7 5 4 4 4 6 8 12 11
23 19 14 10 9 12 10 13 11 14 4 8 10 10 10 7 5 9 18 19 19 21 20 14 16 5 8 17 18 15 11 13 11 9 9 13 3 10 14 12 8 9 13 15 16
23 17 6 7 8 11 10 18 13 2 8 5 11 3 8 5 8 8 13 10 12 15 22 11 10 10 10 9 7 13 6 10 10 15 12 10 4 9 7 6 7 11 15 17 18
17 8 6 7 8 11 11 16 16 9 7 5 3 5 6 2 6 6 6 6 6 9 13 15 11 9 10 13 14 9 13 10 12 5 9 11 8 4 7 4 4 10 14 17 17
6 5 8 12 8 9 12 10 5 12 16 11 7 8 8 8 7 5 6 3 2 7 10 16 11 14 13 5 4 6 9 15 11 14 11 9 10 7 6 3 1 4 13 15 12
11 6 4 2 5 8 11 10 12 12 12 10 12 7 9 9 5 5 2 3 4 5 6 8 9 12 15 8 7 11 13 12 11 7 11 10 8 6 4 5 5 2 8 10 7
5 3 4 8 7 6 4 10 12 10 14 17 16 14 12 11 11 7 5 4 0 2 1 6 4 12 12 11 8 18 15 14 14 11 13 12 14 13 10 10 12 0 8 9 9
3 1 3 1 9 9 8 9 10 9 9 7 10 18 16 15 14 13 12 6 6 4 3 2 5 5 6 3 5 7 13 16 17 18 10 10 8 10 9 10 11 9 1 8 10
5 4 6 12 7 8 5 8 11 9 9 10 12 10 14 17 15 11 12 7 4 4 2 1 1 4 8 4 4 8 7 9 13 6 9 5 9 9 7 10 13 13 8 2 8
5 5 5 5 5 5 3 5 7 8 8 15 11 9 11 13 20 6 6 3 2 1 1 2 2 5 8 2 6 9 5 7 6 3 5 10 7 7 7 10 13 15 14 10 5

GFSSW_850_spd_069.txt.gz
Wind_Speed
12 11 11 12 12 13 13 13 13 12 12 13 12 12 13 13 13 12 9 12 10 10 7 5 7 6 7 11 9 15 14 9 10 8 10 9 6 6 3 11 3 3 7 17 18
13 14 14 13 13 13 14 14 14 14 13 13 13 13 13 12 13 13 13 12 14 11 9 11 7 7 12 8 6 12 12 10 10 10 10 8 1 1 3 11 7 7 10 18 20
14 14 14 15 15 14 15 15 15 15 15 14 14 14 13 13 12 5 8 9 14 12 12 10 7 9 16 10 8 10 11 11 9 11 12 10 6 4 5 6 14 13 14 19 19
15 16 16 16 16 16 16 16 16 16 16 15 15 15 13 11 5 3 5 8 13 15 13 13 11 14 17 13 4 10 15 13 11 11 10 10 11 3 3 6 6 10 17 20 18
16 17 17 18 18 18 18 17 17 16 16 16 16 16 13 9 12 9 7 7 15 16 16 15 15 15 17 16 12 13 14 16 17 10 8 10 5 7 3 3 4 12 18 20 17
18 18 18 19 19 19 19 18 19 18 16 16 16 16 11 16 3 9 7 7 15 14 14 15 14 12 17 19 16 18 16 22 22 5 3 10 12 4 6 5 9 14 18 19 19
18 19 19 20 21 20 19 20 20 18 17 16 15 14 12 18 5 8 10 10 13 13 13 13 15 15 18 15 19 15 17 18 18 6 9 11 17 12 6 6 11 14 18 19 19
19 20 20 20 21 22 21 20 20 19 17 16 14 12 14 8 9 13 15 14 14 12 13 9 11 16 20 19 24 18 19 17 18 3 10 6 10 10 4 8 10 13 18 20 18
20 20 21 22 22 21 20 21 21 18 17 14 11 7 19 12 13 17 18 17 15 13 14 11 11 17 18 14 17 17 16 17 21 11 6 12 12 6 4 7 10 13 18 19 18
21 21 21 20 22 22 20 18 19 17 16 13 13 9 23 12 12 15 20 20 16 16 16 15 17 15 14 13 15 16 19 18 14 9 7 12 15 5 3 8 11 14 17 20 19
22 21 21 21 19 19 18 12 13 5 12 18 8 16 2 10 9 12 17 19 18 19 17 22 15 16 17 16 13 15 14 17 15 12 13 15 15 14 1 9 10 14 17 18 19
23 22 21 19 18 14 10 9 5 8 13 19 25 26 21 9 8 17 19 21 20 19 20 18 17 16 16 9 10 13 15 16 15 15 15 15 17 10 4 7 8 14 16 17 19
23 23 21 18 15 8 10 5 5 11 10 24 27 29 27 25 26 20 22 25 19 20 18 18 18 5 10 10 15 16 17 15 15 13 12 15 16 16 11 7 7 11 13 17 19
22 22 21 16 6 9 4 5 7 8 7 19 24 27 25 23 26 29 26 26 22 21 18 18 17 18 12 13 16 17 16 16 11 10 12 16 15 18 14 12 9 8 11 14 18
22 22 18 18 13 6 7 9 9 4 7 9 27 16 23 27 23 28 30 27 25 20 16 17 15 13 15 17 18 17 14 8 12 13 16 19 11 10 11 11 12 11 7 8 17
21 21 20 11 12 11 10 9 6 8 12 11 7 13 18 24 27 9 23 32 26 24 20 21 22 11 14 13 15 13 9 14 17 14 14 17 17 12 12 15 4 11 5 9 14
21 20 21 15 5 8 10 5 8 11 13 24 13 15 22 24 26 23 18 21 20 19 23 25 21 17 15 13 11 14 14 12 13 12 12 11 13 9 10 7 2 4 9 11 15
23 20 19 12 8 8 6 10 17 15 23 9 9 15 19 22 21 30 25 22 26 27 18 21 22 22 19 20 17 17 17 13 13 11 10 12 9 10 4 4 3 4 7 12 16
24 12 13 9 8 8 12 13 17 15 20 10 18 13 19 21 11 18 22 26 27 26 25 22 24 22 26 23 20 20 18 17 19 17 10 10 4 12 12 7 8 10 11 15 17
26 13 10 8 5 7 11 17 19 24 7 8 14 18 18 21 16 21 16 21 23 24 25 23 26 19 12 11 20 22 16 13 12 16 16 12 9 7 9 7 9 8 15 18 19
15 9 3 5 6 13 11 16 19 31 6 13 18 18 17 15 9 14 19 20 12 21 19 21 20 19 11 12 17 12 16 15 17 14 13 13 11 8 4 4 4 8 14 17 20
9 6 1 2 10 14 13 18 21 17 14 14 15 16 17 15 9 18 15 8 3 13 13 19 14 12 17 19 19 21 19 20 13 17 13 12 13 5 3 10 4 7 12 16 16
8 15 6 5 8 10 12 14 14 13 16 18 16 18 17 15 13 17 17 11 3 10 6 14 13 13 17 17 13 10 18 10 19 15 16 10 7 9 12 10 7 3 12 13 11
8 4 9 9 16 10 13 8 13 18 16 21 18 17 17 16 14 12 12 3 1 7 12 6 10 14 16 18 14 22 19 17 16 12 13 15 16 13 9 9 9 6 12 12 10
6 3 6 3 7 9 8 13 13 12 12 15 11 19 18 17 17 16 15 18 9 5 5 7 12 13 18 18 15 20 21 22 21 17 16 5 12 12 13 10 13 11 8 9 11
9 7 11 17 14 9 6 7 16 13 14 14 13 16 16 18 18 16 17 13 13 13 11 7 9 11 12 16 12 17 11 12 16 20 17 21 11 3 9 10 17 15 11 6 4
7 11 11 13 11 9 5 8 11 13 16 16 18 9 13 8 13 22 22 14 4 9 3 5 8 7 15 17 15 15 14 14 14 11 8 4 14 10 9 13 14 12 11 9 6

GFSSW_850_spd_072.txt.gz
Wind_Speed
13 13 13 14 14 14 14 14 15 15 14 14 15 18 18 17 15 16 13 14 11 10 8 8 7 11 15 21 18 14 10 13 12 9 11 9 3 7 2 13 10 7 12 21 20
14 14 14 15 15 15 15 15 15 15 15 15 15 16 17 19 19 18 14 16 15 17 12 10 9 10 15 21 17 11 8 11 7 8 9 12 3 5 2 20 4 16 21 20 21
15 15 16 16 16 16 17 17 17 16 16 16 16 15 17 18 19 12 11 13 14 16 13 12 13 12 16 22 18 10 12 12 13 9 11 13 5 10 2 8 22 21 21 21 20
17 17 17 17 18 17 17 17 18 18 17 16 16 16 15 15 7 1 5 9 12 14 15 16 16 17 17 19 23 6 15 12 16 15 7 12 9 7 6 9 16 25 22 22 20
17 18 19 19 19 19 19 19 18 18 18 17 17 17 14 9 19 12 8 10 13 15 16 18 19 19 16 17 22 17 13 17 14 22 6 7 8 13 6 9 5 23 22 22 19
19 20 20 21 21 21 21 21 20 18 17 17 17 16 14 17 8 13 12 10 9 16 16 17 19 19 22 19 19 21 23 17 19 26 14 5 14 3 11 5 11 20 20 21 19
19 20 21 22 22 23 22 21 21 20 18 17 16 16 14 23 8 9 10 9 11 13 15 16 17 20 21 18 26 25 18 17 21 25 10 8 13 1 11 4 10 16 16 19 18
21 21 21 21 22 23 23 23 22 21 19 17 15 13 13 16 13 17 12 13 13 13 14 15 11 17 21 22 24 22 22 15 18 20 6 8 14 8 16 10 9 12 16 18 18
21 21 22 24 24 24 23 21 21 21 19 17 15 12 21 11 19 17 18 18 15 15 15 15 13 17 20 17 16 17 16 20 21 18 5 6 13 10 4 13 11 12 13 17 18
23 23 22 23 23 24 23 20 18 18 18 15 16 11 23 24 19 17 21 21 20 15 16 17 16 13 15 14 13 18 16 17 16 13 14 10 13 11 9 6 9 15 14 18 20
23 23 24 22 22 20 21 16 12 6 6 17 14 15 26 8 11 16 21 21 22 21 18 21 14 15 20 19 20 19 17 18 17 16 11 10 13 12 20 7 8 17 18 18 20
23 24 23 21 19 14 11 9 6 9 15 22 27 32 31 23 16 21 18 26 25 21 21 19 19 21 20 19 18 13 13 16 16 16 13 15 17 15 19 4 10 12 21 19 21
25 25 24 20 15 7 12 12 9 11 12 29 31 34 33 30 27 22 23 26 22 22 20 21 21 22 23 17 17 13 16 17 17 16 14 14 14 16 19 9 8 10 18 22 22
25 26 23 23 8 7 11 6 10 12 8 18 26 38 38 37 32 34 30 29 24 25 24 20 22 21 17 13 13 16 18 19 16 16 11 14 13 15 18 15 14 14 12 22 21
24 25 22 20 18 11 11 15 13 8 7 12 20 32 39 41 37 29 34 33 26 25 22 22 22 20 17 19 13 16 17 16 14 11 15 17 11 14 13 16 15 15 17 13 24
24 24 24 13 18 9 14 14 10 7 13 13 23 10 25 32 32 37 31 37 35 27 25 25 27 21 17 18 16 16 17 18 12 13 14 18 16 15 11 10 7 14 9 10 20
23 23 23 19 11 9 11 10 7 10 8 20 22 20 17 20 23 26 28 28 25 23 22 27 26 24 23 11 14 13 15 11 12 13 13 20 17 11 8 18 12 20 21 14 13
28 25 17 16 8 7 9 9 14 12 21 18 25 22 22 19 23 24 27 24 25 27 19 21 22 26 23 20 16 16 14 12 15 14 12 11 7 9 7 6 16 11 19 15 15
28 22 15 13 6 6 9 11 14 15 21 21 19 21 22 18 16 23 28 27 26 26 23 20 28 20 27 26 21 20 17 17 18 19 14 12 6 7 9 11 7 18 17 14 16
30 21 13 7 6 6 9 15 20 25 24 22 18 18 17 18 18 21 20 19 31 31 24 24 22 26 25 23 25 24 16 15 12 16 16 15 14 4 10 11 10 16 17 17 19
18 11 6 4 4 10 10 16 18 24 27 20 15 17 20 20 19 15 15 19 19 26 23 25 21 23 20 24 17 16 15 16 18 13 13 12 10 6 5 6 9 12 19 22 20
8 6 5 3 9 12 12 17 23 22 25 17 11 16 21 22 14 17 8 15 34 23 24 22 16 17 24 21 22 16 20 19 11 14 13 12 10 14 9 8 9 7 21 25 22
8 17 13 6 8 11 17 17 15 16 17 14 17 17 17 20 19 17 17 12 23 20 13 12 8 9 20 16 12 18 20 19 18 14 18 13 9 12 18 14 9 14 17 23 23
8 5 9 9 16 16 14 15 15 11 14 18 17 21 19 17 20 17 18 20 18 11 18 11 10 14 13 17 17 11 22 18 17 11 15 17 5 14 15 21 20 6 18 16 14
6 5 14 6 7 9 15 15 12 16 14 15 11 17 18 18 18 19 20 18 17 6 6 6 10 15 15 18 14 13 13 19 19 18 15 13 13 10 14 18 20 10 13 14 11
8 18 18 21 19 16 12 12 11 14 15 17 14 11 17 16 18 20 19 18 14 7 14 15 10 12 18 19 18 14 19 23 25 22 20 16 10 14 15 18 12 10 8 7 10
11 13 13 14 17 14 7 11 10 11 12 25 15 15 14 18 17 18 27 24 19 5 2 7 9 8 15 4 24 7 17 17 9 14 6 5 16 17 14 12 17 12 9 12 10

GFSSW_850_spd_075.txt.gz
Wind_Speed
15 15 15 15 15 16 16 16 17 16 17 17 18 19 18 20 19 19 19 12 11 12 12 13 16 15 13 23 26 27 5 6 8 7 8 12 6 14 23 23 10 2 20 29 26
16 17 17 17 17 16 16 17 17 17 17 17 18 18 20 21 24 22 14 9 9 13 17 16 15 16 14 23 22 8 3 11 9 4 3 15 5 22 8 17 5 26 30 28 28
17 18 18 18 19 19 19 18 17 17 17 18 18 18 18 20 22 7 6 6 11 12 15 13 13 20 24 25 30 20 5 9 18 9 7 7 16 14 22 3 22 31 33 30 28
17 18 19 20 21 20 20 20 20 19 17 17 18 18 17 16 4 5 8 6 9 12 12 15 16 20 14 9 30 10 20 10 18 19 20 2 7 6 10 13 34 33 34 33 28
19 19 19 20 20 21 22 22 20 20 20 18 17 17 16 11 20 18 13 12 12 13 14 16 17 19 12 15 21 9 15 22 23 23 26 16 5 8 13 23 32 35 34 31 27
20 20 21 21 21 21 21 22 22 21 20 20 18 17 14 12 12 13 16 19 16 13 13 13 13 18 25 19 10 21 26 28 29 27 28 19 7 6 8 30 33 37 34 28 25
20 20 21 23 23 23 23 21 21 22 20 19 18 17 17 29 7 9 16 12 11 10 9 12 14 19 22 11 22 24 14 19 15 22 18 27 4 6 13 30 36 36 34 27 28
21 22 22 22 23 24 25 23 21 20 20 18 18 16 16 25 15 18 21 15 10 11 12 14 18 17 12 15 19 11 10 8 18 19 28 7 7 6 21 24 31 34 35 31 31
24 24 24 23 23 24 23 22 21 20 19 17 16 11 14 13 18 22 19 20 16 12 15 18 15 16 11 6 7 8 11 15 20 22 20 7 5 4 16 27 27 32 33 34 33
26 26 25 24 24 24 22 19 17 18 17 15 15 8 20 23 21 18 22 22 20 18 22 21 16 4 5 3 8 11 7 10 15 19 8 7 8 9 11 27 25 30 35 36 39
27 27 27 25 24 22 21 15 23 6 8 10 12 12 24 27 26 27 23 24 23 25 11 20 5 8 12 14 17 17 17 12 8 9 7 8 3 5 9 6 18 27 35 37 40
27 27 27 24 22 14 12 13 16 16 16 24 26 34 32 33 35 30 20 28 21 14 11 7 11 15 17 19 19 18 12 7 9 11 7 9 9 7 6 10 11 29 31 38 39
29 30 29 26 17 8 14 17 14 18 15 27 35 33 35 30 34 35 27 25 11 14 14 15 15 19 20 20 20 11 6 6 9 14 10 6 7 6 9 8 15 36 39 38 44
27 28 28 29 9 12 11 13 14 20 5 7 10 18 28 38 27 35 35 27 15 18 18 14 21 22 21 18 21 7 6 8 11 8 5 4 5 8 9 11 8 20 33 35 43
25 26 26 24 23 18 13 12 17 13 5 9 12 21 24 24 39 27 36 33 17 15 11 18 22 18 15 15 10 8 8 10 11 8 4 7 2 9 6 10 9 10 31 37 47
26 26 29 22 23 8 11 15 10 1 7 8 19 23 19 26 29 35 31 37 35 19 15 22 30 19 15 17 11 7 5 7 6 3 5 9 5 13 10 11 5 9 21 34 43
27 26 26 26 14 14 12 11 2 4 8 10 10 18 22 12 24 23 25 22 15 13 18 18 21 22 22 16 10 5 3 2 5 4 10 8 5 17 5 11 13 18 30 38 43
30 27 22 18 5 4 5 3 5 9 11 14 22 23 18 16 8 18 18 17 20 18 8 17 18 20 23 17 9 7 7 6 8 6 10 5 8 18 14 7 28 33 34 38 42
30 26 21 1 2 6 5 3 4 6 11 18 24 20 22 20 15 9 9 12 19 22 18 14 18 18 23 22 15 8 8 8 3 6 3 6 11 7 16 16 13 21 30 32 40
31 24 9 5 9 4 3 5 8 19 22 19 19 20 18 17 15 15 8 13 13 13 14 18 11 13 16 16 20 12 9 6 2 4 7 7 6 5 5 10 18 14 22 31 37
22 11 4 5 4 5 3 6 15 25 25 17 18 19 17 17 16 16 7 13 14 14 20 12 7 11 17 20 12 5 10 4 6 6 6 4 6 6 4 10 13 14 24 32 32
6 4 8 5 6 6 7 7 15 20 23 18 15 12 8 11 13 15 18 10 20 17 16 6 5 13 19 22 15 12 12 16 6 8 4 5 6 9 6 6 5 26 31 25 33
11 9 12 10 3 6 12 15 23 11 11 12 12 13 13 10 10 11 17 23 17 16 6 6 4 5 2 9 14 9 9 7 6 5 11 5 5 4 9 10 21 15 21 35 36
6 4 5 13 14 9 12 14 16 25 15 16 9 11 11 12 13 9 15 17 12 26 21 13 6 2 4 7 6 7 6 9 5 4 9 7 6 6 7 9 19 29 34 49 29
2 4 13 4 11 17 15 14 13 17 18 18 10 10 9 9 9 10 16 17 15 25 8 5 6 10 10 9 10 12 12 21 15 7 7 9 9 6 5 8 25 39 36 6 23
5 9 15 17 18 15 14 10 16 14 4 8 10 18 15 9 8 13 13 8 8 15 9 2 3 7 7 10 11 12 10 10 9 13 14 7 9 3 7 16 22 33 31 10 24
9 9 11 11 10 9 6 5 17 17 3 7 12 12 15 13 16 25 22 19 12 8 4 3 2 5 5 7 8 6 17 13 13 19 6 5 5 5 13 17 19 21 23 21 14

GFSSW_850_spd_078.txt.gz
Wind_Speed
17 17 17 18 18 17 17 17 16 16 16 17 17 17 18 18 18 17 20 15 12 9 11 11 13 14 11 20 19 15 1 8 6 7 3 17 6 11 7 22 8 16 32 39 32
17 18 19 19 19 19 19 18 18 18 17 17 17 18 20 22 23 16 5 5 7 8 10 14 17 13 10 23 10 4 4 7 7 6 6 17 16 17 6 10 13 26 33 45 33
18 17 18 19 20 20 20 20 19 19 19 19 18 17 19 20 20 1 6 1 3 6 12 16 15 12 9 18 2 2 3 9 22 11 7 5 17 26 15 2 19 39 44 45 34
18 19 19 19 20 20 21 21 20 20 20 20 20 19 17 16 4 3 10 9 6 9 12 16 11 4 3 6 11 8 17 11 16 29 21 7 6 7 18 14 32 43 47 41 37
19 19 20 21 21 20 20 20 21 20 20 20 19 19 18 12 22 17 12 8 10 13 14 14 12 8 4 7 16 3 9 21 30 34 30 19 13 2 17 23 37 43 42 39 35
20 21 22 23 23 23 22 21 20 21 20 20 18 17 15 12 10 7 9 12 16 15 14 13 9 9 11 9 4 12 16 22 26 29 26 7 13 5 7 40 42 43 42 37 37
20 21 21 22 23 25 25 22 20 20 21 20 19 17 17 30 11 13 12 14 12 12 10 12 15 14 8 8 12 15 9 14 18 17 13 11 12 6 33 42 43 39 41 39 40
24 24 23 23 24 25 25 23 21 21 21 20 19 18 15 29 22 24 26 26 15 12 8 9 10 17 16 12 12 7 3 5 11 12 25 4 11 7 38 40 37 38 40 41 42
25 26 26 25 25 27 27 22 17 19 20 19 16 11 14 18 18 19 23 27 19 14 11 10 16 19 7 3 6 6 8 8 17 17 7 5 14 8 36 39 36 37 38 38 41
27 29 28 27 24 26 26 20 13 11 12 6 6 6 17 17 13 14 16 26 24 15 18 16 8 3 2 5 7 7 7 6 10 16 9 9 8 6 30 35 35 36 36 34 42
27 28 28 26 23 23 22 17 22 4 26 18 26 21 30 23 30 30 17 20 22 19 6 15 1 7 13 9 12 7 8 14 20 19 6 7 6 11 13 29 28 32 34 34 41
28 29 30 27 23 15 12 15 18 21 16 29 30 33 37 35 26 34 23 11 16 14 5 1 9 18 12 12 12 12 13 17 16 15 3 9 10 9 6 11 28 32 32 34 34
27 29 30 28 19 8 15 11 14 20 7 24 28 24 28 28 36 39 29 18 10 11 13 12 19 10 10 15 13 14 8 14 14 6 4 2 9 6 7 4 24 35 44 45 48
26 28 28 30 9 20 8 12 12 15 5 7 4 6 6 6 8 41 45 21 6 17 18 11 18 14 16 13 13 13 19 16 9 1 5 5 6 8 8 9 6 25 36 41 45
26 28 27 25 28 23 13 13 9 2 4 6 6 3 24 8 11 19 36 26 12 9 8 15 14 14 14 21 14 15 20 21 11 3 2 6 2 8 5 7 6 12 35 41 50
26 26 29 24 24 7 11 11 6 5 6 5 5 12 21 25 8 19 13 20 20 11 9 10 20 15 16 19 14 11 6 3 5 4 4 5 4 14 5 9 6 14 31 42 44
26 25 25 26 16 14 12 9 5 3 6 5 11 16 19 8 13 7 7 9 6 5 8 6 9 11 14 11 16 4 5 4 3 3 8 6 2 13 8 10 15 13 33 42 47
27 27 22 16 4 2 2 5 2 4 7 12 12 19 3 10 12 15 3 7 6 5 5 9 15 10 20 10 13 7 8 6 7 4 9 3 6 11 14 21 30 29 46 44 42
30 23 9 11 7 7 4 4 6 4 4 8 16 5 6 19 7 9 8 4 6 4 9 11 10 16 16 21 9 13 4 9 5 1 2 4 8 10 8 7 5 19 32 38 39
28 21 7 7 6 6 5 5 5 5 8 9 5 5 14 16 9 7 6 7 10 5 3 4 4 7 18 9 20 8 8 2 2 3 8 5 4 6 7 1 8 7 21 27 31
21 10 4 4 7 3 2 6 7 20 18 5 13 9 11 7 4 6 5 9 10 8 5 1 4 7 7 6 17 4 4 5 3 4 7 3 7 6 8 10 12 17 25 35 38
8 3 12 12 1 0 2 4 8 23 38 16 7 8 4 2 5 6 5 3 23 6 5 2 3 3 10 16 10 2 5 6 8 10 1 5 7 5 4 5 6 14 14 19 29
15 6 7 8 1 3 7 7 14 8 7 7 4 6 3 2 3 3 7 14 20 8 3 4 2 5 10 7 9 6 9 6 4 4 16 10 8 6 4 15 19 20 24 21 18
6 4 5 4 3 3 5 7 10 17 10 6 3 10 8 7 2 4 6 6 20 10 21 5 0 4 4 12 9 4 2 2 6 4 7 8 6 5 5 13 15 22 25 27 26
3 2 6 4 5 8 3 5 8 8 12 10 8 5 3 6 7 8 6 10 18 13 3 1 4 2 8 11 7 2 6 9 8 11 2 6 2 3 1 7 8 31 34 33 24
4 5 8 11 12 8 3 6 16 8 7 8 6 11 6 1 1 11 10 6 6 8 4 3 4 3 3 9 7 11 11 11 15 9 6 6 10 15 7 13 9 7 19 16 9
3 6 4 7 6 4 2 10 14 18 12 18 4 4 8 5 18 26 23 22 14 5 5 1 2 0 5 6 8 7 8 16 13 11 1 6 6 8 16 11 13 19 17 13 19

GFSSW_850_spd_081.txt.gz
Wind_Speed
18 18 18 17 17 17 17 17 17 17 18 18 17 18 19 19 18 19 20 12 9 8 7 7 6 4 8 10 13 6 2 4 4 3 8 2 4 12 12 21 14 15 11 10 32
18 19 20 20 19 19 18 18 18 18 18 18 18 19 21 21 22 17 4 3 5 7 6 6 8 7 6 5 7 6 4 6 6 3 6 7 8 19 6 15 1 14 10 27 31
17 18 19 20 21 21 21 20 19 19 19 19 18 18 19 21 20 3 5 5 3 5 8 9 11 9 7 6 5 5 4 4 13 15 6 8 16 9 16 4 15 31 32 34 34
18 19 20 20 20 21 22 22 21 20 20 20 19 18 18 17 5 6 4 6 5 8 10 11 8 4 3 4 3 4 10 8 9 26 3 4 6 6 23 8 26 32 37 38 35
20 20 20 21 22 22 21 22 23 22 21 20 19 18 17 11 20 17 20 15 10 10 14 14 11 7 4 3 3 4 5 14 19 26 27 11 9 11 23 10 27 35 38 39 34
20 22 22 23 24 24 23 22 22 22 22 21 19 18 15 10 9 9 8 7 11 13 16 17 11 8 7 6 3 5 12 16 19 22 13 10 7 14 9 23 38 38 41 38 35
22 23 24 24 24 25 24 24 23 22 21 21 20 18 17 33 15 23 26 21 16 12 16 16 17 11 1 5 2 5 6 7 10 7 4 14 13 4 15 39 41 38 42 40 36
25 26 27 27 28 27 25 24 23 21 20 19 19 17 15 26 24 25 28 27 23 25 18 13 7 10 6 8 5 3 3 3 5 8 5 9 10 19 16 37 37 37 37 41 39
27 28 29 28 29 28 26 22 18 14 13 12 11 10 13 14 14 14 8 14 16 18 17 15 10 8 9 1 5 6 5 4 10 5 1 3 13 13 20 35 34 35 35 37 39
25 26 27 27 27 28 22 16 13 3 12 5 3 5 15 14 10 14 18 13 13 19 16 15 9 2 3 3 7 5 4 4 4 6 6 11 16 8 22 29 34 34 34 35 41
26 28 28 28 28 23 18 9 15 4 21 13 23 27 36 22 30 30 22 21 13 9 6 8 4 7 14 8 4 3 4 9 9 14 1 14 12 5 18 21 20 29 32 33 37
26 27 28 27 26 12 17 9 12 12 18 33 33 32 35 35 22 33 17 7 7 8 5 3 8 9 5 5 7 5 6 11 11 15 6 11 11 7 12 23 31 33 31 32 29
27 28 30 27 21 12 13 12 12 16 6 20 11 8 13 7 15 34 22 12 5 6 9 16 10 7 5 7 6 5 6 15 9 17 4 5 8 6 2 13 26 29 39 34 42
25 26 27 27 8 20 4 10 10 10 4 8 7 3 14 5 7 18 25 24 7 9 9 12 9 11 8 10 7 9 12 12 11 5 9 4 7 7 7 4 10 31 32 35 39
24 26 24 26 23 20 9 11 8 1 4 3 7 4 23 5 17 9 22 16 14 9 6 8 9 7 11 17 8 14 7 9 11 8 1 5 2 7 2 9 7 11 31 36 45
23 24 27 24 21 9 10 11 3 5 5 7 7 11 14 6 8 12 9 12 13 8 4 7 8 5 12 16 9 7 3 3 4 3 3 8 7 5 4 8 7 12 33 39 39
25 23 25 22 16 11 7 6 5 3 5 7 6 11 8 6 9 6 8 2 6 5 5 3 7 6 8 6 3 4 5 7 5 3 8 7 3 8 7 9 13 11 29 39 45
23 21 15 11 5 2 1 5 2 3 5 5 6 10 4 8 12 10 10 8 4 5 3 6 12 7 6 9 10 7 9 6 5 7 10 5 6 7 9 12 21 28 30 41 41
21 12 5 8 5 4 2 4 6 5 4 8 9 4 5 8 2 8 6 3 5 2 4 5 5 8 5 8 8 5 5 9 4 1 2 5 8 8 6 10 8 14 24 37 41
22 8 5 3 4 2 4 3 3 3 7 2 3 3 4 10 9 8 6 4 8 13 2 3 2 2 5 2 3 7 5 2 1 3 4 5 5 6 8 9 8 4 8 26 32
16 4 0 6 3 3 3 5 5 10 11 3 7 5 7 4 4 4 5 7 7 10 7 5 3 6 1 4 8 3 2 4 3 4 5 2 7 6 8 6 10 8 13 25 36
6 2 3 10 3 2 1 4 7 12 17 8 4 4 4 4 4 2 4 4 16 8 5 3 2 2 9 8 6 7 6 6 5 7 3 4 7 5 6 10 9 9 13 15 17
11 4 4 8 0 3 6 5 5 4 6 5 3 1 2 3 4 3 6 10 15 6 2 4 3 3 9 7 5 3 6 7 5 5 7 4 7 3 11 13 6 13 21 21 22
5 3 2 2 3 3 4 5 5 13 7 9 3 4 3 4 2 5 8 6 24 10 10 4 2 5 5 8 6 5 7 5 5 4 4 4 6 14 16 12 19 28 9 14 21
5 2 3 3 3 3 2 3 6 6 5 7 5 4 1 4 7 5 4 8 15 9 9 3 2 4 7 10 5 1 12 5 5 5 5 3 3 13 10 9 14 25 27 22 20
3 4 5 5 8 5 3 3 3 7 4 6 3 9 2 2 5 6 3 4 6 8 7 3 4 2 3 7 5 3 15 9 7 8 11 8 8 10 11 22 25 25 26 27 22
2 2 3 4 4 2 1 4 5 11 7 6 5 4 5 3 12 23 25 20 13 2 4 2 2 4 5 14 4 3 5 9 4 5 3 3 3 4 13 17 24 28 28 21 18

GFSSW_850_spd_084.txt.gz
Wind_Speed
19 19 19 18 18 17 17 18 18 18 17 18 18 18 19 19 18 18 19 15 10 10 12 10 10 9 9 8 10 5 3 2 4 4 9 8 1 5 6 8 9 9 7 14 28
19 20 20 21 21 20 19 18 18 19 19 18 18 18 20 21 22 18 2 4 6 8 8 9 10 11 6 6 6 5 4 9 6 4 7 11 6 12 5 5 7 9 6 19 31
18 19 20 21 22 22 22 22 20 19 19 19 19 19 20 20 21 4 5 5 4 6 7 6 6 7 7 8 8 7 5 4 6 10 10 7 3 11 11 6 15 18 18 32 33
19 19 20 21 21 22 22 22 23 22 20 19 18 18 18 17 5 2 4 6 6 10 10 9 8 5 4 6 10 4 10 10 7 3 4 5 2 7 19 22 17 21 22 32 35
21 22 22 23 22 23 22 21 21 23 23 20 18 17 16 10 19 16 14 14 11 9 11 11 9 5 5 5 4 5 5 6 15 21 6 7 6 7 21 26 12 23 29 31 33
21 23 23 25 25 25 24 23 23 22 22 22 19 18 15 8 9 6 4 4 7 9 11 13 11 9 8 7 7 7 8 11 10 15 5 6 8 13 10 22 20 26 33 31 31
24 25 26 26 27 26 25 24 22 22 20 19 17 18 21 28 14 21 26 24 20 15 15 11 8 12 2 5 7 7 5 7 6 3 4 4 3 3 10 16 26 32 36 34 32
27 27 28 28 29 28 26 22 20 19 17 15 14 14 16 19 21 23 21 23 16 14 24 19 12 8 9 6 6 5 3 4 6 4 2 5 7 5 5 20 24 28 36 37 36
28 27 27 27 27 26 22 18 17 16 13 11 7 6 12 7 6 2 1 14 10 10 17 14 6 7 4 4 4 4 5 4 7 5 1 3 7 5 13 20 22 26 29 35 38
26 26 26 27 27 25 20 16 13 11 10 6 3 4 8 7 9 15 20 14 8 13 7 11 8 4 3 3 6 4 3 4 5 5 6 3 8 8 17 21 25 25 27 30 37
27 28 26 27 25 19 22 12 11 1 21 11 18 19 28 25 25 31 18 19 18 7 4 6 4 6 11 9 5 3 4 7 4 5 4 4 7 14 11 15 17 24 30 31 38
26 27 27 26 23 11 11 9 11 11 13 16 7 13 13 13 11 12 2 3 5 6 3 2 5 9 10 6 5 4 6 7 6 3 2 12 12 13 6 13 27 29 28 33 28
26 25 27 25 17 12 7 11 12 16 4 10 9 7 10 11 6 7 6 6 6 4 6 10 6 11 5 4 4 5 4 6 9 4 5 6 8 6 5 10 19 24 38 29 36
25 25 27 24 7 15 1 10 14 8 4 7 7 4 16 13 6 18 13 10 3 10 7 6 8 9 6 5 8 7 6 8 6 3 5 2 5 9 5 7 8 23 25 35 38
23 24 23 23 19 13 5 10 9 2 4 10 6 8 24 1 11 11 25 6 9 8 7 9 7 7 10 15 9 10 7 9 6 4 1 3 2 8 4 5 9 11 30 40 45
22 23 24 21 15 6 7 7 1 5 3 7 6 8 11 4 5 11 8 5 4 4 4 7 6 8 9 8 9 4 3 4 4 3 2 7 6 4 5 9 6 7 31 39 38
21 19 19 15 9 5 4 2 5 3 5 7 6 10 4 5 8 6 7 8 2 4 3 4 7 3 4 3 2 4 6 3 3 2 6 3 2 8 9 11 10 11 22 29 38
19 14 6 10 5 3 2 4 4 1 3 5 5 9 4 7 5 7 8 7 3 1 2 4 7 8 4 9 9 7 9 6 5 4 6 2 4 8 11 13 18 22 26 30 37
17 5 7 10 9 5 2 4 4 3 3 7 9 4 5 3 0 7 5 3 3 4 3 2 6 4 6 6 9 5 4 7 2 4 3 4 7 9 10 11 8 15 18 24 33
15 4 5 5 8 8 5 2 2 4 4 1 2 1 3 5 6 5 4 3 9 5 4 5 4 3 2 3 2 6 6 3 3 2 4 7 5 8 12 11 17 18 23 19 15
9 2 5 1 5 5 3 4 4 11 5 5 4 3 6 4 3 4 4 8 5 11 4 3 1 7 1 4 6 1 1 2 5 5 5 8 7 6 7 8 13 18 29 20 14
5 2 3 3 5 3 1 3 5 7 3 4 3 5 4 3 4 3 4 4 20 13 8 3 2 3 6 5 4 5 8 7 6 6 4 5 11 6 8 7 13 17 24 10 3
8 2 3 2 2 3 5 4 3 4 4 4 2 2 2 3 4 1 4 11 14 10 5 6 3 5 9 5 3 2 3 5 4 3 8 6 8 7 9 10 15 17 24 20 13
5 2 2 3 5 3 3 3 5 10 5 4 3 4 4 2 2 5 5 6 24 11 11 3 2 5 4 6 4 8 8 4 4 5 6 7 6 10 11 8 10 18 27 29 28
5 1 2 2 3 3 0 2 4 6 6 7 4 2 4 3 5 3 4 6 13 3 4 3 3 3 6 5 9 5 11 17 5 4 7 6 7 2 4 8 8 18 22 25 25
3 2 2 1 3 2 2 2 2 4 3 4 2 9 4 4 6 6 4 4 8 7 5 2 3 1 4 5 3 3 9 16 9 5 5 10 7 4 6 11 16 20 20 24 27
1 1 2 2 1 1 3 1 3 6 6 9 6 4 6 6 13 26 25 23 12 4 4 3 4 2 5 6 5 6 4 8 6 4 5 2 5 7 11 13 13 14 19 24 21

GFSSW_850_spd_087.txt.gz
Wind_Speed
19 19 19 19 18 18 17 17 18 17 17 17 16 16 16 16 19 20 20 12 7 14 15 14 16 13 12 7 6 3 3 4 2 3 9 11 7 2 4 12 9 13 6 4 21
19 19 20 20 21 20 20 19 19 19 19 18 17 17 18 17 19 18 4 3 5 9 16 16 17 15 6 5 6 6 4 4 3 5 6 14 10 5 7 10 9 11 11 11 24
18 19 19 20 21 21 21 21 21 20 20 20 19 18 18 18 16 3 9 11 4 9 9 11 7 12 5 6 8 7 6 8 8 12 7 9 12 6 8 10 17 21 19 23 28
19 20 20 21 22 22 21 22 21 21 21 20 20 19 18 16 5 5 3 10 7 5 9 11 8 6 5 6 10 7 15 14 7 6 5 6 6 6 14 21 5 14 18 26 31
21 22 22 22 23 23 22 21 21 21 20 19 19 19 17 8 11 13 13 4 5 12 14 13 11 6 7 4 7 13 14 10 14 7 11 11 12 9 13 15 10 11 21 26 29
24 24 24 24 24 24 23 21 21 20 19 19 16 15 14 8 8 7 5 3 3 3 9 13 9 10 8 7 6 6 13 15 14 13 11 10 11 5 7 8 12 16 24 27 30
26 26 26 25 26 25 24 21 20 18 16 15 12 13 15 21 13 11 13 18 19 16 15 15 9 8 2 4 5 7 9 13 15 15 10 9 7 9 5 6 10 17 23 28 30
29 29 29 27 27 25 21 19 18 17 14 13 10 10 8 10 12 14 16 12 4 8 16 16 10 8 7 6 3 4 2 10 6 4 5 4 17 11 4 4 13 16 21 26 30
29 27 26 23 23 22 17 15 15 13 12 11 8 5 7 4 5 4 5 5 9 4 5 4 8 6 5 7 6 4 11 8 8 4 3 4 13 6 10 15 18 17 21 24 24
25 25 24 24 23 20 17 15 10 7 4 4 3 4 3 11 19 19 16 21 4 7 2 8 6 6 4 8 10 9 5 3 5 5 12 17 15 16 19 19 19 16 20 25 30
24 26 24 24 23 15 18 10 8 2 7 3 9 7 11 21 10 8 8 8 10 2 5 8 7 12 17 18 14 6 7 8 9 10 9 9 14 21 20 13 14 14 20 25 31
23 26 23 21 18 12 10 8 10 7 8 5 4 6 11 15 7 7 4 5 5 8 5 5 14 12 14 13 13 12 11 11 9 5 6 16 17 14 8 8 12 13 19 25 24
23 24 23 20 7 14 5 9 13 13 3 7 6 5 10 14 6 6 3 2 6 5 10 15 9 12 13 15 12 13 12 14 9 9 7 9 10 7 16 15 13 15 17 20 27
22 22 23 22 5 14 3 9 14 6 2 7 4 5 11 14 5 13 6 4 3 8 11 10 10 13 14 17 14 17 13 14 10 9 11 2 11 13 9 9 9 15 15 21 25
20 22 20 18 15 7 4 8 8 2 0 10 5 7 18 2 10 7 15 2 7 6 4 6 8 13 17 19 17 15 14 13 14 12 6 8 6 7 7 9 11 12 18 22 25
20 19 20 17 9 2 4 5 1 2 1 4 5 8 11 3 3 10 5 3 3 3 5 13 4 6 14 12 16 5 7 2 1 5 9 10 7 5 5 5 8 11 16 23 24
18 16 13 10 5 3 2 1 1 1 2 7 6 9 6 5 6 7 7 7 9 7 8 8 7 10 14 13 6 10 7 5 6 6 11 7 6 6 11 12 12 14 15 17 25
17 9 6 9 6 4 2 1 1 1 3 2 5 7 3 8 4 8 8 8 3 9 8 5 6 5 12 20 16 13 12 7 9 7 9 6 8 4 8 12 11 11 14 17 20
14 1 5 8 7 5 1 2 2 1 2 7 5 4 5 3 4 7 6 4 5 10 7 5 6 10 10 11 15 6 7 13 11 1 6 5 5 11 7 13 17 18 19 21 22
13 1 4 4 8 4 2 2 1 3 3 1 2 1 4 7 7 7 5 3 9 8 10 2 7 5 5 3 6 10 8 4 4 8 11 9 12 11 17 13 16 19 23 24 20
7 1 3 2 6 4 3 1 3 5 5 4 1 2 2 3 4 4 4 8 11 15 11 6 2 9 7 3 6 4 5 4 2 4 7 12 13 6 9 6 10 13 18 18 13
4 1 3 2 2 2 2 1 4 3 2 2 2 3 2 2 4 3 4 4 16 16 11 4 4 6 15 14 7 6 5 6 7 7 7 8 14 1 4 4 5 9 12 11 7
7 3 4 2 2 2 2 2 3 4 3 3 2 1 1 2 4 4 4 11 14 14 7 7 2 7 11 1 1 4 6 8 7 2 15 12 5 4 3 5 8 9 12 10 9
5 1 3 4 5 2 1 1 3 4 4 4 3 3 3 3 3 5 6 7 20 16 21 4 4 6 7 9 5 12 11 5 3 5 12 18 12 3 6 7 6 10 13 16 18
5 2 1 1 3 1 1 1 2 3 1 4 2 3 4 4 6 5 9 13 17 16 5 5 8 4 10 12 9 14 16 7 6 3 4 16 15 4 2 5 8 10 11 15 20
2 0 1 0 2 2 1 3 2 2 3 1 1 10 7 6 8 14 16 13 10 10 6 5 5 10 15 10 7 12 6 9 5 10 6 4 3 3 2 9 8 8 10 12 12
1 1 1 0 0 2 1 2 3 3 5 9 5 8 11 7 13 26 28 28 20 15 9 5 4 5 12 9 11 9 3 3 1 7 7 11 3 7 7 7 5 7 8 12 15

GFSSW_850_spd_090.txt.gz
Wind_Speed
18 18 18 18 18 18 18 17 17 17 16 16 15 14 15 15 16 18 16 11 9 11 11 15 12 10 11 8 9 6 7 8 4 6 9 14 16 7 3 6 9 7 1 7 24
20 20 20 21 20 20 19 19 19 19 19 18 17 16 15 16 17 14 4 4 6 10 16 17 13 12 10 8 6 12 10 13 7 9 11 13 14 9 4 6 9 10 7 16 25
20 21 21 22 22 22 21 21 20 19 19 19 18 18 16 14 13 5 5 7 4 11 14 13 11 12 11 9 11 11 15 16 13 11 14 15 16 5 6 7 11 15 15 22 25
22 23 23 23 23 23 22 22 22 21 19 17 17 17 14 10 5 5 5 5 2 9 13 14 14 14 10 10 10 14 21 20 22 15 17 14 19 15 13 13 3 11 20 25 27
24 24 24 24 24 22 22 22 21 20 19 17 16 15 11 7 11 11 12 9 10 13 13 12 11 12 13 10 9 14 19 20 19 17 15 18 20 19 21 16 4 10 22 27 26
25 25 25 24 23 22 22 21 19 17 17 15 14 11 6 12 8 8 3 8 7 10 12 15 12 12 15 15 13 17 15 18 18 17 18 17 21 14 19 6 6 13 19 24 26
26 27 26 26 25 23 22 21 18 15 13 12 10 8 7 12 7 5 6 7 7 10 12 13 13 12 5 11 11 14 14 15 17 21 17 17 16 18 21 4 6 10 14 20 25
27 27 26 25 24 22 18 16 17 15 12 10 8 3 6 7 8 9 10 13 8 11 14 15 12 16 14 13 13 13 11 13 8 4 10 7 16 14 8 7 10 11 14 20 25
25 24 24 21 22 20 14 14 14 10 7 6 4 1 0 4 2 2 4 9 5 5 5 6 13 18 14 14 15 14 15 18 9 4 8 8 13 11 7 14 19 13 17 21 25
23 22 23 20 21 15 14 12 7 3 3 3 2 3 1 7 10 12 13 11 6 6 4 10 12 12 14 15 16 18 17 12 11 6 11 16 18 14 17 18 20 16 16 21 27
22 22 22 20 21 15 15 7 5 1 4 4 6 4 6 14 4 4 3 9 10 12 13 14 12 17 21 18 22 21 18 17 13 16 11 18 13 15 18 14 14 12 13 20 24
22 22 21 19 14 14 12 6 7 4 5 3 3 5 8 8 4 3 4 5 11 15 14 10 16 18 17 17 19 20 19 20 19 16 8 14 18 15 16 13 12 10 13 17 21
22 22 20 17 4 12 6 7 9 5 5 1 2 3 7 5 6 4 1 3 8 10 12 18 19 4 12 18 21 20 21 20 20 16 14 17 18 18 9 13 9 10 9 14 21
21 21 18 15 5 9 1 8 10 1 4 4 1 1 7 8 3 2 3 5 5 10 10 11 12 16 18 21 19 23 20 18 20 18 15 6 13 15 13 11 13 11 12 15 19
21 20 17 15 9 3 5 8 5 1 4 4 2 5 11 5 9 5 5 4 8 10 6 14 6 11 16 20 19 23 20 19 16 18 18 20 11 12 10 13 13 12 12 10 15
20 21 16 10 4 1 4 6 1 5 2 1 3 6 7 1 0 7 3 2 3 7 7 12 15 13 18 16 17 17 15 18 14 14 16 18 18 13 13 9 8 9 5 7 8
20 16 9 8 2 3 2 1 5 4 4 3 4 6 3 5 1 7 5 6 8 9 9 13 10 12 12 17 14 14 15 13 14 14 16 18 19 10 10 3 6 7 8 10 11
17 7 7 7 6 4 1 5 5 2 2 1 4 3 2 8 2 7 5 3 8 14 12 9 11 7 9 12 18 16 18 14 18 14 15 9 11 12 9 1 3 5 9 10 10
14 2 5 7 7 4 5 6 3 1 2 5 4 1 2 3 4 5 4 4 7 11 12 10 10 20 8 11 12 16 10 17 19 18 14 15 12 10 9 15 8 9 10 13 15
14 2 3 4 8 3 6 3 1 2 3 3 3 3 4 6 6 6 3 7 8 11 15 7 12 15 10 15 12 13 12 14 12 18 19 14 17 11 10 15 12 13 13 16 16
8 4 5 4 5 6 5 2 2 1 3 3 1 2 2 5 7 7 4 6 12 13 16 13 8 13 16 9 15 10 10 14 17 10 9 14 13 11 8 11 10 12 12 14 15
4 4 5 2 6 2 2 1 1 1 2 2 4 4 4 4 7 6 5 7 15 14 18 10 7 12 17 18 6 3 2 13 10 12 12 14 15 6 4 2 5 8 10 10 10
7 4 4 1 4 3 3 2 3 3 1 2 3 3 1 6 5 4 7 12 13 16 11 12 9 13 15 9 3 1 8 10 11 18 19 14 16 7 3 3 7 10 9 10 8
5 3 2 1 1 5 3 3 4 2 5 3 6 6 6 9 6 7 13 8 15 19 14 7 12 14 13 20 16 12 12 10 2 8 16 18 17 7 6 7 7 7 11 13 12
3 2 2 1 3 3 4 2 5 4 4 5 6 7 6 10 11 14 11 14 15 13 10 8 13 14 19 17 18 18 16 16 11 14 8 17 28 9 5 6 5 4 5 9 12
4 4 2 3 3 6 4 4 6 4 5 5 9 4 8 9 12 14 16 17 19 16 13 14 12 15 18 20 21 18 16 15 14 10 12 13 19 4 7 1 7 11 10 9 8
3 3 3 3 4 5 4 4 3 2 6 10 7 9 11 10 12 21 26 27 23 19 17 14 10 11 15 16 16 14 10 4 6 7 8 10 16 1 4 5 10 12 11 11 12

GFSSW_850_spd_093.txt.gz
Wind_Speed
19 19 19 19 19 19 19 18 17 17 17 17 15 15 16 16 18 19 11 13 13 10 10 12 14 13 11 16 15 15 12 15 11 1 10 12 13 9 4 2 1 3 5 18 24
22 22 22 22 22 21 21 20 20 19 18 17 16 15 16 17 17 19 16 17 13 10 15 17 17 15 17 14 17 12 13 22 17 9 11 12 9 6 5 3 6 5 6 21 25
23 24 24 24 24 24 23 22 21 20 19 17 15 14 14 13 18 4 5 2 5 6 12 12 10 14 18 19 17 18 16 19 21 23 20 16 15 15 15 8 3 12 12 20 25
24 24 24 24 24 23 23 22 21 20 19 17 15 13 11 6 6 1 8 2 3 14 11 14 13 16 18 16 19 18 21 23 23 25 18 16 21 16 17 18 11 3 20 24 26
24 24 24 24 23 22 21 20 20 19 17 15 12 11 8 8 13 11 11 11 7 12 14 15 15 15 17 15 17 15 16 23 22 22 20 21 17 19 20 19 12 3 19 23 25
23 24 23 21 21 19 20 19 18 16 15 11 9 8 7 15 3 3 7 11 11 14 16 17 17 16 19 21 18 20 21 23 25 25 23 20 20 24 20 19 3 3 13 19 22
22 23 22 23 23 22 22 20 18 15 11 8 6 5 9 12 4 4 7 8 11 13 15 15 17 20 18 17 17 16 19 20 21 23 20 17 16 16 26 24 18 11 13 18 22
23 24 23 25 24 21 18 17 16 13 9 6 4 3 7 4 6 9 11 14 14 14 17 16 16 19 22 24 23 21 22 19 17 16 8 9 16 15 19 13 13 14 14 17 23
25 24 23 23 22 20 14 14 11 6 3 2 2 3 4 3 3 4 7 14 15 14 15 16 16 22 22 19 18 20 21 23 20 17 4 15 18 12 12 14 14 19 20 18 22
24 24 23 21 21 15 13 7 6 6 3 2 2 7 4 4 8 10 12 11 11 13 12 13 19 16 17 15 18 21 19 21 21 10 13 15 17 19 15 15 22 21 22 21 23
24 22 20 19 19 13 12 6 4 2 6 7 3 4 2 4 1 2 4 12 14 14 15 19 12 17 22 20 23 24 23 26 25 23 14 19 23 18 16 18 22 21 23 20 22
23 22 19 16 11 10 13 6 6 5 6 2 2 3 3 2 6 3 1 7 14 14 16 16 18 16 18 21 23 22 25 25 24 22 22 24 19 22 18 17 24 21 17 18 22
24 24 19 16 6 12 6 5 6 6 7 10 3 5 1 3 4 2 4 4 11 13 13 15 16 14 9 14 19 20 23 24 26 23 24 24 21 19 23 28 17 25 17 19 21
23 24 21 12 5 8 2 7 9 4 5 9 8 4 4 5 5 3 4 7 9 11 11 12 13 11 15 20 17 21 21 22 23 21 16 20 19 21 12 14 14 22 21 19 18
23 22 18 13 7 5 5 8 7 3 5 4 5 2 6 7 8 8 3 8 12 12 9 14 14 14 14 17 16 20 20 21 23 21 21 21 14 18 13 18 13 13 25 19 23
21 20 12 10 6 6 8 9 4 7 2 6 2 3 7 11 4 8 8 9 6 10 13 12 12 14 13 14 18 16 18 18 21 18 19 19 20 19 17 16 15 15 15 9 10
19 14 8 6 4 9 8 5 6 6 3 3 1 5 5 3 4 4 5 6 5 10 12 14 7 6 7 12 14 16 15 13 15 15 16 20 21 19 16 14 5 5 8 8 2
18 10 5 5 6 8 5 8 6 7 1 2 5 8 4 5 4 6 7 10 7 8 13 10 12 14 16 15 14 14 17 13 21 17 16 15 16 16 20 7 9 0 5 5 6
15 8 4 5 7 5 10 7 5 3 4 6 9 8 2 4 5 5 3 6 5 8 8 13 12 18 20 10 15 16 13 18 23 22 18 18 6 15 5 7 7 14 4 2 11
16 5 7 7 6 5 8 10 3 4 7 7 10 1 5 4 7 3 3 7 5 11 11 16 18 17 17 18 15 17 16 15 10 18 19 12 19 11 12 18 16 15 5 9 12
9 7 2 5 5 10 9 7 1 2 6 6 3 6 4 5 6 7 3 6 7 10 15 16 13 15 18 18 17 10 13 1 22 9 11 14 10 14 16 21 17 20 14 9 11
7 5 2 2 10 5 7 1 3 9 6 8 6 9 7 6 8 8 5 4 13 12 15 13 14 15 22 21 16 14 12 19 10 7 8 14 11 25 30 12 6 3 7 10 9
8 13 5 4 6 6 5 9 6 7 7 4 5 4 6 8 5 7 7 7 10 11 11 11 9 14 14 16 12 13 8 11 22 12 20 7 10 13 25 34 11 10 9 8 6
7 4 7 7 9 9 7 10 7 6 11 9 10 9 10 10 10 8 10 12 8 13 12 9 14 14 14 22 22 12 15 22 14 13 9 17 12 16 11 27 5 3 3 9 12
5 2 6 5 2 6 5 10 10 7 10 6 9 12 12 9 12 13 13 11 13 8 13 13 14 16 18 22 23 23 21 20 19 9 8 14 8 10 13 15 20 6 4 10 14
7 6 2 14 9 11 7 11 11 12 5 13 10 13 5 11 12 14 14 13 16 16 15 14 17 18 17 22 22 24 22 24 17 19 12 14 16 14 7 8 4 5 2 8 18
5 8 8 8 10 8 10 7 7 6 11 13 14 11 11 10 15 18 21 24 22 18 16 14 12 13 18 18 19 17 14 14 9 11 14 10 12 15 12 2 7 10 13 15 14

GFSSW_850_spd_096.txt.gz
Wind_Speed
21 21 21 21 21 21 20 19 19 18 17 17 16 16 18 19 18 20 17 12 14 13 12 9 12 12 14 19 19 21 14 15 6 15 18 14 8 12 3 10 6 8 10 26 26
24 24 24 23 23 23 22 21 21 20 19 16 15 15 16 17 20 24 19 17 19 17 14 14 13 13 18 20 18 16 15 22 20 22 17 22 16 15 12 7 12 16 21 27 26
24 23 23 23 23 23 23 21 21 20 19 16 14 13 14 14 18 13 11 13 12 10 11 14 11 12 17 19 21 23 17 21 26 29 25 21 21 19 15 14 6 26 27 28 27
24 23 23 23 22 22 21 20 20 19 18 15 13 11 10 7 5 2 6 4 2 7 12 14 15 16 16 17 22 19 22 23 23 27 26 20 22 22 16 18 17 20 30 29 29
23 23 22 22 21 21 20 20 19 17 15 13 11 9 7 8 19 11 8 9 6 8 11 14 17 18 16 16 22 19 19 23 21 25 25 26 20 19 20 19 21 14 25 26 26
23 23 22 21 21 21 21 19 17 15 12 10 7 6 7 15 3 5 6 13 12 13 13 15 17 18 22 21 19 25 26 25 26 27 28 23 22 25 22 23 20 14 25 23 23
23 23 22 22 23 23 22 20 18 14 10 6 5 5 10 18 4 6 8 9 13 15 17 16 17 19 22 21 24 26 23 19 21 27 25 28 18 16 19 14 21 19 20 22 25
25 25 24 24 24 23 20 18 17 12 6 3 4 5 8 1 10 8 9 10 9 13 14 14 15 19 21 22 25 22 25 21 22 24 23 15 15 12 15 18 18 21 20 21 27
26 26 25 24 23 22 16 14 8 5 2 2 2 3 10 3 3 5 9 12 14 17 18 16 16 22 21 18 18 18 19 23 23 21 17 12 11 14 22 14 14 18 11 15 26
26 25 24 23 21 17 14 4 4 6 1 2 3 7 10 4 6 7 10 10 12 10 14 16 15 14 16 14 16 19 19 22 22 22 24 21 14 12 13 22 15 16 19 23 21
25 23 22 21 18 14 15 9 5 1 7 13 7 11 2 5 5 4 2 7 11 11 13 17 14 15 19 19 22 23 23 24 23 23 22 24 22 17 17 19 24 20 25 23 22
26 22 20 19 12 9 14 9 7 8 11 8 6 7 5 4 7 7 1 6 10 11 14 14 16 19 21 18 19 20 23 24 24 22 22 22 24 21 21 17 26 22 23 23 27
26 24 21 16 8 12 7 8 9 10 8 11 10 9 4 5 8 4 3 9 8 13 15 17 17 17 16 16 19 20 20 20 24 22 22 22 24 20 23 18 27 32 29 28 21
26 25 22 13 4 8 2 9 10 8 5 9 8 5 7 10 9 4 5 6 10 12 14 12 15 13 14 16 17 20 20 21 21 20 19 20 17 16 18 19 20 11 16 27 23
25 24 17 12 7 7 10 11 11 4 4 3 7 3 4 7 10 8 4 9 11 13 11 15 15 14 15 16 17 19 21 21 21 21 23 22 14 15 15 16 14 13 22 28 21
22 21 13 10 9 9 12 12 7 5 2 6 1 2 9 15 9 6 12 12 13 9 16 16 16 16 16 8 12 17 19 19 19 17 16 21 19 17 16 15 18 16 19 3 18
20 17 11 8 2 12 12 7 6 6 3 3 3 5 9 9 8 3 8 10 10 6 12 16 14 7 5 10 14 17 18 12 15 13 15 18 17 14 16 17 9 5 21 11 5
20 14 9 7 7 10 8 9 6 1 1 6 8 9 11 9 9 3 10 12 6 2 10 9 12 16 18 16 20 14 16 11 18 16 18 21 12 11 16 18 7 4 12 11 2
22 11 8 7 5 5 10 7 5 10 6 9 12 10 6 7 4 6 9 8 8 8 8 11 15 21 18 17 19 16 14 18 17 19 18 16 20 8 25 11 17 18 25 7 4
24 10 9 5 5 6 8 11 11 6 7 9 12 1 12 5 5 3 4 7 4 8 10 14 19 18 16 19 16 18 13 14 8 10 11 14 19 7 22 23 22 27 31 21 33
14 10 5 3 5 10 9 12 4 3 6 7 11 8 10 7 6 10 6 8 10 9 12 16 12 16 18 16 19 12 10 7 6 3 7 5 9 10 14 14 21 20 34 37 21
9 6 2 4 10 11 10 7 5 9 5 6 6 9 11 11 8 11 12 5 13 12 12 11 9 13 20 20 15 9 5 3 5 9 12 8 13 12 15 15 14 21 31 48 38
9 18 10 3 7 8 6 4 7 9 9 7 7 5 8 8 7 9 10 13 8 9 9 8 9 14 13 17 7 17 15 5 8 10 13 4 7 21 12 11 17 18 2 42 13
8 5 10 8 12 11 13 12 11 8 7 13 11 13 11 11 12 11 12 11 11 4 5 6 11 15 14 18 19 19 22 20 14 5 13 12 16 7 17 7 5 15 20 22 2
6 5 8 7 9 12 13 13 14 15 11 6 7 11 13 12 12 11 14 14 13 2 10 9 14 16 20 23 23 23 25 23 20 20 19 17 3 4 11 11 5 11 7 15 8
8 9 16 18 19 14 11 14 15 16 13 13 11 15 12 11 8 14 14 12 12 15 15 14 15 18 21 21 23 24 24 24 23 18 23 10 12 7 9 21 5 9 2 12 9
9 10 12 12 15 12 11 14 13 9 8 14 13 14 14 11 13 14 20 23 20 18 16 16 13 14 19 20 21 18 17 17 25 10 21 13 14 13 11 9 11 9 11 4 5

GFSSW_850_spd_099.txt.gz
Wind_Speed
23 22 21 21 21 21 20 20 19 18 17 16 16 17 17 17 18 21 22 16 11 11 16 16 12 10 7 18 19 21 6 8 9 11 8 39 11 32 12 18 13 15 29 36 37
23 23 22 21 22 22 21 20 19 18 17 16 15 15 16 17 19 24 20 17 15 16 18 17 11 6 13 17 16 7 4 10 13 12 10 20 25 28 16 13 18 24 32 42 39
23 23 22 22 22 22 21 20 19 18 16 15 14 13 12 14 17 9 7 8 13 16 14 10 12 16 18 20 22 17 10 15 15 19 24 13 17 28 13 7 28 37 42 43 42
23 22 22 22 22 22 21 20 19 18 16 14 12 10 9 9 3 3 3 1 5 8 10 11 17 21 10 9 25 10 19 18 15 19 17 8 20 13 21 10 4 32 48 45 44
24 23 22 22 22 22 21 20 19 16 14 12 9 7 7 7 15 9 8 6 6 5 10 9 16 18 9 11 19 11 13 26 30 31 27 28 14 19 20 20 19 38 44 43 40
24 23 23 23 23 23 22 20 18 14 12 10 6 5 5 6 3 7 6 13 12 10 9 10 14 17 23 17 10 21 21 24 28 27 25 18 18 19 28 23 8 39 43 41 40
25 24 24 24 24 23 22 19 17 13 10 6 4 5 8 13 2 6 6 6 8 12 11 13 16 21 23 10 19 24 15 17 19 25 22 31 19 14 19 12 18 35 41 43 44
26 24 24 24 24 23 19 17 14 8 4 2 3 4 7 3 9 10 9 12 7 6 17 12 16 17 16 21 19 13 9 8 19 19 29 16 16 13 8 9 12 12 38 40 44
27 26 25 24 22 20 17 14 6 6 3 2 2 4 9 2 6 4 8 11 8 14 13 13 14 17 17 7 7 7 11 15 20 17 14 7 8 8 10 12 18 14 25 39 44
28 27 25 24 21 17 16 8 7 5 2 2 3 6 5 4 3 7 8 11 10 11 20 19 18 4 5 3 8 9 9 12 16 17 17 16 12 9 14 14 6 8 19 30 40
28 27 26 22 16 15 18 7 7 2 9 10 19 12 14 3 8 6 3 4 9 10 4 14 4 8 15 15 18 17 14 11 15 15 10 12 11 12 13 12 9 19 15 21 20
29 27 25 20 10 12 16 10 9 9 13 15 18 17 12 6 7 11 4 7 10 8 10 6 9 17 17 19 18 13 12 13 11 9 9 11 12 14 9 9 19 17 20 21 26
29 27 25 17 7 12 8 11 11 12 5 13 13 12 7 6 10 11 6 8 6 7 10 9 11 10 10 9 7 6 8 8 12 9 8 9 7 9 13 21 27 24 26 29 28
28 27 24 17 5 12 7 13 12 8 3 4 7 4 8 8 8 3 4 3 4 7 10 7 9 11 10 9 8 6 8 13 16 13 3 8 16 7 10 12 10 22 33 33 38
26 26 20 16 8 4 14 15 13 5 4 7 6 8 4 5 8 8 8 4 9 9 5 8 11 10 9 11 8 6 9 10 12 10 6 10 4 11 9 12 12 11 18 22 30
25 24 21 14 7 12 17 15 8 1 3 3 6 6 8 17 12 9 9 14 10 6 10 9 16 10 8 7 4 7 8 9 8 5 2 11 6 9 7 11 16 13 25 17 16
25 22 19 11 6 9 12 13 2 3 2 5 4 4 9 9 2 5 1 4 6 4 6 10 8 17 18 11 11 11 8 5 5 5 5 13 5 4 18 16 19 18 29 46 29
27 24 12 6 10 8 11 3 3 9 12 5 9 11 8 1 3 1 3 9 6 7 6 4 8 17 17 12 6 7 5 2 6 4 7 9 9 3 8 17 27 35 38 25 40
28 21 10 2 8 10 9 2 3 7 10 10 11 8 9 6 3 3 7 5 5 7 4 4 6 16 20 14 6 7 6 9 6 6 6 2 5 5 18 20 20 20 32 39 17
30 21 7 4 2 4 2 5 4 6 9 8 5 6 6 8 4 8 6 4 5 10 10 6 8 8 16 17 13 5 2 6 5 5 4 5 5 3 11 13 12 13 10 14 28
24 12 4 2 3 6 3 6 15 9 8 6 8 7 12 9 8 6 6 7 9 8 8 5 5 8 9 6 15 12 4 4 2 2 3 3 3 6 2 3 6 9 12 6 12
12 4 4 1 4 6 5 6 4 4 13 3 4 6 6 9 7 7 9 5 6 5 4 3 2 5 15 22 19 5 2 3 3 7 3 4 5 8 4 3 7 10 17 12 11
17 10 8 9 3 4 9 13 9 4 6 4 7 7 10 6 5 6 8 18 12 4 5 1 2 6 9 9 18 12 11 9 2 1 6 4 6 4 7 8 9 13 20 11 16
7 4 6 9 14 7 7 7 10 19 5 3 6 10 7 8 9 6 12 8 19 9 8 4 1 2 5 9 10 16 20 17 9 9 11 8 16 8 10 11 6 9 15 5 13
3 5 13 4 10 13 11 10 12 14 17 12 1 6 8 6 8 9 7 9 16 5 9 5 2 6 9 14 18 18 18 20 13 11 6 7 7 6 9 9 10 15 8 8 8
5 12 13 16 16 12 10 7 12 14 10 10 5 11 6 6 6 7 8 7 3 9 9 7 6 8 12 16 17 19 19 12 13 12 8 9 5 5 11 17 17 20 17 1 7
7 8 8 10 10 9 10 13 15 13 8 11 10 8 7 8 16 19 18 14 11 8 9 8 6 6 14 9 13 12 7 8 6 7 2 10 4 7 7 8 7 6 10 11 2

GFSSW_850_spd_102.txt.gz
Wind_Speed
21 20 19 19 19 19 18 17 16 15 16 16 17 17 17 17 18 20 23 16 13 9 9 10 9 3 7 8 15 13 1 4 7 9 11 26 18 29 6 11 9 17 23 34 38
22 22 21 20 20 20 20 19 17 16 15 14 15 15 16 16 18 21 17 17 15 14 11 12 10 4 5 6 5 6 3 8 7 12 9 25 24 29 1 10 1 14 14 43 44
23 22 21 21 21 21 20 19 18 18 16 14 13 12 13 13 15 4 6 4 10 11 11 11 6 5 8 12 11 4 6 12 18 22 30 23 17 26 3 5 14 29 43 46 43
23 22 22 22 22 21 21 20 19 17 15 13 11 10 9 7 3 2 6 5 1 4 8 7 6 4 3 4 19 3 15 15 12 19 5 6 12 14 14 17 13 26 42 50 47
24 22 22 22 22 21 20 20 17 15 13 11 9 7 6 6 11 8 3 6 3 3 6 9 6 6 4 5 12 3 6 17 27 29 26 25 17 12 24 37 12 29 47 50 49
25 23 22 22 22 21 20 18 16 15 13 9 6 4 5 4 1 4 1 7 11 8 6 7 6 9 11 6 4 9 14 18 26 28 28 11 18 7 37 39 20 38 48 48 50
25 24 23 23 22 21 18 16 16 13 8 4 3 4 7 8 1 5 4 6 7 6 12 11 9 10 14 8 17 18 8 12 19 15 11 15 13 10 36 40 22 40 43 44 46
28 26 25 25 22 19 16 16 10 8 4 1 1 4 6 2 4 10 9 7 8 9 3 2 5 15 6 9 12 7 4 5 10 12 14 1 11 20 25 13 25 36 39 41 47
29 28 27 25 21 16 17 13 4 8 4 1 1 3 4 0 4 3 10 10 8 9 12 10 13 16 11 3 6 4 5 6 11 12 8 5 9 12 25 20 4 31 37 41 43
31 30 28 23 18 16 18 6 5 3 4 4 4 5 0 3 1 8 7 8 11 8 9 14 10 2 4 5 5 6 4 6 9 15 7 12 8 7 20 17 18 11 38 41 43
32 31 28 22 12 15 20 3 6 1 16 8 7 11 19 7 8 4 4 6 7 7 1 3 2 8 13 11 14 6 7 14 17 16 3 12 10 12 12 10 12 20 22 39 43
31 31 28 21 9 11 16 13 13 11 12 19 18 19 17 11 6 7 8 7 4 5 1 4 6 15 9 11 10 12 11 12 8 6 4 8 8 8 7 8 18 20 26 25 42
30 30 28 20 6 10 13 13 11 11 4 12 5 8 10 10 6 8 16 3 5 4 5 6 12 8 9 13 12 8 6 5 6 4 6 2 9 8 15 20 23 30 28 31 23
29 30 28 21 4 6 6 11 9 12 4 6 2 5 8 4 5 7 15 2 2 3 5 5 6 5 10 7 2 5 5 5 8 7 7 4 6 8 11 11 15 34 34 37 35
26 29 27 22 13 5 11 9 5 5 3 3 3 5 3 7 3 6 12 6 6 6 2 8 7 13 12 6 7 7 5 5 3 3 4 8 4 6 11 12 20 16 29 33 42
25 28 29 19 13 8 14 7 3 4 1 2 4 2 2 6 7 6 9 11 3 2 2 6 5 4 3 6 4 5 5 7 6 4 4 8 4 4 5 6 9 11 19 32 39
26 26 27 15 9 9 9 3 4 4 7 6 2 4 3 4 3 6 5 3 3 2 5 7 1 5 15 9 10 12 8 6 5 5 6 6 3 5 7 6 4 6 8 18 23
27 26 19 3 8 8 10 4 5 4 4 2 6 7 1 2 3 3 2 4 5 3 3 3 7 8 8 3 4 7 4 4 5 3 7 6 2 5 7 7 5 16 12 14 15
28 25 11 0 8 10 7 4 4 3 3 5 8 5 6 9 5 7 5 5 5 3 5 3 4 6 7 8 2 9 6 4 2 2 3 3 6 4 3 5 12 17 26 19 18
28 23 4 4 6 5 5 3 4 4 2 5 5 4 6 7 8 6 4 3 4 4 4 2 3 3 6 8 3 6 5 5 4 3 4 5 5 4 8 7 8 11 17 19 14
22 12 1 4 1 2 2 5 5 7 3 3 0 3 4 1 3 6 4 5 3 2 9 2 3 6 5 3 7 8 6 3 2 4 4 3 6 7 2 5 5 8 18 14 13
12 4 5 3 2 1 1 4 16 12 3 2 1 2 4 5 4 3 3 2 9 2 4 4 5 2 7 9 3 6 3 4 3 8 4 3 6 7 6 1 2 4 13 10 11
19 9 1 13 1 3 8 6 5 10 7 3 2 3 2 4 4 5 6 13 16 3 4 1 2 4 9 7 5 1 6 4 3 2 5 2 6 3 3 6 10 11 14 11 8
7 4 7 2 7 3 6 5 8 13 6 12 5 3 4 5 1 4 5 4 13 8 12 5 2 5 5 7 4 8 17 19 9 1 5 5 5 6 8 8 10 19 11 9 8
3 4 5 4 6 7 3 3 5 7 2 5 6 4 4 3 6 6 6 7 8 7 6 4 3 3 5 7 7 12 17 7 3 4 3 6 5 5 5 5 8 9 10 7 11
4 4 7 11 10 7 4 3 4 7 4 14 1 5 6 5 1 3 3 2 6 6 2 2 3 2 5 8 12 15 4 2 2 2 5 4 5 1 5 8 9 9 12 13 14
5 7 4 6 5 3 2 6 13 10 12 2 3 4 6 4 3 5 5 12 10 5 4 1 1 1 5 8 9 6 2 3 3 2 4 2 6 5 5 4 6 12 13 14 11

GFSSW_850_spd_105.txt.gz
Wind_Speed
20 19 18 17 16 17 16 15 15 15 15 15 15 14 15 15 16 17 20 14 9 8 6 4 2 1 9 6 9 3 3 3 3 2 6 31 14 20 20 6 12 20 14 8 33
21 20 20 19 18 18 17 16 15 14 14 13 13 13 13 14 15 17 11 11 13 13 10 3 3 5 4 3 5 4 3 5 5 5 7 21 21 31 7 5 8 13 10 19 37
22 20 20 20 20 19 18 18 17 16 14 12 11 11 10 10 12 1 5 2 9 13 11 6 3 6 3 3 4 5 5 4 11 21 19 17 16 24 5 3 11 21 25 34 43
23 21 21 21 21 20 18 18 17 16 14 12 10 9 7 5 1 4 5 6 6 8 8 4 7 7 2 3 3 2 9 9 9 14 9 5 10 11 11 11 10 22 32 40 46
24 23 22 22 20 19 19 17 16 15 14 11 9 7 5 3 6 6 3 6 3 1 2 7 9 5 2 4 9 4 4 10 12 18 12 16 10 10 19 18 9 17 37 43 47
26 25 24 23 22 20 17 16 16 16 13 8 6 4 3 2 3 6 4 5 5 5 3 8 4 2 5 4 1 7 11 16 26 30 26 5 13 10 30 22 9 23 42 45 46
27 27 26 25 21 18 15 17 15 11 7 4 2 3 6 4 4 6 3 1 4 7 8 7 5 2 6 5 5 5 7 9 16 7 4 5 8 6 23 24 14 31 42 39 44
29 28 28 26 21 16 17 17 6 8 6 2 2 3 4 2 4 7 9 5 3 5 2 3 4 6 3 6 7 4 3 5 6 2 5 2 9 12 28 21 8 28 32 37 44
31 30 29 26 20 15 19 9 3 6 5 3 3 4 2 2 2 1 4 3 2 6 6 8 9 3 3 3 6 7 2 5 9 6 3 1 11 13 28 18 5 22 29 34 36
31 31 29 25 17 17 18 5 5 3 5 5 6 4 0 4 4 5 4 5 6 7 4 4 3 1 3 4 4 3 2 5 7 9 11 13 8 9 20 18 2 14 26 31 34
31 31 30 25 14 16 15 2 7 2 16 6 5 5 13 5 9 6 2 5 6 4 1 3 4 7 11 8 7 4 4 7 14 17 2 7 10 7 15 27 26 29 12 28 36
30 31 30 26 10 8 14 11 12 9 11 17 16 19 15 14 6 3 6 5 3 4 3 5 5 12 4 5 7 8 7 13 10 12 6 8 7 6 15 9 17 18 21 13 24
29 31 31 26 5 5 8 10 8 10 3 10 3 5 3 3 5 6 10 5 5 3 4 6 10 6 4 7 4 4 5 5 9 3 2 2 9 6 4 16 17 21 17 21 15
28 31 32 29 7 12 5 11 7 6 4 5 3 2 4 4 4 8 9 7 3 6 5 5 4 4 3 1 3 1 4 6 4 5 2 3 4 6 8 9 15 21 24 24 27
27 30 31 27 17 11 9 11 5 3 3 2 2 1 2 4 4 2 7 11 4 3 5 6 5 6 8 6 5 4 5 5 2 2 3 5 4 5 6 9 13 16 21 24 25
25 29 29 26 13 10 11 8 3 4 1 3 1 3 2 3 4 3 6 3 1 1 1 5 2 4 2 4 1 5 3 5 5 3 4 5 4 4 2 3 7 11 17 21 19
25 27 27 16 8 9 11 4 5 3 4 6 3 4 2 4 4 5 3 2 2 2 5 6 3 4 5 6 4 9 7 5 5 5 4 2 2 6 3 1 4 9 9 11 12
25 26 17 5 7 9 10 4 3 2 3 3 3 4 4 6 4 6 3 3 5 4 3 2 5 5 6 1 3 3 4 4 3 2 5 5 2 5 6 6 4 10 9 7 9
25 23 8 4 8 11 5 4 3 2 3 5 4 6 6 5 4 6 4 2 2 2 4 3 4 4 3 4 3 6 2 3 3 2 2 3 5 4 3 3 3 10 12 12 10
26 22 5 3 6 11 5 3 3 3 6 3 3 2 5 6 6 6 4 3 1 2 5 5 1 1 5 5 5 1 3 4 4 3 3 5 5 5 4 6 5 7 18 15 11
21 11 4 3 7 5 2 4 5 15 9 3 4 1 2 3 2 3 4 2 2 2 2 4 3 5 3 3 2 5 4 4 3 4 3 3 5 3 3 4 5 8 14 14 13
11 4 2 3 2 2 0 2 9 10 7 3 3 2 2 1 2 3 1 3 12 2 1 2 5 1 4 5 5 5 2 4 4 6 4 2 6 2 3 6 7 12 15 12 11
17 8 7 3 2 3 6 5 3 5 5 5 3 1 2 0 2 2 4 8 10 5 2 2 2 3 8 6 5 1 3 3 2 3 5 3 6 2 5 7 9 10 11 8 11
7 3 4 6 5 2 4 4 6 9 2 8 4 3 2 3 6 4 7 4 9 5 10 5 3 6 6 6 2 6 6 6 3 3 3 6 6 5 6 7 11 12 11 10 10
3 2 2 3 4 4 2 3 5 8 10 8 5 4 1 4 3 3 3 6 6 4 4 4 4 6 6 6 5 7 9 8 5 6 5 5 6 7 6 7 11 11 11 14 12
4 3 5 6 6 5 4 5 5 5 3 7 1 1 3 5 5 2 0 1 5 3 3 2 3 3 4 8 7 5 11 8 7 5 7 6 8 6 7 11 14 13 13 13 14
4 3 3 4 3 2 2 3 3 8 6 5 3 2 1 6 10 8 13 9 9 7 3 5 5 2 5 3 6 6 6 5 3 4 4 5 6 4 8 8 13 12 13 14 13

GFSSW_850_spd_108.txt.gz
Wind_Speed
20 18 17 16 16 15 15 15 15 14 14 13 12 12 13 13 14 15 17 9 7 8 7 6 4 5 10 5 5 1 3 0 3 4 7 17 5 6 8 13 10 11 9 5 21
22 20 19 18 17 16 16 15 15 14 13 13 12 11 11 11 12 12 7 9 10 11 9 5 5 7 5 3 4 3 3 4 4 3 7 17 12 16 4 5 6 9 16 11 28
23 21 21 20 19 18 17 16 16 14 12 10 10 10 9 8 6 3 4 3 9 13 11 6 4 8 3 3 4 4 4 4 8 13 7 8 16 8 2 3 13 17 23 20 35
25 23 22 22 21 19 18 17 15 14 12 10 8 8 6 3 3 4 6 8 6 14 11 7 8 8 3 3 3 2 9 8 7 9 7 5 12 9 9 18 18 21 26 26 39
26 26 25 24 22 20 18 16 16 16 15 11 7 5 2 2 1 3 3 6 5 8 7 8 11 5 2 3 3 4 4 6 14 21 13 12 16 7 21 18 11 19 24 31 41
28 28 27 25 23 18 16 17 17 14 10 6 3 2 1 0 4 6 6 6 6 2 4 10 6 4 2 2 2 4 7 12 18 25 10 3 10 0 13 19 18 14 23 34 42
29 30 29 27 23 17 18 19 12 9 8 4 1 0 2 3 6 6 5 1 1 2 4 6 4 2 1 4 5 8 7 8 7 3 3 6 8 5 26 22 18 9 19 30 38
30 30 30 28 20 18 20 15 5 9 7 4 4 1 1 5 3 5 7 3 3 2 3 3 2 2 1 4 7 5 5 5 4 3 2 3 7 12 29 21 21 5 20 27 35
30 31 31 29 20 19 20 9 6 6 5 3 3 3 3 1 1 2 3 4 1 2 1 2 2 0 1 3 5 6 1 2 8 2 5 5 7 9 23 22 22 6 17 23 27
30 30 31 30 18 19 21 6 7 4 4 5 4 1 3 2 2 4 3 5 3 2 2 2 2 3 4 5 3 4 3 5 5 1 7 5 5 8 21 25 21 22 4 18 27
29 31 31 30 17 17 21 7 6 1 10 5 4 3 6 3 5 0 4 6 4 2 2 3 4 5 8 6 3 3 2 5 6 5 2 3 5 6 10 17 22 24 22 12 17
29 30 31 30 13 11 16 10 12 8 9 11 8 15 12 10 3 4 8 5 4 3 2 5 3 6 5 5 6 4 2 6 7 2 2 7 3 1 6 6 11 18 25 23 20
29 30 31 29 12 12 9 11 8 11 2 8 3 2 1 4 3 4 10 6 3 4 3 4 4 3 3 1 1 2 4 4 6 6 3 3 3 1 3 4 11 18 20 21 23
28 29 30 28 11 15 3 12 10 7 4 5 2 1 2 2 3 3 7 4 1 3 8 4 4 2 5 1 3 2 5 5 4 3 3 3 4 3 3 5 4 15 21 23 26
27 28 29 27 19 8 10 10 6 2 4 2 1 1 1 3 4 1 7 7 5 4 5 5 2 2 4 3 1 4 3 2 1 3 3 5 4 6 6 8 10 11 19 20 20
25 26 27 24 11 11 10 8 1 5 0 3 4 5 3 1 2 1 3 4 3 4 3 4 1 3 2 2 2 5 3 7 4 3 3 4 4 5 2 3 6 9 21 20 21
24 24 24 11 10 11 13 2 4 3 3 5 3 5 2 4 5 2 2 5 1 4 5 5 3 5 4 5 5 8 6 4 5 5 4 2 1 7 4 4 2 8 19 20 19
24 22 14 4 9 13 13 4 2 1 2 2 4 2 4 6 4 7 3 3 6 5 3 3 4 4 6 1 3 3 4 4 3 3 4 3 4 4 5 5 5 9 12 16 18
24 20 5 3 8 13 5 4 5 2 5 6 2 6 6 5 3 4 4 2 0 2 5 3 3 4 1 2 3 4 5 1 4 2 1 3 5 5 3 3 9 13 15 17 17
23 18 4 5 9 12 4 3 2 3 4 2 2 2 4 6 5 5 3 3 2 3 2 5 1 2 6 4 6 7 2 4 4 2 4 5 5 5 5 6 7 10 18 20 19
18 9 4 7 9 4 3 4 4 7 4 3 1 2 2 2 0 2 2 2 5 1 6 3 3 4 2 3 1 4 3 6 4 4 3 3 5 6 5 4 7 11 18 21 20
9 3 6 8 4 2 1 2 5 4 7 4 1 2 2 1 2 3 3 3 13 1 2 2 5 2 5 3 3 2 4 4 4 5 4 2 6 2 3 5 7 14 18 20 19
15 6 4 0 2 2 5 4 2 7 6 6 5 4 2 2 3 4 3 6 14 4 3 4 1 2 7 6 4 2 2 4 4 3 5 3 6 4 5 6 8 12 19 19 22
7 3 3 7 5 3 3 3 6 11 2 5 3 3 3 4 5 2 5 2 7 3 7 4 3 6 6 7 3 4 5 6 5 3 3 6 9 8 6 7 11 14 17 19 22
3 2 1 2 3 3 0 2 2 6 4 7 3 3 2 3 2 1 1 4 3 2 3 4 3 5 5 6 5 5 10 11 7 7 5 12 6 9 7 6 12 14 16 22 23
3 3 4 3 4 2 1 1 1 5 2 5 2 3 0 5 6 6 4 4 5 2 2 1 3 6 6 8 7 5 10 10 12 6 6 5 8 3 7 16 15 17 17 21 24
2 3 3 3 3 1 3 1 1 3 4 3 6 1 2 2 8 5 9 6 6 5 3 3 5 2 7 4 3 6 5 4 2 1 2 5 7 4 7 11 15 18 16 23 28

GFSSW_850_spd_111.txt.gz
Wind_Speed
20 19 18 17 16 15 14 14 13 12 11 10 10 9 9 9 11 12 12 8 7 13 10 10 10 9 9 5 3 1 2 1 4 6 9 10 10 9 9 9 5 6 5 4 26
23 22 20 19 18 15 15 14 14 13 12 10 9 8 7 7 8 8 5 8 10 10 13 12 9 10 5 3 3 2 1 1 2 10 8 12 7 11 8 15 5 6 10 12 27
25 24 23 22 20 18 15 14 13 12 10 9 8 7 6 4 0 3 2 4 10 12 11 7 7 8 3 3 4 3 3 2 10 9 6 13 13 9 8 11 17 15 14 19 29
26 25 25 24 22 19 16 13 13 12 12 10 9 5 3 1 3 4 6 4 12 15 14 9 9 6 3 3 4 4 7 7 7 9 10 11 14 13 8 14 19 17 13 20 30
26 27 27 26 23 17 15 16 15 14 10 8 5 2 1 2 4 2 7 9 12 14 13 10 10 5 3 3 2 6 5 6 10 16 15 14 13 7 11 18 19 14 12 21 28
27 27 29 28 22 17 18 19 13 8 7 3 1 3 3 3 6 8 10 11 8 8 8 9 7 5 2 2 3 1 9 15 12 12 4 5 6 3 20 24 17 7 9 17 24
27 28 29 29 21 19 21 15 8 9 7 6 4 3 4 5 8 9 8 6 5 3 4 8 6 3 1 3 2 4 9 6 2 6 4 8 9 13 21 21 16 7 3 11 19
27 28 29 30 21 20 22 11 6 8 7 6 5 3 3 9 5 5 6 4 3 4 5 5 4 2 1 2 3 3 0 5 4 6 3 6 5 11 20 15 18 15 2 8 15
27 28 29 29 21 19 22 10 7 5 4 3 3 3 5 3 3 3 6 3 4 4 6 4 3 1 1 2 1 4 5 7 5 5 5 6 4 13 17 17 18 19 11 4 6
27 28 29 29 20 17 22 11 7 4 3 4 2 2 4 4 4 2 5 9 3 4 5 2 2 1 1 1 3 7 5 5 7 2 4 8 6 7 13 15 16 17 17 12 4
28 28 27 28 18 17 21 8 6 2 6 1 2 3 1 3 0 5 6 9 3 2 1 2 3 2 2 2 2 1 4 8 4 2 2 7 8 7 11 13 16 17 17 16 13
28 28 27 27 16 16 15 10 10 7 7 5 5 11 9 4 1 6 8 4 3 2 3 1 1 3 2 2 2 2 4 3 8 2 2 4 4 3 7 8 12 16 16 17 18
27 28 27 27 12 16 8 13 11 9 3 5 2 0 4 7 3 8 12 5 3 3 3 1 3 4 3 4 2 1 3 2 3 7 2 3 3 2 3 6 10 14 16 16 18
26 27 27 26 10 12 5 11 10 4 2 2 0 2 4 2 1 6 13 4 2 1 5 2 1 2 4 4 1 0 3 7 8 4 6 4 7 3 2 2 5 13 18 21 22
25 25 24 23 12 8 8 10 6 1 2 1 2 1 2 2 1 2 9 5 5 4 3 3 2 2 5 2 2 1 4 5 6 6 2 2 4 3 3 4 3 7 12 16 20
23 23 22 18 9 9 11 7 2 2 2 2 2 2 1 3 3 2 3 3 3 3 2 2 1 2 3 1 2 6 3 2 2 1 5 3 3 4 2 1 6 10 13 15 18
22 21 21 8 6 10 13 0 2 2 1 3 2 4 2 4 2 4 2 3 1 2 2 2 2 1 3 1 2 5 6 3 2 3 2 4 4 4 3 3 3 10 15 16 17
21 18 13 3 7 11 11 1 3 1 2 2 3 1 3 5 3 3 3 3 4 2 2 3 4 2 5 3 3 4 3 3 4 3 4 1 4 2 4 3 2 8 12 14 16
21 15 5 6 8 12 4 2 1 1 2 4 1 2 2 2 3 2 4 2 3 1 1 3 2 1 4 4 2 3 2 2 1 1 3 1 3 7 3 6 9 13 12 12 15
21 15 1 5 8 9 1 1 1 2 4 2 1 0 1 3 1 2 3 3 2 3 3 3 2 1 2 4 8 5 5 1 2 3 5 3 5 9 7 6 7 9 12 14 16
16 8 2 7 8 2 1 1 3 3 3 2 2 3 2 1 2 2 3 3 4 2 3 3 2 2 2 1 1 3 3 4 0 3 4 6 4 3 9 9 10 12 14 13 16
6 3 4 6 1 1 1 1 4 4 6 2 1 2 2 2 2 3 3 3 9 2 0 1 1 3 1 1 3 1 1 1 3 3 5 6 10 6 6 7 9 13 14 15 15
13 6 3 2 2 2 0 0 1 5 4 4 2 3 1 3 3 2 2 1 6 2 2 4 1 3 3 4 3 3 3 3 1 2 12 10 7 1 8 9 11 14 16 17 18
6 3 4 5 5 1 1 1 1 4 1 4 2 1 3 2 3 4 4 1 4 3 4 3 2 5 7 7 3 6 6 7 8 7 14 14 20 19 16 10 14 14 18 18 17
4 2 2 3 3 3 1 2 1 1 2 6 2 4 0 3 2 2 1 1 1 1 2 1 4 5 13 10 8 12 15 16 14 17 11 17 20 16 11 7 13 13 15 16 17
3 3 4 3 5 2 1 2 1 3 3 2 2 5 1 2 2 6 3 1 2 2 3 1 7 2 12 13 15 18 18 20 18 17 18 18 16 5 3 9 9 13 16 21 23
2 3 2 2 2 2 2 3 3 2 2 1 6 3 2 2 8 7 7 2 3 3 2 2 2 2 7 5 7 10 17 13 9 8 7 10 13 4 11 9 10 13 18 22 27

GFSSW_850_spd_114.txt.gz
Wind_Speed
21 20 19 17 16 14 13 12 10 9 8 7 8 7 7 8 9 10 10 9 11 13 10 10 9 7 7 6 6 4 7 3 1 3 6 9 13 11 11 7 6 3 6 3 25
22 22 21 20 18 15 13 12 11 9 7 7 6 6 5 5 6 8 7 8 9 15 13 15 11 10 7 6 4 10 5 4 4 7 8 10 11 12 15 13 9 2 1 14 27
23 23 24 23 21 15 12 11 11 9 8 6 6 5 3 1 2 3 3 8 11 14 12 11 9 9 8 6 6 2 7 3 7 7 11 15 15 13 11 11 15 13 4 19 26
23 24 26 26 20 15 13 13 13 12 10 9 6 3 2 5 2 3 1 7 14 16 14 10 10 9 8 7 5 9 5 8 11 13 15 15 15 11 6 12 16 14 8 19 25
23 25 27 27 19 16 16 15 11 8 6 4 2 4 6 3 4 3 6 10 16 15 13 10 10 7 8 4 5 10 9 8 11 13 13 9 4 4 8 17 15 11 5 16 20
23 25 27 28 20 17 18 12 7 7 6 3 4 7 7 5 7 9 11 12 11 11 10 8 5 6 3 5 7 6 10 13 6 2 1 4 5 4 14 17 14 10 1 9 16
24 25 27 28 20 18 19 9 7 7 6 6 7 7 3 5 9 11 11 7 10 7 6 8 5 7 1 5 3 9 10 4 2 2 3 3 7 9 13 13 13 12 7 2 8
24 25 26 28 20 17 19 9 5 5 6 6 7 8 4 9 7 9 8 7 7 4 5 6 5 5 6 3 6 5 5 8 8 5 4 5 10 10 13 12 13 14 9 4 2
24 25 25 26 19 17 19 10 4 3 2 4 6 4 8 5 3 7 8 3 6 5 6 5 5 5 6 9 7 5 0 1 5 3 4 6 5 9 11 12 14 16 14 9 5
25 25 25 25 19 17 18 7 5 2 3 3 3 3 7 7 6 6 10 8 5 7 7 6 7 7 6 8 1 3 2 2 0 4 3 1 5 6 8 12 14 15 16 16 11
25 25 25 24 16 17 16 7 4 1 2 2 1 2 6 3 3 7 10 9 6 7 6 6 8 3 5 3 4 4 5 4 3 3 4 1 1 5 5 9 12 14 15 16 15
25 25 24 24 12 15 11 5 5 3 3 2 3 5 5 5 6 9 11 10 8 5 5 7 2 3 2 3 5 4 5 2 2 1 8 6 6 3 3 7 10 13 13 14 14
24 24 23 23 8 12 7 9 9 6 5 2 2 3 4 7 6 13 12 5 5 5 6 4 9 5 4 4 6 2 6 4 8 7 9 6 12 10 6 6 7 12 12 14 15
23 23 22 21 6 10 4 12 9 2 5 7 6 5 5 4 6 7 10 3 4 2 4 2 4 1 0 3 6 3 5 7 10 10 8 4 10 9 8 4 4 9 14 15 16
22 21 20 17 7 5 8 12 5 1 5 6 7 4 5 5 7 7 9 6 4 5 6 7 3 3 4 3 5 6 8 9 12 13 10 11 7 9 7 7 3 6 10 13 16
20 19 18 13 4 7 11 7 1 6 3 6 5 6 9 6 5 6 7 5 1 4 3 3 2 2 3 1 2 7 9 13 8 9 10 4 5 2 4 3 3 8 10 11 12
19 17 15 5 2 8 12 1 5 6 4 6 5 5 5 5 7 6 10 10 7 8 9 6 6 6 2 8 7 9 10 7 5 6 3 4 7 6 6 4 4 8 11 11 11
17 15 9 3 4 8 6 5 6 3 1 3 2 6 7 5 4 6 8 8 3 7 3 6 8 7 1 4 6 3 7 5 7 6 6 6 6 4 3 3 1 6 12 10 11
16 12 4 4 4 8 7 7 3 1 0 2 6 9 7 6 3 7 3 2 2 2 5 4 4 5 3 1 5 5 2 5 8 7 8 3 3 8 5 3 4 11 10 11 13
16 11 3 4 4 5 6 5 2 2 3 5 8 4 9 6 8 8 8 3 6 2 2 3 6 6 5 4 3 6 3 6 4 7 9 4 8 9 7 6 11 11 11 11 12
10 5 4 4 4 6 6 0 3 2 2 4 4 5 4 4 4 4 4 6 1 4 1 2 4 8 5 9 4 6 9 3 6 5 8 10 2 6 5 6 10 15 13 14 16
4 4 4 2 6 2 5 1 0 2 2 4 4 3 6 4 5 5 7 2 2 1 3 2 5 9 7 6 2 6 5 7 6 5 8 10 14 5 4 6 13 14 13 15 17
9 5 4 1 5 6 4 4 2 3 0 3 6 4 4 5 4 4 5 5 2 1 0 2 4 8 11 10 8 9 8 9 7 7 12 11 9 2 5 15 12 12 12 16 18
5 3 2 2 2 6 4 5 6 2 2 2 1 5 7 7 4 6 7 5 3 3 2 2 8 9 12 13 8 10 12 11 12 9 15 15 19 16 14 14 12 12 14 14 17
2 2 3 1 4 3 4 2 8 7 3 2 5 5 8 8 8 7 5 6 6 4 4 3 9 12 12 14 16 16 18 16 19 20 19 19 20 17 14 10 10 9 11 15 19
5 4 3 5 4 5 4 6 8 4 4 5 7 1 4 8 7 6 7 5 5 7 7 2 9 11 15 17 17 20 20 21 22 21 20 18 16 7 9 13 10 10 12 14 20
4 4 5 1 4 5 5 4 5 3 4 1 4 6 8 5 3 3 5 2 3 6 6 6 8 7 14 7 9 13 19 18 14 11 12 11 12 13 12 11 8 10 10 12 14

GFSSW_850_spd_117.txt.gz
Wind_Speed
21 21 21 20 18 14 12 10 10 9 9 8 8 8 8 8 9 10 9 9 11 10 8 6 8 7 7 11 8 10 8 8 2 1 8 7 10 8 8 8 7 5 10 10 23
21 22 23 23 19 13 11 10 9 8 8 7 7 6 5 6 7 12 11 14 12 14 11 11 9 7 12 8 6 11 11 8 10 8 8 10 10 13 7 11 8 10 7 16 23
21 23 24 25 18 13 11 10 10 9 8 8 6 4 3 3 3 3 10 10 12 13 11 10 7 9 12 10 10 11 9 10 6 8 8 11 11 10 10 5 15 10 7 16 21
21 23 25 26 17 14 14 13 11 9 8 9 8 5 4 5 1 3 3 8 13 17 11 12 10 12 13 8 4 8 11 4 8 9 11 11 11 7 4 10 7 7 2 16 20
22 24 26 27 17 15 16 11 7 6 4 3 5 7 9 6 4 2 1 10 16 13 14 13 12 13 12 7 4 11 8 7 9 9 7 4 2 5 10 8 8 8 3 14 18
22 24 25 26 18 16 16 8 7 7 4 1 6 9 7 7 4 4 7 11 12 11 13 12 9 9 14 7 8 12 9 9 4 3 1 7 7 2 8 8 9 7 4 8 15
23 24 25 26 21 15 16 7 5 6 5 5 7 8 5 6 7 10 10 9 9 10 9 10 9 10 3 10 4 10 12 8 5 2 4 6 8 9 5 5 10 8 8 4 8
23 24 24 25 23 15 16 7 3 3 4 5 7 6 4 8 8 9 7 6 8 8 8 7 8 11 9 6 11 12 12 11 9 5 5 11 11 8 6 9 10 9 8 7 4
23 24 24 24 22 17 16 5 2 1 2 5 5 2 7 7 8 10 9 6 5 6 7 6 8 14 6 12 12 8 8 1 8 1 4 6 6 10 6 11 12 13 11 9 8
23 23 24 24 19 17 15 7 5 3 1 4 4 6 9 10 8 10 10 6 7 7 8 9 9 10 12 12 7 5 5 7 4 6 5 6 5 7 5 10 11 12 14 14 12
23 23 23 22 17 16 15 9 2 2 8 9 6 2 12 9 8 9 11 9 7 8 12 12 11 13 3 8 7 5 6 7 2 2 9 3 2 3 2 5 8 10 12 13 14
23 22 21 21 13 10 13 5 5 5 7 5 6 6 7 7 9 11 12 12 9 13 4 7 13 10 3 5 6 7 9 7 3 2 8 9 9 8 3 4 6 8 10 11 11
23 22 20 19 9 10 5 6 7 5 8 7 8 10 12 11 10 14 16 12 10 7 10 14 14 3 7 6 9 9 8 8 10 6 14 11 15 14 8 7 7 8 7 11 10
21 21 20 15 5 8 2 10 9 3 6 11 10 8 10 11 8 14 15 6 5 6 3 9 8 4 6 2 8 7 5 6 11 12 12 6 8 15 15 10 5 6 6 11 9
19 19 16 15 7 6 8 11 5 2 5 13 11 12 15 13 16 12 12 10 12 6 9 4 8 7 8 4 6 11 10 11 12 14 15 16 8 13 10 9 8 7 6 8 9
18 17 15 10 6 6 10 9 3 7 3 8 9 12 14 14 11 12 12 11 6 6 8 3 1 5 5 1 6 8 12 15 16 13 13 17 3 8 9 7 11 10 6 6 7
16 14 12 5 3 10 11 5 7 8 4 9 12 12 17 11 12 11 15 14 11 9 14 9 11 5 7 10 10 11 13 10 7 11 1 9 4 6 9 5 6 6 3 6 7
15 13 9 5 6 8 8 9 9 5 2 3 2 9 12 9 10 11 13 14 11 9 11 8 12 11 5 5 9 10 8 8 10 10 10 11 6 4 9 8 4 3 7 10 9
14 7 7 5 6 5 10 9 11 3 5 5 8 12 14 5 9 11 14 14 7 8 11 8 8 8 3 2 4 2 9 9 11 17 10 12 7 10 10 5 5 4 11 8 9
13 7 8 7 5 6 9 14 7 5 6 7 13 11 13 13 12 11 12 5 4 6 7 5 9 13 10 6 10 10 10 10 10 5 10 7 5 5 12 6 5 8 12 14 11
7 7 6 3 4 11 10 5 3 4 7 9 11 10 12 8 7 13 7 8 3 6 9 12 7 6 7 13 13 8 10 6 7 7 9 10 1 5 1 6 6 10 14 16 16
5 6 2 3 12 11 9 4 1 10 8 10 8 11 8 8 9 13 6 3 4 11 9 1 6 10 14 10 3 11 15 14 8 11 8 9 12 10 6 5 9 11 9 11 16
7 12 7 7 7 9 7 8 9 7 9 7 9 10 7 7 8 7 4 10 3 8 7 2 8 11 15 16 12 6 10 9 9 10 14 12 10 1 1 9 9 12 11 13 17
7 4 8 10 13 10 9 8 10 6 10 7 9 1 9 12 6 5 7 8 5 2 8 4 11 13 13 18 14 8 10 11 14 11 14 14 17 15 15 16 12 13 13 14 16
5 1 6 3 4 7 5 8 9 9 11 6 9 12 12 12 12 11 11 11 9 8 7 6 12 13 15 16 17 18 19 20 19 18 18 19 21 18 15 9 10 13 8 14 17
7 5 5 14 7 9 5 10 11 10 2 10 11 11 9 11 11 11 12 9 10 13 8 10 9 10 16 18 18 21 22 21 21 20 21 21 19 8 10 13 14 14 14 15 16
6 7 7 6 9 9 10 10 7 9 4 11 6 7 10 7 7 9 8 9 5 7 8 9 9 11 16 14 15 13 18 19 16 16 15 14 10 13 12 13 14 13 13 14 15

GFSSW_850_spd_120.txt.gz
Wind_Speed
20 21 23 23 20 12 10 9 9 9 9 9 8 8 8 9 10 12 13 9 11 10 8 4 6 8 9 12 15 12 12 12 17 11 12 14 9 12 7 13 12 15 10 26 29
21 22 24 26 18 13 11 10 9 8 8 7 6 6 7 7 9 14 10 13 15 12 11 8 7 7 10 15 6 10 11 14 12 9 10 11 10 8 6 6 15 20 29 27 29
22 23 25 26 18 14 14 14 12 10 9 8 6 5 5 6 6 10 15 14 13 12 12 9 9 7 15 14 11 8 11 12 13 11 9 12 10 7 8 8 15 6 25 23 26
22 23 25 26 19 15 17 12 9 7 7 8 8 6 5 4 2 1 4 8 11 11 11 12 12 12 14 14 9 6 10 12 9 9 9 8 8 3 13 9 4 9 21 22 24
22 23 25 25 22 15 17 10 7 7 5 4 5 7 7 5 2 2 2 7 12 14 11 11 11 11 13 14 10 8 9 8 9 6 6 4 7 8 11 5 8 7 5 21 20
22 23 25 25 24 14 16 11 7 6 4 1 5 9 7 9 2 3 2 7 10 12 9 11 11 10 14 16 9 12 11 10 5 6 0 4 8 3 6 5 9 9 5 17 18
22 23 24 25 24 15 16 11 5 5 5 4 6 8 7 4 4 7 5 8 9 10 9 9 11 13 6 12 6 8 11 13 7 3 3 8 10 8 3 7 12 10 7 5 14
22 22 23 25 24 15 16 8 1 1 3 3 6 5 3 5 7 8 7 5 8 9 9 9 10 14 16 15 15 13 15 11 12 3 7 8 10 8 4 14 11 8 7 7 2
22 22 23 23 23 17 14 6 2 1 1 4 5 5 4 8 10 9 8 6 6 8 8 7 8 14 17 11 14 13 11 12 10 5 3 6 13 9 10 12 12 11 7 10 7
22 22 22 22 20 14 11 6 3 4 1 6 6 7 10 9 9 10 10 7 6 6 8 8 10 12 13 12 10 11 3 5 1 11 4 5 3 11 3 14 13 13 11 12 10
23 22 21 20 16 11 13 7 4 2 10 10 13 7 9 9 8 9 11 8 8 8 11 14 10 13 9 6 11 10 7 8 3 4 3 13 5 7 3 7 15 13 15 12 12
23 22 20 18 11 7 10 8 5 5 11 20 12 9 5 10 9 10 12 10 11 11 14 7 12 2 8 5 7 9 7 12 3 4 4 11 8 10 8 5 9 15 11 14 12
22 22 20 15 6 7 4 7 7 7 7 14 13 16 13 11 12 13 15 14 11 12 9 13 5 7 2 8 7 12 11 10 9 7 9 15 12 12 14 9 11 9 15 13 8
21 20 19 14 5 6 3 9 9 6 5 13 11 11 14 12 11 15 15 14 7 11 10 9 8 3 6 10 4 8 10 5 9 11 12 11 10 15 17 13 11 13 13 14 9
19 19 14 14 9 6 8 10 9 3 5 12 12 13 14 13 15 12 14 12 13 9 5 3 3 5 5 5 6 13 10 11 13 13 15 16 10 8 18 16 13 15 11 9 8
17 17 15 11 8 5 11 11 5 6 6 10 11 11 14 18 9 15 12 12 10 10 8 13 5 4 7 7 4 10 13 15 16 15 13 18 13 11 14 12 14 17 12 6 3
17 14 15 10 6 8 11 8 6 8 9 11 12 13 15 15 13 10 12 13 11 9 12 14 11 10 1 9 11 10 12 9 11 11 6 8 4 10 13 12 14 14 9 6 1
16 13 11 11 10 9 9 8 8 13 9 6 2 15 14 16 13 13 13 13 15 16 11 9 7 14 9 5 9 8 6 5 11 12 9 9 6 7 16 18 14 8 4 1 3
16 8 12 9 5 6 9 9 11 11 8 3 8 11 12 14 7 13 12 14 14 18 10 10 5 12 5 2 2 3 7 13 8 13 13 11 4 9 13 11 14 8 5 5 8
18 10 13 11 6 7 8 14 17 15 5 6 10 7 13 15 10 13 11 12 12 4 4 11 9 6 10 4 8 9 10 8 9 12 9 7 10 8 9 7 8 3 2 7 7
12 7 10 6 6 10 9 14 11 6 2 7 13 15 14 15 10 13 16 11 7 3 3 12 12 10 12 6 12 8 11 7 9 6 8 8 4 10 9 9 6 4 10 5 7
6 6 7 6 10 12 12 18 9 8 5 8 10 15 16 8 16 6 14 8 4 8 6 4 8 9 17 14 3 6 11 13 10 12 9 10 9 12 7 3 6 7 14 14 12
9 16 10 8 8 11 16 12 6 9 12 9 10 10 14 12 8 8 12 11 6 2 4 6 5 9 15 16 13 8 4 11 9 8 11 10 10 4 10 2 5 11 6 6 8
7 4 11 14 18 16 14 11 9 11 13 10 10 11 10 10 11 8 12 9 7 8 8 3 10 10 12 17 12 10 10 10 11 8 12 14 15 13 14 12 9 9 12 5 8
6 4 8 5 1 10 10 12 9 9 10 13 9 14 9 12 12 12 12 8 9 10 4 4 11 14 16 16 17 17 18 17 17 17 17 18 19 14 9 10 11 11 10 9 12
10 9 17 18 15 9 6 9 13 15 12 9 11 15 12 13 12 14 11 12 11 15 9 8 13 11 14 15 17 21 20 19 20 20 21 19 18 6 12 13 15 14 15 16 14
12 11 11 11 12 9 12 14 13 9 14 6 10 11 12 12 16 17 13 9 7 5 9 6 8 9 14 14 18 16 18 18 17 15 16 14 8 11 10 9 9 14 15 12 9

GFSSW_850_spd_123.txt.gz
Wind_Speed
20 22 23 25 20 13 11 10 10 9 9 9 8 9 9 9 10 13 16 10 8 12 6 3 6 5 9 20 20 20 2 6 5 10 7 16 10 14 13 28 11 13 33 40 38
21 22 24 24 22 14 14 13 11 10 9 8 7 7 8 9 11 15 7 10 10 9 8 3 6 7 12 20 18 9 2 4 6 6 7 12 5 6 11 26 32 29 35 39 40
21 22 23 24 24 15 16 13 10 9 8 8 8 6 7 7 8 4 1 8 9 10 9 7 14 15 17 21 27 10 1 5 8 12 9 5 9 16 17 8 34 39 41 42 41
21 22 23 24 25 15 16 12 9 7 6 6 7 7 6 3 3 4 3 5 9 9 10 7 7 17 9 7 21 3 9 10 7 7 5 3 3 16 16 7 28 41 44 42 38
21 22 23 24 25 15 15 13 8 8 6 4 5 7 5 3 6 3 1 4 8 11 14 5 12 15 9 11 19 5 4 11 10 10 4 4 12 13 6 13 25 36 40 41 36
21 22 23 24 24 16 16 13 7 7 5 1 3 7 4 4 4 5 1 4 8 11 8 6 11 15 14 15 8 13 7 9 8 7 3 4 6 15 1 22 18 32 37 39 37
21 21 22 23 24 16 17 12 3 4 4 2 4 6 6 7 4 4 3 4 6 9 8 5 9 14 20 11 14 14 5 8 11 11 4 2 8 5 7 21 23 12 13 30 33
21 21 21 22 23 17 15 8 2 2 3 1 4 4 5 3 7 2 5 6 3 3 10 12 10 11 18 19 20 10 5 3 7 8 7 7 3 5 25 26 20 17 10 7 13
21 21 20 20 21 14 12 9 4 2 1 1 4 4 8 8 14 8 8 9 6 8 8 8 9 12 17 7 7 6 8 6 5 3 3 6 6 7 25 28 23 23 21 13 11
21 21 20 18 18 10 12 8 3 1 3 5 5 6 9 10 11 12 8 8 8 8 7 8 6 4 5 2 5 6 7 8 8 6 3 5 8 6 25 29 25 22 21 18 15
22 21 19 16 12 8 11 5 5 1 7 11 10 7 3 10 8 14 10 6 8 7 6 17 3 7 13 10 3 7 7 7 5 7 5 4 8 9 18 26 24 28 25 20 16
22 21 19 14 6 4 7 9 6 5 11 18 24 22 7 11 8 9 12 9 8 8 10 4 9 11 3 4 4 7 8 7 1 9 7 5 6 9 8 18 28 28 27 24 18
21 21 19 13 2 4 6 6 9 9 5 12 20 21 11 9 14 17 17 16 9 8 11 9 8 4 2 5 5 4 5 4 3 6 3 4 7 7 8 25 28 32 32 27 22
20 20 18 13 2 5 4 8 10 7 2 6 12 12 20 13 9 16 17 16 7 10 9 5 5 5 5 6 1 7 9 9 9 8 3 3 5 5 10 9 13 25 26 22 20
19 19 14 15 11 3 7 11 11 3 3 12 9 6 22 14 8 18 15 16 13 11 1 8 3 7 3 4 7 3 7 7 7 7 4 10 0 2 13 10 14 20 30 29 25
18 17 16 12 11 0 10 13 8 1 6 10 9 7 9 17 12 21 17 15 11 7 8 7 4 3 3 5 4 4 6 8 7 4 3 15 8 2 9 12 10 20 28 24 20
17 15 17 13 6 1 5 11 0 4 9 8 9 10 10 9 12 10 7 6 4 2 6 9 10 7 5 4 6 6 4 4 6 5 3 10 5 6 6 14 16 16 24 18 23
18 16 13 11 7 4 7 3 4 9 9 7 10 13 10 11 12 13 10 7 10 9 5 5 9 10 6 5 1 3 3 4 2 3 6 7 3 4 14 22 27 29 20 19 19
19 14 15 8 4 3 7 3 6 5 13 10 5 3 10 13 11 10 11 12 10 11 9 2 2 11 8 5 6 3 3 4 2 4 3 4 5 8 13 10 18 19 20 20 18
21 16 13 9 8 5 2 5 6 10 14 9 5 4 4 7 6 7 5 6 8 3 10 2 2 3 6 9 1 5 4 4 4 2 5 5 2 5 6 7 7 10 13 16 14
15 10 3 14 10 8 4 6 9 23 1 4 6 9 10 9 9 4 10 9 9 6 10 5 4 8 6 3 8 0 1 4 4 4 1 3 2 5 7 8 7 9 22 20 15
6 3 12 9 6 6 6 7 8 16 6 1 3 8 8 10 9 7 4 4 12 10 9 3 3 2 9 8 8 2 8 5 5 6 2 2 5 8 9 8 18 17 18 13 10
16 8 6 10 3 6 12 18 23 8 6 3 4 6 9 6 5 6 6 9 14 7 3 5 2 2 8 8 6 3 2 5 1 3 5 4 5 3 7 8 18 17 13 12 8
7 4 9 13 14 8 9 12 15 11 3 11 7 9 7 6 6 5 5 5 18 9 8 6 2 4 5 5 6 5 8 4 7 3 5 6 5 9 6 9 14 17 15 10 8
3 3 9 4 4 11 7 10 10 9 9 4 4 6 8 5 7 6 7 5 11 12 5 5 2 3 5 9 10 9 10 10 7 6 4 7 6 2 7 8 14 15 12 11 10
6 8 12 15 15 9 9 5 8 13 5 5 7 8 8 4 5 6 6 6 6 2 5 4 3 3 5 7 9 12 12 12 12 10 9 9 5 9 16 15 14 12 11 10 10
9 13 7 11 9 7 6 7 12 11 16 14 6 3 13 9 16 17 18 14 6 6 5 6 3 2 3 6 9 7 7 10 11 9 6 2 5 6 8 12 16 18 10 13 8